<?xml version='1.0' encoding='UTF-8'?><gpx version="1.1" creator="JPX - https://github.com/jenetics/jpx" xmlns="http://www.topografix.com/GPX/1/1"><trk><trkseg><trkpt lat="44.8376347" lon="10.8720256"><ele>19.666666666666668</ele><time>2026-04-06T08:01:47.477Z</time></trkpt><trkpt lat="44.8376897" lon="10.8719689"><ele>19.333333333333336</ele><time>2026-04-06T08:01:49.477Z</time></trkpt><trkpt lat="44.8377589" lon="10.8719837"><ele>19.0</ele><time>2026-04-06T08:01:51.477Z</time></trkpt><trkpt lat="44.8377825" lon="10.8720932"><ele>18.666666666666668</ele><time>2026-04-06T08:01:53.477Z</time></trkpt><trkpt lat="44.8377683" lon="10.8722509"><ele>18.333333333333332</ele><time>2026-04-06T08:01:55.476Z</time></trkpt><trkpt lat="44.8377537" lon="10.8723384"><ele>18.0</ele><time>2026-04-06T08:01:56.476Z</time></trkpt><trkpt lat="44.8377355" lon="10.8724422"><ele>18.0</ele><time>2026-04-06T08:01:57.476Z</time></trkpt><trkpt lat="44.8377182" lon="10.8725497"><ele>18.0</ele><time>2026-04-06T08:01:58.477Z</time></trkpt><trkpt lat="44.8377026" lon="10.8726699"><ele>18.0</ele><time>2026-04-06T08:01:59.476Z</time></trkpt><trkpt lat="44.8376867" lon="10.8727968"><ele>18.0</ele><time>2026-04-06T08:02:00.476Z</time></trkpt><trkpt lat="44.8376686" lon="10.8729263"><ele>18.0</ele><time>2026-04-06T08:02:01.476Z</time></trkpt><trkpt lat="44.8376434" lon="10.8730743"><ele>18.0</ele><time>2026-04-06T08:02:02.477Z</time></trkpt><trkpt lat="44.8376251" lon="10.8732207"><ele>18.0</ele><time>2026-04-06T08:02:03.476Z</time></trkpt><trkpt lat="44.8376049" lon="10.873384"><ele>18.0</ele><time>2026-04-06T08:02:04.476Z</time></trkpt><trkpt lat="44.8375828" lon="10.8735434"><ele>18.0</ele><time>2026-04-06T08:02:05.477Z</time></trkpt><trkpt lat="44.8375537" lon="10.8737118"><ele>18.0</ele><time>2026-04-06T08:02:06.477Z</time></trkpt><trkpt lat="44.8375236" lon="10.8738803"><ele>18.0</ele><time>2026-04-06T08:02:07.477Z</time></trkpt><trkpt lat="44.8374955" lon="10.8740438"><ele>18.0</ele><time>2026-04-06T08:02:08.476Z</time></trkpt><trkpt lat="44.8374538" lon="10.8742156"><ele>18.0</ele><time>2026-04-06T08:02:09.476Z</time></trkpt><trkpt lat="44.8374215" lon="10.8743899"><ele>18.25</ele><time>2026-04-06T08:02:10.476Z</time></trkpt><trkpt lat="44.837387" lon="10.8745675"><ele>18.5</ele><time>2026-04-06T08:02:11.476Z</time></trkpt><trkpt lat="44.837346" lon="10.8747508"><ele>18.75</ele><time>2026-04-06T08:02:12.476Z</time></trkpt><trkpt lat="44.8373042" lon="10.8749324"><ele>19.0</ele><time>2026-04-06T08:02:13.476Z</time></trkpt><trkpt lat="44.8372578" lon="10.8751163"><ele>18.5</ele><time>2026-04-06T08:02:14.477Z</time></trkpt><trkpt lat="44.837216" lon="10.8753045"><ele>18.0</ele><time>2026-04-06T08:02:15.477Z</time></trkpt><trkpt lat="44.8371761" lon="10.875492"><ele>17.5</ele><time>2026-04-06T08:02:16.476Z</time></trkpt><trkpt lat="44.8371284" lon="10.8756836"><ele>17.0</ele><time>2026-04-06T08:02:17.476Z</time></trkpt><trkpt lat="44.8370903" lon="10.8758704"><ele>16.75</ele><time>2026-04-06T08:02:18.477Z</time></trkpt><trkpt lat="44.8370528" lon="10.8760519"><ele>16.5</ele><time>2026-04-06T08:02:19.476Z</time></trkpt><trkpt lat="44.8370082" lon="10.8762303"><ele>16.25</ele><time>2026-04-06T08:02:20.476Z</time></trkpt><trkpt lat="44.8369691" lon="10.8764113"><ele>16.0</ele><time>2026-04-06T08:02:21.476Z</time></trkpt><trkpt lat="44.8369302" lon="10.8765867"><ele>16.0</ele><time>2026-04-06T08:02:22.476Z</time></trkpt><trkpt lat="44.836892" lon="10.8767566"><ele>16.0</ele><time>2026-04-06T08:02:23.477Z</time></trkpt><trkpt lat="44.8368464" lon="10.8769327"><ele>16.0</ele><time>2026-04-06T08:02:24.476Z</time></trkpt><trkpt lat="44.8368014" lon="10.8771072"><ele>16.0</ele><time>2026-04-06T08:02:25.478Z</time></trkpt><trkpt lat="44.8367676" lon="10.8772738"><ele>16.400000000000002</ele><time>2026-04-06T08:02:26.476Z</time></trkpt><trkpt lat="44.8367379" lon="10.8774255"><ele>16.8</ele><time>2026-04-06T08:02:27.476Z</time></trkpt><trkpt lat="44.8367105" lon="10.877566"><ele>17.200000000000003</ele><time>2026-04-06T08:02:28.476Z</time></trkpt><trkpt lat="44.8366806" lon="10.8777037"><ele>17.6</ele><time>2026-04-06T08:02:29.476Z</time></trkpt><trkpt lat="44.83665" lon="10.8778195"><ele>18.0</ele><time>2026-04-06T08:02:30.476Z</time></trkpt><trkpt lat="44.8366245" lon="10.8779194"><ele>18.0</ele><time>2026-04-06T08:02:31.476Z</time></trkpt><trkpt lat="44.8366003" lon="10.8780618"><ele>18.0</ele><time>2026-04-06T08:02:33.476Z</time></trkpt><trkpt lat="44.8366234" lon="10.8781454"><ele>18.0</ele><time>2026-04-06T08:02:35.478Z</time></trkpt><trkpt lat="44.836698" lon="10.8782269"><ele>18.0</ele><time>2026-04-06T08:02:37.477Z</time></trkpt><trkpt lat="44.8367982" lon="10.8782836"><ele>18.0</ele><time>2026-04-06T08:02:39.477Z</time></trkpt><trkpt lat="44.8369233" lon="10.8783291"><ele>18.0</ele><time>2026-04-06T08:02:41.476Z</time></trkpt><trkpt lat="44.8370003" lon="10.8783535"><ele>18.0</ele><time>2026-04-06T08:02:42.476Z</time></trkpt><trkpt lat="44.8370764" lon="10.8783859"><ele>18.0</ele><time>2026-04-06T08:02:43.477Z</time></trkpt><trkpt lat="44.8371657" lon="10.8784153"><ele>18.0</ele><time>2026-04-06T08:02:44.476Z</time></trkpt><trkpt lat="44.8372552" lon="10.8784446"><ele>18.0</ele><time>2026-04-06T08:02:45.477Z</time></trkpt><trkpt lat="44.8373449" lon="10.8784715"><ele>18.0</ele><time>2026-04-06T08:02:46.476Z</time></trkpt><trkpt lat="44.837426" lon="10.8784983"><ele>18.166666666666668</ele><time>2026-04-06T08:02:47.476Z</time></trkpt><trkpt lat="44.8375092" lon="10.8785295"><ele>18.333333333333332</ele><time>2026-04-06T08:02:48.476Z</time></trkpt><trkpt lat="44.8375893" lon="10.878563"><ele>18.5</ele><time>2026-04-06T08:02:49.476Z</time></trkpt><trkpt lat="44.837671" lon="10.8785922"><ele>18.666666666666664</ele><time>2026-04-06T08:02:50.476Z</time></trkpt><trkpt lat="44.8377521" lon="10.8786241"><ele>18.833333333333332</ele><time>2026-04-06T08:02:51.477Z</time></trkpt><trkpt lat="44.8378307" lon="10.8786486"><ele>19.0</ele><time>2026-04-06T08:02:52.476Z</time></trkpt><trkpt lat="44.8379117" lon="10.8786685"><ele>19.166666666666664</ele><time>2026-04-06T08:02:53.476Z</time></trkpt><trkpt lat="44.8379822" lon="10.8786897"><ele>19.333333333333332</ele><time>2026-04-06T08:02:54.477Z</time></trkpt><trkpt lat="44.838051" lon="10.878715"><ele>19.5</ele><time>2026-04-06T08:02:55.476Z</time></trkpt><trkpt lat="44.8381116" lon="10.8787465"><ele>19.666666666666668</ele><time>2026-04-06T08:02:56.476Z</time></trkpt><trkpt lat="44.8381759" lon="10.8787689"><ele>19.833333333333336</ele><time>2026-04-06T08:02:57.477Z</time></trkpt><trkpt lat="44.8382912" lon="10.8788137"><ele>20.0</ele><time>2026-04-06T08:02:59.476Z</time></trkpt><trkpt lat="44.8383883" lon="10.8788615"><ele>20.0</ele><time>2026-04-06T08:03:01.476Z</time></trkpt><trkpt lat="44.8384729" lon="10.8789213"><ele>20.0</ele><time>2026-04-06T08:03:03.476Z</time></trkpt><trkpt lat="44.8385535" lon="10.8790202"><ele>20.0</ele><time>2026-04-06T08:03:05.476Z</time></trkpt><trkpt lat="44.8386304" lon="10.8791325"><ele>20.0</ele><time>2026-04-06T08:03:07.477Z</time></trkpt><trkpt lat="44.8387194" lon="10.8792516"><ele>20.0</ele><time>2026-04-06T08:03:09.476Z</time></trkpt><trkpt lat="44.8387989" lon="10.8793819"><ele>20.0</ele><time>2026-04-06T08:03:11.477Z</time></trkpt><trkpt lat="44.8388672" lon="10.8795316"><ele>20.0</ele><time>2026-04-06T08:03:13.477Z</time></trkpt><trkpt lat="44.8389105" lon="10.8796997"><ele>20.0</ele><time>2026-04-06T08:03:15.478Z</time></trkpt><trkpt lat="44.838924" lon="10.8797943"><ele>20.0</ele><time>2026-04-06T08:03:16.477Z</time></trkpt><trkpt lat="44.8389313" lon="10.8798885"><ele>20.0</ele><time>2026-04-06T08:03:17.478Z</time></trkpt><trkpt lat="44.8389331" lon="10.8799903"><ele>20.0</ele><time>2026-04-06T08:03:18.477Z</time></trkpt><trkpt lat="44.838925" lon="10.8800856"><ele>20.0</ele><time>2026-04-06T08:03:19.477Z</time></trkpt><trkpt lat="44.8389118" lon="10.8801743"><ele>20.0</ele><time>2026-04-06T08:03:20.477Z</time></trkpt><trkpt lat="44.8388879" lon="10.8802696"><ele>20.0</ele><time>2026-04-06T08:03:21.477Z</time></trkpt><trkpt lat="44.8388631" lon="10.8803607"><ele>20.0</ele><time>2026-04-06T08:03:22.476Z</time></trkpt><trkpt lat="44.8388293" lon="10.8804542"><ele>20.0</ele><time>2026-04-06T08:03:23.476Z</time></trkpt><trkpt lat="44.8388004" lon="10.8805517"><ele>20.0</ele><time>2026-04-06T08:03:24.476Z</time></trkpt><trkpt lat="44.8387707" lon="10.8806498"><ele>20.0</ele><time>2026-04-06T08:03:25.476Z</time></trkpt><trkpt lat="44.8387432" lon="10.8807446"><ele>20.0</ele><time>2026-04-06T08:03:26.476Z</time></trkpt><trkpt lat="44.838718" lon="10.8808364"><ele>20.0</ele><time>2026-04-06T08:03:27.476Z</time></trkpt><trkpt lat="44.8386856" lon="10.8809282"><ele>20.0</ele><time>2026-04-06T08:03:28.476Z</time></trkpt><trkpt lat="44.8386515" lon="10.881031"><ele>20.0</ele><time>2026-04-06T08:03:29.476Z</time></trkpt><trkpt lat="44.8386249" lon="10.8811335"><ele>20.0</ele><time>2026-04-06T08:03:30.476Z</time></trkpt><trkpt lat="44.8385903" lon="10.8812365"><ele>20.0</ele><time>2026-04-06T08:03:31.477Z</time></trkpt><trkpt lat="44.8385545" lon="10.8813414"><ele>20.0</ele><time>2026-04-06T08:03:32.478Z</time></trkpt><trkpt lat="44.83852" lon="10.8814499"><ele>20.0</ele><time>2026-04-06T08:03:33.477Z</time></trkpt><trkpt lat="44.8384881" lon="10.8815507"><ele>20.0</ele><time>2026-04-06T08:03:34.477Z</time></trkpt><trkpt lat="44.8384522" lon="10.8816585"><ele>20.0</ele><time>2026-04-06T08:03:35.476Z</time></trkpt><trkpt lat="44.8384234" lon="10.8817592"><ele>20.0</ele><time>2026-04-06T08:03:36.476Z</time></trkpt><trkpt lat="44.8383973" lon="10.881854"><ele>19.714285714285715</ele><time>2026-04-06T08:03:37.476Z</time></trkpt><trkpt lat="44.8383623" lon="10.8819435"><ele>19.42857142857143</ele><time>2026-04-06T08:03:38.477Z</time></trkpt><trkpt lat="44.8383326" lon="10.8820329"><ele>19.142857142857146</ele><time>2026-04-06T08:03:39.476Z</time></trkpt><trkpt lat="44.8383062" lon="10.8821219"><ele>18.857142857142858</ele><time>2026-04-06T08:03:40.476Z</time></trkpt><trkpt lat="44.8382748" lon="10.8822144"><ele>18.571428571428573</ele><time>2026-04-06T08:03:41.476Z</time></trkpt><trkpt lat="44.8382473" lon="10.8823091"><ele>18.28571428571429</ele><time>2026-04-06T08:03:42.476Z</time></trkpt><trkpt lat="44.8382203" lon="10.8823979"><ele>18.0</ele><time>2026-04-06T08:03:43.476Z</time></trkpt><trkpt lat="44.83819" lon="10.8824916"><ele>18.000000000000004</ele><time>2026-04-06T08:03:44.477Z</time></trkpt><trkpt lat="44.838161" lon="10.8825901"><ele>18.0</ele><time>2026-04-06T08:03:45.478Z</time></trkpt><trkpt lat="44.8381318" lon="10.8826884"><ele>18.0</ele><time>2026-04-06T08:03:46.476Z</time></trkpt><trkpt lat="44.8380994" lon="10.882789"><ele>18.0</ele><time>2026-04-06T08:03:47.477Z</time></trkpt><trkpt lat="44.8380693" lon="10.8828855"><ele>18.0</ele><time>2026-04-06T08:03:48.476Z</time></trkpt><trkpt lat="44.838043" lon="10.882979"><ele>18.000000000000004</ele><time>2026-04-06T08:03:49.476Z</time></trkpt><trkpt lat="44.8380166" lon="10.8830692"><ele>18.0</ele><time>2026-04-06T08:03:50.477Z</time></trkpt><trkpt lat="44.8379862" lon="10.8831561"><ele>18.000000000000004</ele><time>2026-04-06T08:03:51.476Z</time></trkpt><trkpt lat="44.8379587" lon="10.8832449"><ele>18.0</ele><time>2026-04-06T08:03:52.477Z</time></trkpt><trkpt lat="44.8379332" lon="10.8833354"><ele>18.0</ele><time>2026-04-06T08:03:53.477Z</time></trkpt><trkpt lat="44.8379059" lon="10.8834258"><ele>18.0</ele><time>2026-04-06T08:03:54.477Z</time></trkpt><trkpt lat="44.8378782" lon="10.8835182"><ele>18.0</ele><time>2026-04-06T08:03:55.476Z</time></trkpt><trkpt lat="44.8378483" lon="10.8836097"><ele>18.000000000000004</ele><time>2026-04-06T08:03:56.476Z</time></trkpt><trkpt lat="44.8378191" lon="10.8837011"><ele>18.0</ele><time>2026-04-06T08:03:57.476Z</time></trkpt><trkpt lat="44.8377918" lon="10.8837882"><ele>18.142857142857146</ele><time>2026-04-06T08:03:58.476Z</time></trkpt><trkpt lat="44.837762" lon="10.8838762"><ele>18.285714285714285</ele><time>2026-04-06T08:03:59.476Z</time></trkpt><trkpt lat="44.8377339" lon="10.8839623"><ele>18.42857142857143</ele><time>2026-04-06T08:04:00.476Z</time></trkpt><trkpt lat="44.8377082" lon="10.8840496"><ele>18.571428571428573</ele><time>2026-04-06T08:04:01.476Z</time></trkpt><trkpt lat="44.8376766" lon="10.8841376"><ele>18.714285714285715</ele><time>2026-04-06T08:04:02.476Z</time></trkpt><trkpt lat="44.8376493" lon="10.8842257"><ele>18.857142857142858</ele><time>2026-04-06T08:04:03.476Z</time></trkpt><trkpt lat="44.8376238" lon="10.884318"><ele>19.0</ele><time>2026-04-06T08:04:04.477Z</time></trkpt><trkpt lat="44.8375965" lon="10.8844112"><ele>18.71428571428571</ele><time>2026-04-06T08:04:05.478Z</time></trkpt><trkpt lat="44.837565" lon="10.8845079"><ele>18.42857142857143</ele><time>2026-04-06T08:04:06.476Z</time></trkpt><trkpt lat="44.8375368" lon="10.8846047"><ele>18.142857142857142</ele><time>2026-04-06T08:04:07.476Z</time></trkpt><trkpt lat="44.8375083" lon="10.8846998"><ele>17.857142857142854</ele><time>2026-04-06T08:04:08.478Z</time></trkpt><trkpt lat="44.8374797" lon="10.8847933"><ele>17.57142857142857</ele><time>2026-04-06T08:04:09.476Z</time></trkpt><trkpt lat="44.8374505" lon="10.8848903"><ele>17.285714285714285</ele><time>2026-04-06T08:04:10.476Z</time></trkpt><trkpt lat="44.8374196" lon="10.8849869"><ele>17.0</ele><time>2026-04-06T08:04:11.476Z</time></trkpt><trkpt lat="44.8373883" lon="10.8850808"><ele>16.999999999999996</ele><time>2026-04-06T08:04:12.477Z</time></trkpt><trkpt lat="44.8373603" lon="10.8851718"><ele>17.0</ele><time>2026-04-06T08:04:13.476Z</time></trkpt><trkpt lat="44.8373307" lon="10.8852635"><ele>17.0</ele><time>2026-04-06T08:04:14.476Z</time></trkpt><trkpt lat="44.8373039" lon="10.8853526"><ele>17.0</ele><time>2026-04-06T08:04:15.476Z</time></trkpt><trkpt lat="44.8372774" lon="10.8854409"><ele>17.0</ele><time>2026-04-06T08:04:16.477Z</time></trkpt><trkpt lat="44.837253" lon="10.8855251"><ele>16.999999999999996</ele><time>2026-04-06T08:04:17.477Z</time></trkpt><trkpt lat="44.8372266" lon="10.8856125"><ele>17.0</ele><time>2026-04-06T08:04:18.476Z</time></trkpt><trkpt lat="44.8371981" lon="10.8856963"><ele>17.0</ele><time>2026-04-06T08:04:19.476Z</time></trkpt><trkpt lat="44.8371702" lon="10.8857822"><ele>17.0</ele><time>2026-04-06T08:04:20.476Z</time></trkpt><trkpt lat="44.8371447" lon="10.8858685"><ele>17.0</ele><time>2026-04-06T08:04:21.476Z</time></trkpt><trkpt lat="44.8371153" lon="10.8859534"><ele>17.0</ele><time>2026-04-06T08:04:22.476Z</time></trkpt><trkpt lat="44.8370895" lon="10.8860349"><ele>17.0</ele><time>2026-04-06T08:04:23.476Z</time></trkpt><trkpt lat="44.8370422" lon="10.8862"><ele>17.0</ele><time>2026-04-06T08:04:25.476Z</time></trkpt><trkpt lat="44.8370147" lon="10.8862806"><ele>17.2</ele><time>2026-04-06T08:04:26.476Z</time></trkpt><trkpt lat="44.8369621" lon="10.8864324"><ele>17.4</ele><time>2026-04-06T08:04:28.476Z</time></trkpt><trkpt lat="44.8369197" lon="10.8865888"><ele>17.6</ele><time>2026-04-06T08:04:30.477Z</time></trkpt><trkpt lat="44.8368712" lon="10.8867453"><ele>17.8</ele><time>2026-04-06T08:04:32.476Z</time></trkpt><trkpt lat="44.8368461" lon="10.8868311"><ele>18.0</ele><time>2026-04-06T08:04:33.477Z</time></trkpt><trkpt lat="44.8368201" lon="10.8869176"><ele>18.0</ele><time>2026-04-06T08:04:34.476Z</time></trkpt><trkpt lat="44.8367694" lon="10.8870707"><ele>18.0</ele><time>2026-04-06T08:04:36.478Z</time></trkpt><trkpt lat="44.8367267" lon="10.8872011"><ele>18.0</ele><time>2026-04-06T08:04:38.478Z</time></trkpt><trkpt lat="44.8366973" lon="10.8872858"><ele>18.0</ele><time>2026-04-06T08:04:40.476Z</time></trkpt><trkpt lat="44.8366724" lon="10.8873795"><ele>18.0</ele><time>2026-04-06T08:05:17.476Z</time></trkpt><trkpt lat="44.8366263" lon="10.8875337"><ele>18.0</ele><time>2026-04-06T08:05:19.476Z</time></trkpt><trkpt lat="44.8365795" lon="10.8876876"><ele>18.0</ele><time>2026-04-06T08:05:21.477Z</time></trkpt><trkpt lat="44.8365541" lon="10.8877756"><ele>18.0</ele><time>2026-04-06T08:05:22.476Z</time></trkpt><trkpt lat="44.8365265" lon="10.8878639"><ele>18.0</ele><time>2026-04-06T08:05:23.476Z</time></trkpt><trkpt lat="44.8364982" lon="10.8879576"><ele>18.0</ele><time>2026-04-06T08:05:24.476Z</time></trkpt><trkpt lat="44.8364736" lon="10.8880628"><ele>18.0</ele><time>2026-04-06T08:05:25.476Z</time></trkpt><trkpt lat="44.8364411" lon="10.8881639"><ele>18.0</ele><time>2026-04-06T08:05:26.476Z</time></trkpt><trkpt lat="44.8364109" lon="10.888268"><ele>18.0</ele><time>2026-04-06T08:05:27.476Z</time></trkpt><trkpt lat="44.8363773" lon="10.8883678"><ele>18.0</ele><time>2026-04-06T08:05:28.476Z</time></trkpt><trkpt lat="44.8363462" lon="10.8884689"><ele>18.0</ele><time>2026-04-06T08:05:29.477Z</time></trkpt><trkpt lat="44.8363097" lon="10.8885736"><ele>18.0</ele><time>2026-04-06T08:05:30.476Z</time></trkpt><trkpt lat="44.8362788" lon="10.8886733"><ele>18.0</ele><time>2026-04-06T08:05:31.476Z</time></trkpt><trkpt lat="44.8362469" lon="10.8887719"><ele>18.0</ele><time>2026-04-06T08:05:32.476Z</time></trkpt><trkpt lat="44.8362165" lon="10.8888699"><ele>18.0</ele><time>2026-04-06T08:05:33.476Z</time></trkpt><trkpt lat="44.8361867" lon="10.8889726"><ele>18.0</ele><time>2026-04-06T08:05:34.476Z</time></trkpt><trkpt lat="44.836156" lon="10.8890829"><ele>18.0</ele><time>2026-04-06T08:05:35.476Z</time></trkpt><trkpt lat="44.8361251" lon="10.8891853"><ele>18.0</ele><time>2026-04-06T08:05:36.476Z</time></trkpt><trkpt lat="44.8360938" lon="10.8892813"><ele>18.0</ele><time>2026-04-06T08:05:37.476Z</time></trkpt><trkpt lat="44.8360587" lon="10.8893869"><ele>18.0</ele><time>2026-04-06T08:05:38.477Z</time></trkpt><trkpt lat="44.8360245" lon="10.8894889"><ele>18.0</ele><time>2026-04-06T08:05:39.477Z</time></trkpt><trkpt lat="44.8359941" lon="10.8895864"><ele>18.0</ele><time>2026-04-06T08:05:40.476Z</time></trkpt><trkpt lat="44.8359663" lon="10.8896838"><ele>18.0</ele><time>2026-04-06T08:05:41.476Z</time></trkpt><trkpt lat="44.835938" lon="10.8897865"><ele>18.0</ele><time>2026-04-06T08:05:42.476Z</time></trkpt><trkpt lat="44.835907" lon="10.8898859"><ele>18.0</ele><time>2026-04-06T08:05:43.476Z</time></trkpt><trkpt lat="44.8358791" lon="10.8899778"><ele>18.0</ele><time>2026-04-06T08:05:44.476Z</time></trkpt><trkpt lat="44.8358491" lon="10.8900707"><ele>18.0</ele><time>2026-04-06T08:05:45.478Z</time></trkpt><trkpt lat="44.8358149" lon="10.8901705"><ele>18.0</ele><time>2026-04-06T08:05:46.476Z</time></trkpt><trkpt lat="44.8357851" lon="10.8902742"><ele>18.0</ele><time>2026-04-06T08:05:47.476Z</time></trkpt><trkpt lat="44.8357581" lon="10.8903721"><ele>18.0</ele><time>2026-04-06T08:05:48.476Z</time></trkpt><trkpt lat="44.8357281" lon="10.8904706"><ele>18.0</ele><time>2026-04-06T08:05:49.477Z</time></trkpt><trkpt lat="44.8357045" lon="10.8905662"><ele>17.833333333333332</ele><time>2026-04-06T08:05:50.477Z</time></trkpt><trkpt lat="44.83568" lon="10.8906668"><ele>17.666666666666668</ele><time>2026-04-06T08:05:51.476Z</time></trkpt><trkpt lat="44.835655" lon="10.8907706"><ele>17.5</ele><time>2026-04-06T08:05:52.477Z</time></trkpt><trkpt lat="44.8356305" lon="10.8908729"><ele>17.333333333333336</ele><time>2026-04-06T08:05:53.476Z</time></trkpt><trkpt lat="44.8356104" lon="10.8909757"><ele>17.166666666666668</ele><time>2026-04-06T08:05:54.477Z</time></trkpt><trkpt lat="44.8355912" lon="10.8910833"><ele>17.0</ele><time>2026-04-06T08:05:55.476Z</time></trkpt><trkpt lat="44.8355721" lon="10.8911881"><ele>17.0</ele><time>2026-04-06T08:05:56.476Z</time></trkpt><trkpt lat="44.835556" lon="10.8912888"><ele>17.0</ele><time>2026-04-06T08:05:57.476Z</time></trkpt><trkpt lat="44.8355381" lon="10.8913908"><ele>17.0</ele><time>2026-04-06T08:05:58.477Z</time></trkpt><trkpt lat="44.8355185" lon="10.891498"><ele>17.0</ele><time>2026-04-06T08:05:59.478Z</time></trkpt><trkpt lat="44.8355019" lon="10.8915992"><ele>17.0</ele><time>2026-04-06T08:06:00.475Z</time></trkpt><trkpt lat="44.8354812" lon="10.8917088"><ele>17.0</ele><time>2026-04-06T08:06:01.476Z</time></trkpt><trkpt lat="44.8354598" lon="10.8918236"><ele>17.0</ele><time>2026-04-06T08:06:02.477Z</time></trkpt><trkpt lat="44.8354419" lon="10.8919343"><ele>17.0</ele><time>2026-04-06T08:06:03.476Z</time></trkpt><trkpt lat="44.835422" lon="10.8920464"><ele>17.0</ele><time>2026-04-06T08:06:04.477Z</time></trkpt><trkpt lat="44.8354" lon="10.892155"><ele>17.0</ele><time>2026-04-06T08:06:05.476Z</time></trkpt><trkpt lat="44.8353805" lon="10.8922721"><ele>17.0</ele><time>2026-04-06T08:06:06.477Z</time></trkpt><trkpt lat="44.8353627" lon="10.8923865"><ele>17.0</ele><time>2026-04-06T08:06:07.476Z</time></trkpt><trkpt lat="44.8353423" lon="10.8924919"><ele>17.166666666666668</ele><time>2026-04-06T08:06:08.476Z</time></trkpt><trkpt lat="44.8353276" lon="10.892595"><ele>17.333333333333336</ele><time>2026-04-06T08:06:09.477Z</time></trkpt><trkpt lat="44.8353067" lon="10.8926999"><ele>17.5</ele><time>2026-04-06T08:06:10.476Z</time></trkpt><trkpt lat="44.83529" lon="10.8928033"><ele>17.666666666666668</ele><time>2026-04-06T08:06:11.476Z</time></trkpt><trkpt lat="44.8352744" lon="10.8929097"><ele>17.833333333333332</ele><time>2026-04-06T08:06:12.476Z</time></trkpt><trkpt lat="44.8352569" lon="10.8930195"><ele>18.0</ele><time>2026-04-06T08:06:13.476Z</time></trkpt><trkpt lat="44.8352358" lon="10.8931321"><ele>18.0</ele><time>2026-04-06T08:06:14.476Z</time></trkpt><trkpt lat="44.8352156" lon="10.8932371"><ele>18.0</ele><time>2026-04-06T08:06:15.476Z</time></trkpt><trkpt lat="44.8351941" lon="10.8933511"><ele>18.0</ele><time>2026-04-06T08:06:16.476Z</time></trkpt><trkpt lat="44.8351726" lon="10.8934631"><ele>18.0</ele><time>2026-04-06T08:06:17.476Z</time></trkpt><trkpt lat="44.8351535" lon="10.8935753"><ele>18.0</ele><time>2026-04-06T08:06:18.477Z</time></trkpt><trkpt lat="44.8351281" lon="10.8936856"><ele>18.0</ele><time>2026-04-06T08:06:19.478Z</time></trkpt><trkpt lat="44.8351028" lon="10.893796"><ele>18.0</ele><time>2026-04-06T08:06:20.476Z</time></trkpt><trkpt lat="44.8350753" lon="10.8939101"><ele>18.0</ele><time>2026-04-06T08:06:21.478Z</time></trkpt><trkpt lat="44.8350429" lon="10.8940216"><ele>18.0</ele><time>2026-04-06T08:06:22.476Z</time></trkpt><trkpt lat="44.8350122" lon="10.8941314"><ele>18.0</ele><time>2026-04-06T08:06:23.476Z</time></trkpt><trkpt lat="44.8349766" lon="10.8942531"><ele>18.0</ele><time>2026-04-06T08:06:24.476Z</time></trkpt><trkpt lat="44.8349361" lon="10.8943764"><ele>18.0</ele><time>2026-04-06T08:06:25.476Z</time></trkpt><trkpt lat="44.8348908" lon="10.8944989"><ele>18.0</ele><time>2026-04-06T08:06:26.477Z</time></trkpt><trkpt lat="44.8348431" lon="10.8946204"><ele>18.0</ele><time>2026-04-06T08:06:27.476Z</time></trkpt><trkpt lat="44.834796" lon="10.894737"><ele>18.0</ele><time>2026-04-06T08:06:28.476Z</time></trkpt><trkpt lat="44.8347472" lon="10.8948344"><ele>18.0</ele><time>2026-04-06T08:06:29.476Z</time></trkpt><trkpt lat="44.8347123" lon="10.8949281"><ele>18.0</ele><time>2026-04-06T08:06:30.476Z</time></trkpt><trkpt lat="44.8346736" lon="10.8950057"><ele>18.0</ele><time>2026-04-06T08:06:31.476Z</time></trkpt><trkpt lat="44.8346184" lon="10.8951202"><ele>18.166666666666668</ele><time>2026-04-06T08:06:33.476Z</time></trkpt><trkpt lat="44.8345733" lon="10.8952552"><ele>18.333333333333332</ele><time>2026-04-06T08:06:39.476Z</time></trkpt><trkpt lat="44.8345496" lon="10.8953377"><ele>18.5</ele><time>2026-04-06T08:06:40.477Z</time></trkpt><trkpt lat="44.8345162" lon="10.8954254"><ele>18.666666666666664</ele><time>2026-04-06T08:06:41.477Z</time></trkpt><trkpt lat="44.8344735" lon="10.8955307"><ele>18.833333333333332</ele><time>2026-04-06T08:06:42.477Z</time></trkpt><trkpt lat="44.8344154" lon="10.8956623"><ele>19.0</ele><time>2026-04-06T08:06:43.476Z</time></trkpt><trkpt lat="44.8343553" lon="10.8958159"><ele>18.5</ele><time>2026-04-06T08:06:44.476Z</time></trkpt><trkpt lat="44.8342994" lon="10.8959679"><ele>18.0</ele><time>2026-04-06T08:06:45.476Z</time></trkpt><trkpt lat="44.8342416" lon="10.8961207"><ele>17.5</ele><time>2026-04-06T08:06:46.476Z</time></trkpt><trkpt lat="44.8341848" lon="10.8962735"><ele>17.0</ele><time>2026-04-06T08:06:47.476Z</time></trkpt><trkpt lat="44.8341252" lon="10.8964215"><ele>17.0</ele><time>2026-04-06T08:06:48.476Z</time></trkpt><trkpt lat="44.8340598" lon="10.8965664"><ele>17.0</ele><time>2026-04-06T08:06:49.476Z</time></trkpt><trkpt lat="44.8339948" lon="10.8967156"><ele>17.0</ele><time>2026-04-06T08:06:50.476Z</time></trkpt><trkpt lat="44.8339307" lon="10.8968709"><ele>17.0</ele><time>2026-04-06T08:06:51.477Z</time></trkpt><trkpt lat="44.8338671" lon="10.8970243"><ele>17.25</ele><time>2026-04-06T08:06:52.476Z</time></trkpt><trkpt lat="44.8338043" lon="10.8971858"><ele>17.5</ele><time>2026-04-06T08:06:53.476Z</time></trkpt><trkpt lat="44.8337418" lon="10.8973372"><ele>17.75</ele><time>2026-04-06T08:06:54.477Z</time></trkpt><trkpt lat="44.833671" lon="10.8975059"><ele>18.0</ele><time>2026-04-06T08:06:55.477Z</time></trkpt><trkpt lat="44.8336048" lon="10.8976779"><ele>18.25</ele><time>2026-04-06T08:06:56.476Z</time></trkpt><trkpt lat="44.8335369" lon="10.897849"><ele>18.5</ele><time>2026-04-06T08:06:57.476Z</time></trkpt><trkpt lat="44.8334708" lon="10.8980158"><ele>18.75</ele><time>2026-04-06T08:06:58.476Z</time></trkpt><trkpt lat="44.8333999" lon="10.898175"><ele>19.0</ele><time>2026-04-06T08:06:59.476Z</time></trkpt><trkpt lat="44.8333367" lon="10.8983457"><ele>19.0</ele><time>2026-04-06T08:07:00.476Z</time></trkpt><trkpt lat="44.8332723" lon="10.8985142"><ele>19.0</ele><time>2026-04-06T08:07:01.477Z</time></trkpt><trkpt lat="44.8332055" lon="10.8986843"><ele>19.0</ele><time>2026-04-06T08:07:02.477Z</time></trkpt><trkpt lat="44.8331356" lon="10.8988627"><ele>19.0</ele><time>2026-04-06T08:07:03.476Z</time></trkpt><trkpt lat="44.8330653" lon="10.8990349"><ele>19.0</ele><time>2026-04-06T08:07:04.477Z</time></trkpt><trkpt lat="44.8329929" lon="10.8992069"><ele>19.0</ele><time>2026-04-06T08:07:05.476Z</time></trkpt><trkpt lat="44.8329137" lon="10.8993751"><ele>19.0</ele><time>2026-04-06T08:07:06.476Z</time></trkpt><trkpt lat="44.8328411" lon="10.8995421"><ele>19.0</ele><time>2026-04-06T08:07:07.476Z</time></trkpt><trkpt lat="44.8327619" lon="10.8997117"><ele>18.75</ele><time>2026-04-06T08:07:08.476Z</time></trkpt><trkpt lat="44.8326835" lon="10.8998777"><ele>18.5</ele><time>2026-04-06T08:07:09.476Z</time></trkpt><trkpt lat="44.832605" lon="10.9000447"><ele>18.25</ele><time>2026-04-06T08:07:10.476Z</time></trkpt><trkpt lat="44.8325262" lon="10.9002143"><ele>18.0</ele><time>2026-04-06T08:07:11.476Z</time></trkpt><trkpt lat="44.8324444" lon="10.9003848"><ele>18.0</ele><time>2026-04-06T08:07:12.476Z</time></trkpt><trkpt lat="44.8323658" lon="10.900559"><ele>18.0</ele><time>2026-04-06T08:07:13.476Z</time></trkpt><trkpt lat="44.832288" lon="10.9007341"><ele>18.0</ele><time>2026-04-06T08:07:14.476Z</time></trkpt><trkpt lat="44.8322099" lon="10.900905"><ele>18.0</ele><time>2026-04-06T08:07:15.476Z</time></trkpt><trkpt lat="44.8321352" lon="10.9010658"><ele>18.0</ele><time>2026-04-06T08:07:16.475Z</time></trkpt><trkpt lat="44.8320572" lon="10.9012288"><ele>18.0</ele><time>2026-04-06T08:07:17.476Z</time></trkpt><trkpt lat="44.8319823" lon="10.9013894"><ele>18.0</ele><time>2026-04-06T08:07:18.476Z</time></trkpt><trkpt lat="44.831911" lon="10.9015482"><ele>18.0</ele><time>2026-04-06T08:07:19.476Z</time></trkpt><trkpt lat="44.8318418" lon="10.9017037"><ele>17.5</ele><time>2026-04-06T08:07:20.476Z</time></trkpt><trkpt lat="44.8317728" lon="10.9018528"><ele>17.0</ele><time>2026-04-06T08:07:21.476Z</time></trkpt><trkpt lat="44.8317078" lon="10.901997"><ele>16.5</ele><time>2026-04-06T08:07:22.477Z</time></trkpt><trkpt lat="44.8316482" lon="10.9021285"><ele>16.0</ele><time>2026-04-06T08:07:23.476Z</time></trkpt><trkpt lat="44.8315852" lon="10.9022448"><ele>15.999999999999998</ele><time>2026-04-06T08:07:24.476Z</time></trkpt><trkpt lat="44.8315277" lon="10.9023631"><ele>16.0</ele><time>2026-04-06T08:07:25.476Z</time></trkpt><trkpt lat="44.8314761" lon="10.9024728"><ele>16.0</ele><time>2026-04-06T08:07:26.476Z</time></trkpt><trkpt lat="44.8314253" lon="10.902576"><ele>16.0</ele><time>2026-04-06T08:07:27.477Z</time></trkpt><trkpt lat="44.8313806" lon="10.902665"><ele>15.999999999999998</ele><time>2026-04-06T08:07:28.476Z</time></trkpt><trkpt lat="44.8313395" lon="10.9027514"><ele>16.0</ele><time>2026-04-06T08:07:29.476Z</time></trkpt><trkpt lat="44.8313038" lon="10.9028262"><ele>16.333333333333332</ele><time>2026-04-06T08:07:30.476Z</time></trkpt><trkpt lat="44.8312439" lon="10.9029512"><ele>16.666666666666664</ele><time>2026-04-06T08:07:32.476Z</time></trkpt><trkpt lat="44.8312089" lon="10.9030311"><ele>17.0</ele><time>2026-04-06T08:07:34.476Z</time></trkpt><trkpt lat="44.8311746" lon="10.9031184"><ele>17.333333333333332</ele><time>2026-04-06T08:07:36.477Z</time></trkpt><trkpt lat="44.831127" lon="10.9032637"><ele>17.666666666666668</ele><time>2026-04-06T08:07:38.476Z</time></trkpt><trkpt lat="44.8310893" lon="10.9033456"><ele>18.0</ele><time>2026-04-06T08:07:39.476Z</time></trkpt><trkpt lat="44.8310401" lon="10.9034341"><ele>18.166666666666668</ele><time>2026-04-06T08:07:40.476Z</time></trkpt><trkpt lat="44.8309975" lon="10.9035179"><ele>18.333333333333332</ele><time>2026-04-06T08:07:41.476Z</time></trkpt><trkpt lat="44.8309523" lon="10.9036034"><ele>18.5</ele><time>2026-04-06T08:07:42.476Z</time></trkpt><trkpt lat="44.8309041" lon="10.9036985"><ele>18.666666666666664</ele><time>2026-04-06T08:07:43.477Z</time></trkpt><trkpt lat="44.8308594" lon="10.9037872"><ele>18.833333333333332</ele><time>2026-04-06T08:07:44.476Z</time></trkpt><trkpt lat="44.8308115" lon="10.9038844"><ele>19.0</ele><time>2026-04-06T08:07:45.476Z</time></trkpt><trkpt lat="44.8307657" lon="10.9039843"><ele>19.0</ele><time>2026-04-06T08:07:46.476Z</time></trkpt><trkpt lat="44.8307197" lon="10.9040886"><ele>19.0</ele><time>2026-04-06T08:07:47.476Z</time></trkpt><trkpt lat="44.8306687" lon="10.9041991"><ele>19.0</ele><time>2026-04-06T08:07:48.476Z</time></trkpt><trkpt lat="44.8306219" lon="10.9043094"><ele>19.0</ele><time>2026-04-06T08:07:49.476Z</time></trkpt><trkpt lat="44.8305642" lon="10.9044244"><ele>19.0</ele><time>2026-04-06T08:07:50.476Z</time></trkpt><trkpt lat="44.8305036" lon="10.9045407"><ele>18.8</ele><time>2026-04-06T08:07:51.477Z</time></trkpt><trkpt lat="44.83044" lon="10.9046652"><ele>18.599999999999998</ele><time>2026-04-06T08:07:52.476Z</time></trkpt><trkpt lat="44.8303758" lon="10.9047891"><ele>18.4</ele><time>2026-04-06T08:07:53.476Z</time></trkpt><trkpt lat="44.830307" lon="10.9049215"><ele>18.2</ele><time>2026-04-06T08:07:54.476Z</time></trkpt><trkpt lat="44.83024" lon="10.9050537"><ele>18.0</ele><time>2026-04-06T08:07:55.476Z</time></trkpt><trkpt lat="44.8301649" lon="10.9051931"><ele>17.75</ele><time>2026-04-06T08:07:56.476Z</time></trkpt><trkpt lat="44.8300951" lon="10.9053292"><ele>17.5</ele><time>2026-04-06T08:07:57.476Z</time></trkpt><trkpt lat="44.8300289" lon="10.9054617"><ele>17.25</ele><time>2026-04-06T08:07:58.475Z</time></trkpt><trkpt lat="44.8299647" lon="10.9055942"><ele>17.0</ele><time>2026-04-06T08:07:59.477Z</time></trkpt><trkpt lat="44.8299062" lon="10.9057173"><ele>17.0</ele><time>2026-04-06T08:08:00.476Z</time></trkpt><trkpt lat="44.829849" lon="10.9058441"><ele>17.0</ele><time>2026-04-06T08:08:01.476Z</time></trkpt><trkpt lat="44.8297882" lon="10.9059738"><ele>17.0</ele><time>2026-04-06T08:08:02.476Z</time></trkpt><trkpt lat="44.8297291" lon="10.9060978"><ele>17.0</ele><time>2026-04-06T08:08:03.476Z</time></trkpt><trkpt lat="44.8296657" lon="10.9062232"><ele>17.0</ele><time>2026-04-06T08:08:04.476Z</time></trkpt><trkpt lat="44.8296071" lon="10.9063483"><ele>17.0</ele><time>2026-04-06T08:08:05.476Z</time></trkpt><trkpt lat="44.8295452" lon="10.9064722"><ele>17.0</ele><time>2026-04-06T08:08:06.476Z</time></trkpt><trkpt lat="44.8294898" lon="10.906601"><ele>17.0</ele><time>2026-04-06T08:08:07.476Z</time></trkpt><trkpt lat="44.8294289" lon="10.906723"><ele>17.0</ele><time>2026-04-06T08:08:08.476Z</time></trkpt><trkpt lat="44.829375" lon="10.9068411"><ele>17.0</ele><time>2026-04-06T08:08:09.476Z</time></trkpt><trkpt lat="44.8293188" lon="10.9069621"><ele>17.0</ele><time>2026-04-06T08:08:10.476Z</time></trkpt><trkpt lat="44.82926" lon="10.9070884"><ele>17.0</ele><time>2026-04-06T08:08:11.476Z</time></trkpt><trkpt lat="44.8291992" lon="10.907216"><ele>17.0</ele><time>2026-04-06T08:08:12.475Z</time></trkpt><trkpt lat="44.8291346" lon="10.9073449"><ele>17.0</ele><time>2026-04-06T08:08:13.476Z</time></trkpt><trkpt lat="44.829075" lon="10.9074697"><ele>17.0</ele><time>2026-04-06T08:08:14.477Z</time></trkpt><trkpt lat="44.829022" lon="10.9075961"><ele>17.2</ele><time>2026-04-06T08:08:15.476Z</time></trkpt><trkpt lat="44.8289672" lon="10.9077255"><ele>17.4</ele><time>2026-04-06T08:08:16.476Z</time></trkpt><trkpt lat="44.8289078" lon="10.9078477"><ele>17.6</ele><time>2026-04-06T08:08:17.477Z</time></trkpt><trkpt lat="44.8288464" lon="10.9079598"><ele>17.8</ele><time>2026-04-06T08:08:18.477Z</time></trkpt><trkpt lat="44.8287936" lon="10.9080642"><ele>18.0</ele><time>2026-04-06T08:08:19.476Z</time></trkpt><trkpt lat="44.8287443" lon="10.9081604"><ele>18.0</ele><time>2026-04-06T08:08:20.476Z</time></trkpt><trkpt lat="44.8287003" lon="10.908252"><ele>18.0</ele><time>2026-04-06T08:08:21.476Z</time></trkpt><trkpt lat="44.8286612" lon="10.9083319"><ele>18.0</ele><time>2026-04-06T08:08:22.475Z</time></trkpt><trkpt lat="44.8286263" lon="10.9084084"><ele>18.0</ele><time>2026-04-06T08:08:23.477Z</time></trkpt><trkpt lat="44.8285673" lon="10.9085418"><ele>18.0</ele><time>2026-04-06T08:08:25.476Z</time></trkpt><trkpt lat="44.8285113" lon="10.9086693"><ele>18.0</ele><time>2026-04-06T08:08:27.475Z</time></trkpt><trkpt lat="44.8284566" lon="10.9087869"><ele>18.0</ele><time>2026-04-06T08:08:29.476Z</time></trkpt><trkpt lat="44.8283975" lon="10.9089116"><ele>18.0</ele><time>2026-04-06T08:08:31.476Z</time></trkpt><trkpt lat="44.8283345" lon="10.909053"><ele>18.0</ele><time>2026-04-06T08:08:33.476Z</time></trkpt><trkpt lat="44.8282999" lon="10.909132"><ele>18.0</ele><time>2026-04-06T08:08:34.477Z</time></trkpt><trkpt lat="44.8282595" lon="10.9092132"><ele>18.0</ele><time>2026-04-06T08:08:35.476Z</time></trkpt><trkpt lat="44.8282213" lon="10.9093055"><ele>18.0</ele><time>2026-04-06T08:08:36.476Z</time></trkpt><trkpt lat="44.8281821" lon="10.9093897"><ele>17.833333333333332</ele><time>2026-04-06T08:08:37.477Z</time></trkpt><trkpt lat="44.8281407" lon="10.9094827"><ele>17.666666666666668</ele><time>2026-04-06T08:08:38.476Z</time></trkpt><trkpt lat="44.8280979" lon="10.9095858"><ele>17.5</ele><time>2026-04-06T08:08:39.476Z</time></trkpt><trkpt lat="44.8280468" lon="10.9096852"><ele>17.333333333333336</ele><time>2026-04-06T08:08:40.476Z</time></trkpt><trkpt lat="44.8279997" lon="10.9097808"><ele>17.166666666666668</ele><time>2026-04-06T08:08:41.476Z</time></trkpt><trkpt lat="44.8279511" lon="10.9098885"><ele>17.0</ele><time>2026-04-06T08:08:42.477Z</time></trkpt><trkpt lat="44.827903" lon="10.9099951"><ele>16.8</ele><time>2026-04-06T08:08:43.476Z</time></trkpt><trkpt lat="44.8278607" lon="10.9100963"><ele>16.6</ele><time>2026-04-06T08:08:44.476Z</time></trkpt><trkpt lat="44.8278122" lon="10.9101961"><ele>16.400000000000002</ele><time>2026-04-06T08:08:45.477Z</time></trkpt><trkpt lat="44.8277618" lon="10.9103053"><ele>16.2</ele><time>2026-04-06T08:08:46.476Z</time></trkpt><trkpt lat="44.827702" lon="10.9104161"><ele>16.0</ele><time>2026-04-06T08:08:47.476Z</time></trkpt><trkpt lat="44.8276481" lon="10.9105263"><ele>16.0</ele><time>2026-04-06T08:08:48.476Z</time></trkpt><trkpt lat="44.8275931" lon="10.9106294"><ele>16.0</ele><time>2026-04-06T08:08:49.476Z</time></trkpt><trkpt lat="44.8275372" lon="10.9107394"><ele>16.0</ele><time>2026-04-06T08:08:50.477Z</time></trkpt><trkpt lat="44.8274766" lon="10.91085"><ele>16.0</ele><time>2026-04-06T08:08:51.476Z</time></trkpt><trkpt lat="44.8274224" lon="10.9109598"><ele>16.0</ele><time>2026-04-06T08:08:52.476Z</time></trkpt><trkpt lat="44.8273627" lon="10.9110682"><ele>16.0</ele><time>2026-04-06T08:08:53.476Z</time></trkpt><trkpt lat="44.8273063" lon="10.9111721"><ele>16.0</ele><time>2026-04-06T08:08:54.477Z</time></trkpt><trkpt lat="44.8272463" lon="10.9112707"><ele>16.0</ele><time>2026-04-06T08:08:55.476Z</time></trkpt><trkpt lat="44.8271868" lon="10.9113777"><ele>16.0</ele><time>2026-04-06T08:08:56.476Z</time></trkpt><trkpt lat="44.8271269" lon="10.9114738"><ele>16.0</ele><time>2026-04-06T08:08:57.478Z</time></trkpt><trkpt lat="44.8270638" lon="10.911571"><ele>15.999999999999998</ele><time>2026-04-06T08:08:58.476Z</time></trkpt><trkpt lat="44.8270087" lon="10.9116645"><ele>16.0</ele><time>2026-04-06T08:08:59.476Z</time></trkpt><trkpt lat="44.8269512" lon="10.911753"><ele>16.0</ele><time>2026-04-06T08:09:00.476Z</time></trkpt><trkpt lat="44.8268911" lon="10.9118397"><ele>16.0</ele><time>2026-04-06T08:09:01.476Z</time></trkpt><trkpt lat="44.8268293" lon="10.9119211"><ele>15.999999999999998</ele><time>2026-04-06T08:09:02.476Z</time></trkpt><trkpt lat="44.8267708" lon="10.9120075"><ele>16.0</ele><time>2026-04-06T08:09:03.476Z</time></trkpt><trkpt lat="44.8267032" lon="10.912087"><ele>15.999999999999998</ele><time>2026-04-06T08:09:04.477Z</time></trkpt><trkpt lat="44.8266457" lon="10.9121639"><ele>16.0</ele><time>2026-04-06T08:09:05.477Z</time></trkpt><trkpt lat="44.8265803" lon="10.9122421"><ele>16.0</ele><time>2026-04-06T08:09:06.476Z</time></trkpt><trkpt lat="44.8265117" lon="10.9123136"><ele>16.0</ele><time>2026-04-06T08:09:07.476Z</time></trkpt><trkpt lat="44.8264412" lon="10.9123893"><ele>15.999999999999998</ele><time>2026-04-06T08:09:08.476Z</time></trkpt><trkpt lat="44.826374" lon="10.9124688"><ele>16.0</ele><time>2026-04-06T08:09:09.476Z</time></trkpt><trkpt lat="44.8263095" lon="10.9125512"><ele>15.999999999999998</ele><time>2026-04-06T08:09:10.476Z</time></trkpt><trkpt lat="44.8262411" lon="10.9126267"><ele>16.0</ele><time>2026-04-06T08:09:11.476Z</time></trkpt><trkpt lat="44.8261712" lon="10.9126999"><ele>16.0</ele><time>2026-04-06T08:09:12.477Z</time></trkpt><trkpt lat="44.8261024" lon="10.9127761"><ele>16.0</ele><time>2026-04-06T08:09:13.477Z</time></trkpt><trkpt lat="44.8260361" lon="10.9128503"><ele>15.999999999999998</ele><time>2026-04-06T08:09:14.477Z</time></trkpt><trkpt lat="44.8259717" lon="10.9129246"><ele>16.0</ele><time>2026-04-06T08:09:15.477Z</time></trkpt><trkpt lat="44.8259063" lon="10.9130041"><ele>16.166666666666664</ele><time>2026-04-06T08:09:16.478Z</time></trkpt><trkpt lat="44.8258452" lon="10.91308"><ele>16.333333333333332</ele><time>2026-04-06T08:09:17.476Z</time></trkpt><trkpt lat="44.8257831" lon="10.9131597"><ele>16.5</ele><time>2026-04-06T08:09:18.476Z</time></trkpt><trkpt lat="44.8257273" lon="10.9132314"><ele>16.666666666666668</ele><time>2026-04-06T08:09:19.476Z</time></trkpt><trkpt lat="44.8256704" lon="10.913301"><ele>16.833333333333336</ele><time>2026-04-06T08:09:20.477Z</time></trkpt><trkpt lat="44.8256142" lon="10.9133625"><ele>17.0</ele><time>2026-04-06T08:09:21.476Z</time></trkpt><trkpt lat="44.8255553" lon="10.9134289"><ele>17.0</ele><time>2026-04-06T08:09:22.477Z</time></trkpt><trkpt lat="44.8255057" lon="10.9134876"><ele>17.0</ele><time>2026-04-06T08:09:23.476Z</time></trkpt><trkpt lat="44.8254237" lon="10.9135945"><ele>17.0</ele><time>2026-04-06T08:09:25.476Z</time></trkpt><trkpt lat="44.8253354" lon="10.9136903"><ele>17.0</ele><time>2026-04-06T08:09:27.476Z</time></trkpt><trkpt lat="44.8252504" lon="10.9138073"><ele>17.0</ele><time>2026-04-06T08:09:29.476Z</time></trkpt><trkpt lat="44.8251676" lon="10.9139101"><ele>17.2</ele><time>2026-04-06T08:09:31.476Z</time></trkpt><trkpt lat="44.825102" lon="10.9139749"><ele>17.4</ele><time>2026-04-06T08:09:33.476Z</time></trkpt><trkpt lat="44.8250258" lon="10.9139214"><ele>17.6</ele><time>2026-04-06T08:09:37.476Z</time></trkpt><trkpt lat="44.8249622" lon="10.9138534"><ele>17.8</ele><time>2026-04-06T08:09:39.476Z</time></trkpt><trkpt lat="44.8248823" lon="10.9137855"><ele>18.0</ele><time>2026-04-06T08:09:41.476Z</time></trkpt><trkpt lat="44.8247638" lon="10.9137153"><ele>18.0</ele><time>2026-04-06T08:09:43.477Z</time></trkpt><trkpt lat="44.8247048" lon="10.9136787"><ele>18.0</ele><time>2026-04-06T08:09:44.476Z</time></trkpt><trkpt lat="44.8246443" lon="10.9136387"><ele>18.0</ele><time>2026-04-06T08:09:45.476Z</time></trkpt><trkpt lat="44.8245854" lon="10.9135988"><ele>18.0</ele><time>2026-04-06T08:09:46.476Z</time></trkpt><trkpt lat="44.8245247" lon="10.9135624"><ele>18.0</ele><time>2026-04-06T08:09:47.476Z</time></trkpt><trkpt lat="44.8244104" lon="10.913495"><ele>18.0</ele><time>2026-04-06T08:09:49.476Z</time></trkpt><trkpt lat="44.8243494" lon="10.9134627"><ele>17.857142857142858</ele><time>2026-04-06T08:09:50.477Z</time></trkpt><trkpt lat="44.8242881" lon="10.9134278"><ele>17.714285714285715</ele><time>2026-04-06T08:09:51.476Z</time></trkpt><trkpt lat="44.8242277" lon="10.9133945"><ele>17.57142857142857</ele><time>2026-04-06T08:09:52.477Z</time></trkpt><trkpt lat="44.8241641" lon="10.9133604"><ele>17.42857142857143</ele><time>2026-04-06T08:09:53.475Z</time></trkpt><trkpt lat="44.824104" lon="10.9133237"><ele>17.285714285714285</ele><time>2026-04-06T08:09:54.477Z</time></trkpt><trkpt lat="44.8240438" lon="10.9132888"><ele>17.142857142857142</ele><time>2026-04-06T08:09:55.476Z</time></trkpt><trkpt lat="44.8239843" lon="10.9132454"><ele>17.0</ele><time>2026-04-06T08:09:56.476Z</time></trkpt><trkpt lat="44.8239194" lon="10.9132087"><ele>16.999999999999996</ele><time>2026-04-06T08:09:57.476Z</time></trkpt><trkpt lat="44.8238551" lon="10.9131671"><ele>17.0</ele><time>2026-04-06T08:09:58.476Z</time></trkpt><trkpt lat="44.8237943" lon="10.9131307"><ele>17.0</ele><time>2026-04-06T08:09:59.478Z</time></trkpt><trkpt lat="44.823732" lon="10.9130951"><ele>17.0</ele><time>2026-04-06T08:10:00.476Z</time></trkpt><trkpt lat="44.8236702" lon="10.9130555"><ele>17.0</ele><time>2026-04-06T08:10:01.476Z</time></trkpt><trkpt lat="44.8236062" lon="10.913013"><ele>16.999999999999996</ele><time>2026-04-06T08:10:02.476Z</time></trkpt><trkpt lat="44.8235411" lon="10.9129798"><ele>17.0</ele><time>2026-04-06T08:10:03.476Z</time></trkpt><trkpt lat="44.8234821" lon="10.9129442"><ele>16.999999999999996</ele><time>2026-04-06T08:10:04.477Z</time></trkpt><trkpt lat="44.8234203" lon="10.912907"><ele>17.0</ele><time>2026-04-06T08:10:05.476Z</time></trkpt><trkpt lat="44.8233599" lon="10.9128717"><ele>17.0</ele><time>2026-04-06T08:10:06.476Z</time></trkpt><trkpt lat="44.8232976" lon="10.912832"><ele>17.0</ele><time>2026-04-06T08:10:07.475Z</time></trkpt><trkpt lat="44.823235" lon="10.9127935"><ele>17.0</ele><time>2026-04-06T08:10:08.476Z</time></trkpt><trkpt lat="44.8231718" lon="10.9127532"><ele>16.999999999999996</ele><time>2026-04-06T08:10:09.478Z</time></trkpt><trkpt lat="44.8231093" lon="10.9127155"><ele>17.0</ele><time>2026-04-06T08:10:10.476Z</time></trkpt><trkpt lat="44.8230447" lon="10.9126741"><ele>17.0</ele><time>2026-04-06T08:10:11.477Z</time></trkpt><trkpt lat="44.8229794" lon="10.9126373"><ele>17.0</ele><time>2026-04-06T08:10:12.475Z</time></trkpt><trkpt lat="44.8229183" lon="10.9126002"><ele>17.0</ele><time>2026-04-06T08:10:13.476Z</time></trkpt><trkpt lat="44.8228601" lon="10.9125602"><ele>17.0</ele><time>2026-04-06T08:10:14.477Z</time></trkpt><trkpt lat="44.8227989" lon="10.9125257"><ele>17.0</ele><time>2026-04-06T08:10:15.476Z</time></trkpt><trkpt lat="44.822697" lon="10.9124678"><ele>17.0</ele><time>2026-04-06T08:10:17.477Z</time></trkpt><trkpt lat="44.8226228" lon="10.9124387"><ele>17.2</ele><time>2026-04-06T08:10:19.476Z</time></trkpt><trkpt lat="44.8225454" lon="10.9123865"><ele>17.4</ele><time>2026-04-06T08:10:21.476Z</time></trkpt><trkpt lat="44.8224684" lon="10.9123443"><ele>17.6</ele><time>2026-04-06T08:10:23.476Z</time></trkpt><trkpt lat="44.8223852" lon="10.9123021"><ele>17.8</ele><time>2026-04-06T08:10:25.477Z</time></trkpt><trkpt lat="44.822297" lon="10.9122529"><ele>18.0</ele><time>2026-04-06T08:10:27.476Z</time></trkpt><trkpt lat="44.8221965" lon="10.9121933"><ele>18.0</ele><time>2026-04-06T08:10:29.476Z</time></trkpt><trkpt lat="44.8221355" lon="10.9121617"><ele>18.0</ele><time>2026-04-06T08:10:30.476Z</time></trkpt><trkpt lat="44.8220771" lon="10.9121222"><ele>18.0</ele><time>2026-04-06T08:10:31.476Z</time></trkpt><trkpt lat="44.8220182" lon="10.912078"><ele>18.0</ele><time>2026-04-06T08:10:32.477Z</time></trkpt><trkpt lat="44.8219011" lon="10.9119942"><ele>18.0</ele><time>2026-04-06T08:10:34.476Z</time></trkpt><trkpt lat="44.8218397" lon="10.911949"><ele>18.0</ele><time>2026-04-06T08:10:35.476Z</time></trkpt><trkpt lat="44.8217786" lon="10.9118983"><ele>18.000000000000004</ele><time>2026-04-06T08:10:36.476Z</time></trkpt><trkpt lat="44.8217166" lon="10.9118446"><ele>18.0</ele><time>2026-04-06T08:10:37.476Z</time></trkpt><trkpt lat="44.8216532" lon="10.9117915"><ele>18.0</ele><time>2026-04-06T08:10:38.476Z</time></trkpt><trkpt lat="44.8215919" lon="10.911741"><ele>18.0</ele><time>2026-04-06T08:10:39.477Z</time></trkpt><trkpt lat="44.8215322" lon="10.9116794"><ele>18.0</ele><time>2026-04-06T08:10:40.477Z</time></trkpt><trkpt lat="44.8214683" lon="10.9116235"><ele>18.000000000000004</ele><time>2026-04-06T08:10:41.476Z</time></trkpt><trkpt lat="44.8214058" lon="10.9115706"><ele>18.0</ele><time>2026-04-06T08:10:42.476Z</time></trkpt><trkpt lat="44.8213456" lon="10.911518"><ele>18.000000000000004</ele><time>2026-04-06T08:10:43.477Z</time></trkpt><trkpt lat="44.8212786" lon="10.9114632"><ele>18.0</ele><time>2026-04-06T08:10:44.476Z</time></trkpt><trkpt lat="44.8212143" lon="10.9114174"><ele>18.0</ele><time>2026-04-06T08:10:45.476Z</time></trkpt><trkpt lat="44.8211531" lon="10.9113661"><ele>18.0</ele><time>2026-04-06T08:10:46.476Z</time></trkpt><trkpt lat="44.8210985" lon="10.9113126"><ele>18.0</ele><time>2026-04-06T08:10:47.476Z</time></trkpt><trkpt lat="44.8210416" lon="10.9112612"><ele>18.000000000000004</ele><time>2026-04-06T08:10:48.475Z</time></trkpt><trkpt lat="44.8209845" lon="10.9112142"><ele>18.0</ele><time>2026-04-06T08:10:49.476Z</time></trkpt><trkpt lat="44.8209287" lon="10.9111663"><ele>18.0</ele><time>2026-04-06T08:10:50.476Z</time></trkpt><trkpt lat="44.8208347" lon="10.911064"><ele>18.0</ele><time>2026-04-06T08:10:52.476Z</time></trkpt><trkpt lat="44.8207445" lon="10.9109637"><ele>18.0</ele><time>2026-04-06T08:10:54.476Z</time></trkpt><trkpt lat="44.8206453" lon="10.910863"><ele>18.0</ele><time>2026-04-06T08:10:56.476Z</time></trkpt><trkpt lat="44.8205959" lon="10.9108066"><ele>18.0</ele><time>2026-04-06T08:10:57.477Z</time></trkpt><trkpt lat="44.8205043" lon="10.9107143"><ele>18.0</ele><time>2026-04-06T08:10:59.478Z</time></trkpt><trkpt lat="44.8204076" lon="10.9106056"><ele>18.0</ele><time>2026-04-06T08:11:01.477Z</time></trkpt><trkpt lat="44.8203149" lon="10.9104952"><ele>18.0</ele><time>2026-04-06T08:11:03.476Z</time></trkpt><trkpt lat="44.8202629" lon="10.9104389"><ele>18.0</ele><time>2026-04-06T08:11:04.476Z</time></trkpt><trkpt lat="44.8201899" lon="10.9103439"><ele>18.0</ele><time>2026-04-06T08:11:06.476Z</time></trkpt><trkpt lat="44.8201472" lon="10.9102771"><ele>18.0</ele><time>2026-04-06T08:11:08.477Z</time></trkpt><trkpt lat="44.8200921" lon="10.9101964"><ele>18.0</ele><time>2026-04-06T08:11:10.477Z</time></trkpt><trkpt lat="44.8200329" lon="10.9101079"><ele>18.0</ele><time>2026-04-06T08:11:12.477Z</time></trkpt><trkpt lat="44.8199683" lon="10.9100002"><ele>18.0</ele><time>2026-04-06T08:11:14.475Z</time></trkpt><trkpt lat="44.8199005" lon="10.9098981"><ele>18.0</ele><time>2026-04-06T08:11:16.476Z</time></trkpt><trkpt lat="44.8198455" lon="10.9098067"><ele>18.0</ele><time>2026-04-06T08:11:18.477Z</time></trkpt><trkpt lat="44.8197898" lon="10.9097335"><ele>18.0</ele><time>2026-04-06T08:11:20.476Z</time></trkpt><trkpt lat="44.8197167" lon="10.9096504"><ele>18.0</ele><time>2026-04-06T08:11:22.476Z</time></trkpt><trkpt lat="44.8196478" lon="10.9095634"><ele>18.0</ele><time>2026-04-06T08:11:24.476Z</time></trkpt><trkpt lat="44.8196044" lon="10.9094713"><ele>18.0</ele><time>2026-04-06T08:11:26.476Z</time></trkpt><trkpt lat="44.8195539" lon="10.9094091"><ele>18.0</ele><time>2026-04-06T08:11:28.476Z</time></trkpt><trkpt lat="44.8195024" lon="10.9093515"><ele>18.0</ele><time>2026-04-06T08:11:30.477Z</time></trkpt><trkpt lat="44.8194632" lon="10.9092781"><ele>18.0</ele><time>2026-04-06T08:11:32.476Z</time></trkpt><trkpt lat="44.8194477" lon="10.9091879"><ele>18.0</ele><time>2026-04-06T08:11:48.476Z</time></trkpt><trkpt lat="44.8194843" lon="10.9093251"><ele>18.0</ele><time>2026-04-06T08:12:07.477Z</time></trkpt><trkpt lat="44.8195544" lon="10.9094173"><ele>18.0</ele><time>2026-04-06T08:12:09.476Z</time></trkpt><trkpt lat="44.8196252" lon="10.9094905"><ele>18.0</ele><time>2026-04-06T08:12:11.476Z</time></trkpt><trkpt lat="44.8196718" lon="10.9095715"><ele>18.0</ele><time>2026-04-06T08:12:13.476Z</time></trkpt><trkpt lat="44.8197322" lon="10.9096583"><ele>18.0</ele><time>2026-04-06T08:12:15.477Z</time></trkpt><trkpt lat="44.819799" lon="10.9097347"><ele>18.0</ele><time>2026-04-06T08:12:17.477Z</time></trkpt><trkpt lat="44.8198707" lon="10.9098157"><ele>18.0</ele><time>2026-04-06T08:12:19.476Z</time></trkpt><trkpt lat="44.8199255" lon="10.9099048"><ele>18.0</ele><time>2026-04-06T08:12:21.476Z</time></trkpt><trkpt lat="44.8199804" lon="10.9099946"><ele>18.0</ele><time>2026-04-06T08:12:23.476Z</time></trkpt><trkpt lat="44.8200392" lon="10.9100865"><ele>18.0</ele><time>2026-04-06T08:12:25.476Z</time></trkpt><trkpt lat="44.8201039" lon="10.9101804"><ele>18.0</ele><time>2026-04-06T08:12:27.477Z</time></trkpt><trkpt lat="44.8201652" lon="10.9102704"><ele>18.0</ele><time>2026-04-06T08:12:29.477Z</time></trkpt><trkpt lat="44.820235" lon="10.9103586"><ele>18.0</ele><time>2026-04-06T08:12:31.477Z</time></trkpt><trkpt lat="44.8203038" lon="10.9104645"><ele>18.0</ele><time>2026-04-06T08:12:33.476Z</time></trkpt><trkpt lat="44.8203841" lon="10.9105723"><ele>18.0</ele><time>2026-04-06T08:12:35.476Z</time></trkpt><trkpt lat="44.8204781" lon="10.9106749"><ele>18.0</ele><time>2026-04-06T08:12:37.476Z</time></trkpt><trkpt lat="44.8205791" lon="10.9107665"><ele>18.0</ele><time>2026-04-06T08:12:39.476Z</time></trkpt><trkpt lat="44.8206845" lon="10.9108678"><ele>18.0</ele><time>2026-04-06T08:12:41.476Z</time></trkpt><trkpt lat="44.8207336" lon="10.9109264"><ele>18.0</ele><time>2026-04-06T08:12:42.476Z</time></trkpt><trkpt lat="44.8208305" lon="10.9110442"><ele>18.000000000000004</ele><time>2026-04-06T08:12:44.477Z</time></trkpt><trkpt lat="44.8208823" lon="10.9110965"><ele>18.0</ele><time>2026-04-06T08:12:45.477Z</time></trkpt><trkpt lat="44.8209447" lon="10.9111482"><ele>18.0</ele><time>2026-04-06T08:12:46.476Z</time></trkpt><trkpt lat="44.8210062" lon="10.9111973"><ele>18.0</ele><time>2026-04-06T08:12:47.476Z</time></trkpt><trkpt lat="44.8210646" lon="10.9112416"><ele>18.0</ele><time>2026-04-06T08:12:48.477Z</time></trkpt><trkpt lat="44.8211253" lon="10.9112861"><ele>18.000000000000004</ele><time>2026-04-06T08:12:49.476Z</time></trkpt><trkpt lat="44.8211886" lon="10.9113417"><ele>18.0</ele><time>2026-04-06T08:12:50.476Z</time></trkpt><trkpt lat="44.8212466" lon="10.911392"><ele>18.000000000000004</ele><time>2026-04-06T08:12:51.476Z</time></trkpt><trkpt lat="44.8212994" lon="10.9114443"><ele>18.0</ele><time>2026-04-06T08:12:52.476Z</time></trkpt><trkpt lat="44.8213594" lon="10.911495"><ele>18.0</ele><time>2026-04-06T08:12:53.477Z</time></trkpt><trkpt lat="44.8214146" lon="10.9115425"><ele>18.0</ele><time>2026-04-06T08:12:54.476Z</time></trkpt><trkpt lat="44.8214718" lon="10.9115958"><ele>18.0</ele><time>2026-04-06T08:12:55.476Z</time></trkpt><trkpt lat="44.8215299" lon="10.9116503"><ele>18.000000000000004</ele><time>2026-04-06T08:12:56.476Z</time></trkpt><trkpt lat="44.8215884" lon="10.9117059"><ele>18.0</ele><time>2026-04-06T08:12:57.476Z</time></trkpt><trkpt lat="44.8216532" lon="10.9117578"><ele>18.0</ele><time>2026-04-06T08:12:58.475Z</time></trkpt><trkpt lat="44.8217178" lon="10.9118184"><ele>18.0</ele><time>2026-04-06T08:12:59.477Z</time></trkpt><trkpt lat="44.8217845" lon="10.9118722"><ele>18.0</ele><time>2026-04-06T08:13:00.476Z</time></trkpt><trkpt lat="44.8218493" lon="10.9119284"><ele>18.0</ele><time>2026-04-06T08:13:01.477Z</time></trkpt><trkpt lat="44.8219171" lon="10.9119798"><ele>18.0</ele><time>2026-04-06T08:13:02.476Z</time></trkpt><trkpt lat="44.8219884" lon="10.9120291"><ele>18.0</ele><time>2026-04-06T08:13:03.475Z</time></trkpt><trkpt lat="44.8220633" lon="10.9120758"><ele>18.0</ele><time>2026-04-06T08:13:04.476Z</time></trkpt><trkpt lat="44.822126" lon="10.9121167"><ele>18.0</ele><time>2026-04-06T08:13:05.476Z</time></trkpt><trkpt lat="44.8222191" lon="10.9121701"><ele>18.0</ele><time>2026-04-06T08:13:07.476Z</time></trkpt><trkpt lat="44.8222853" lon="10.912197"><ele>18.0</ele><time>2026-04-06T08:13:09.476Z</time></trkpt><trkpt lat="44.8223715" lon="10.9122509"><ele>18.0</ele><time>2026-04-06T08:13:11.476Z</time></trkpt><trkpt lat="44.8224684" lon="10.9123092"><ele>18.0</ele><time>2026-04-06T08:13:13.476Z</time></trkpt><trkpt lat="44.8225339" lon="10.9123515"><ele>18.0</ele><time>2026-04-06T08:13:15.476Z</time></trkpt><trkpt lat="44.8226124" lon="10.912408"><ele>18.0</ele><time>2026-04-06T08:13:17.476Z</time></trkpt><trkpt lat="44.822716" lon="10.9124813"><ele>18.0</ele><time>2026-04-06T08:13:19.476Z</time></trkpt><trkpt lat="44.8227792" lon="10.9125198"><ele>18.0</ele><time>2026-04-06T08:13:20.476Z</time></trkpt><trkpt lat="44.8228443" lon="10.9125679"><ele>18.0</ele><time>2026-04-06T08:13:21.476Z</time></trkpt><trkpt lat="44.8229085" lon="10.9126015"><ele>18.0</ele><time>2026-04-06T08:13:22.476Z</time></trkpt><trkpt lat="44.822974" lon="10.9126369"><ele>17.833333333333332</ele><time>2026-04-06T08:13:23.477Z</time></trkpt><trkpt lat="44.8230367" lon="10.9126732"><ele>17.666666666666668</ele><time>2026-04-06T08:13:24.476Z</time></trkpt><trkpt lat="44.8230962" lon="10.9127088"><ele>17.5</ele><time>2026-04-06T08:13:25.476Z</time></trkpt><trkpt lat="44.8231585" lon="10.9127412"><ele>17.333333333333336</ele><time>2026-04-06T08:13:26.476Z</time></trkpt><trkpt lat="44.8232179" lon="10.9127762"><ele>17.166666666666668</ele><time>2026-04-06T08:13:27.476Z</time></trkpt><trkpt lat="44.8232767" lon="10.912819"><ele>17.0</ele><time>2026-04-06T08:13:28.476Z</time></trkpt><trkpt lat="44.8233927" lon="10.912887"><ele>16.999999999999996</ele><time>2026-04-06T08:13:30.477Z</time></trkpt><trkpt lat="44.8234529" lon="10.9129228"><ele>17.0</ele><time>2026-04-06T08:13:31.476Z</time></trkpt><trkpt lat="44.823513" lon="10.9129621"><ele>17.0</ele><time>2026-04-06T08:13:32.477Z</time></trkpt><trkpt lat="44.8235722" lon="10.912997"><ele>17.0</ele><time>2026-04-06T08:13:33.477Z</time></trkpt><trkpt lat="44.823638" lon="10.9130418"><ele>17.0</ele><time>2026-04-06T08:13:34.476Z</time></trkpt><trkpt lat="44.8237012" lon="10.9130814"><ele>16.999999999999996</ele><time>2026-04-06T08:13:35.476Z</time></trkpt><trkpt lat="44.8237676" lon="10.9131165"><ele>17.0</ele><time>2026-04-06T08:13:36.477Z</time></trkpt><trkpt lat="44.8238336" lon="10.9131552"><ele>16.999999999999996</ele><time>2026-04-06T08:13:37.476Z</time></trkpt><trkpt lat="44.8239004" lon="10.9131892"><ele>17.0</ele><time>2026-04-06T08:13:38.476Z</time></trkpt><trkpt lat="44.8239668" lon="10.9132267"><ele>17.0</ele><time>2026-04-06T08:13:39.477Z</time></trkpt><trkpt lat="44.8240326" lon="10.9132694"><ele>17.0</ele><time>2026-04-06T08:13:40.476Z</time></trkpt><trkpt lat="44.824095" lon="10.9133114"><ele>17.0</ele><time>2026-04-06T08:13:41.477Z</time></trkpt><trkpt lat="44.8241625" lon="10.9133532"><ele>16.999999999999996</ele><time>2026-04-06T08:13:42.476Z</time></trkpt><trkpt lat="44.8242294" lon="10.9133964"><ele>17.0</ele><time>2026-04-06T08:13:43.476Z</time></trkpt><trkpt lat="44.8242944" lon="10.9134376"><ele>17.166666666666668</ele><time>2026-04-06T08:13:44.476Z</time></trkpt><trkpt lat="44.8243547" lon="10.9134823"><ele>17.333333333333336</ele><time>2026-04-06T08:13:45.476Z</time></trkpt><trkpt lat="44.8244158" lon="10.9135229"><ele>17.5</ele><time>2026-04-06T08:13:46.476Z</time></trkpt><trkpt lat="44.8244767" lon="10.9135583"><ele>17.666666666666668</ele><time>2026-04-06T08:13:47.476Z</time></trkpt><trkpt lat="44.8245907" lon="10.9136243"><ele>17.833333333333332</ele><time>2026-04-06T08:13:49.477Z</time></trkpt><trkpt lat="44.8246996" lon="10.9136986"><ele>18.0</ele><time>2026-04-06T08:13:51.476Z</time></trkpt><trkpt lat="44.8248034" lon="10.9137553"><ele>18.000000000000004</ele><time>2026-04-06T08:13:53.477Z</time></trkpt><trkpt lat="44.8248708" lon="10.9138039"><ele>18.0</ele><time>2026-04-06T08:13:55.476Z</time></trkpt><trkpt lat="44.8249334" lon="10.9138512"><ele>18.0</ele><time>2026-04-06T08:13:57.476Z</time></trkpt><trkpt lat="44.825001" lon="10.9139144"><ele>18.0</ele><time>2026-04-06T08:13:59.476Z</time></trkpt><trkpt lat="44.8250437" lon="10.9139803"><ele>18.0</ele><time>2026-04-06T08:14:01.476Z</time></trkpt><trkpt lat="44.8250479" lon="10.9140732"><ele>18.000000000000004</ele><time>2026-04-06T08:14:04.477Z</time></trkpt><trkpt lat="44.8249925" lon="10.9141525"><ele>18.0</ele><time>2026-04-06T08:14:06.476Z</time></trkpt><trkpt lat="44.8249022" lon="10.9142355"><ele>18.0</ele><time>2026-04-06T08:14:08.477Z</time></trkpt><trkpt lat="44.8248009" lon="10.9143563"><ele>18.0</ele><time>2026-04-06T08:14:10.476Z</time></trkpt><trkpt lat="44.8247339" lon="10.9144323"><ele>18.0</ele><time>2026-04-06T08:14:11.478Z</time></trkpt><trkpt lat="44.8246623" lon="10.9145148"><ele>18.0</ele><time>2026-04-06T08:14:12.477Z</time></trkpt><trkpt lat="44.8245832" lon="10.9146086"><ele>18.0</ele><time>2026-04-06T08:14:13.477Z</time></trkpt><trkpt lat="44.8244958" lon="10.9147155"><ele>18.0</ele><time>2026-04-06T08:14:14.476Z</time></trkpt><trkpt lat="44.8244059" lon="10.9148263"><ele>18.0</ele><time>2026-04-06T08:14:15.476Z</time></trkpt><trkpt lat="44.824306" lon="10.9149524"><ele>18.0</ele><time>2026-04-06T08:14:16.476Z</time></trkpt><trkpt lat="44.824199" lon="10.9150738"><ele>18.0</ele><time>2026-04-06T08:14:17.476Z</time></trkpt><trkpt lat="44.8240948" lon="10.9152062"><ele>18.333333333333332</ele><time>2026-04-06T08:14:18.476Z</time></trkpt><trkpt lat="44.8239822" lon="10.915357"><ele>18.666666666666664</ele><time>2026-04-06T08:14:19.476Z</time></trkpt><trkpt lat="44.8238784" lon="10.9155155"><ele>19.0</ele><time>2026-04-06T08:14:20.476Z</time></trkpt><trkpt lat="44.8237807" lon="10.9156703"><ele>19.0</ele><time>2026-04-06T08:14:21.476Z</time></trkpt><trkpt lat="44.8236811" lon="10.9158296"><ele>19.0</ele><time>2026-04-06T08:14:22.476Z</time></trkpt><trkpt lat="44.8235836" lon="10.9159971"><ele>19.0</ele><time>2026-04-06T08:14:23.476Z</time></trkpt><trkpt lat="44.8234901" lon="10.9161609"><ele>18.75</ele><time>2026-04-06T08:14:24.476Z</time></trkpt><trkpt lat="44.8234027" lon="10.9163139"><ele>18.5</ele><time>2026-04-06T08:14:25.476Z</time></trkpt><trkpt lat="44.8233132" lon="10.9164663"><ele>18.25</ele><time>2026-04-06T08:14:26.476Z</time></trkpt><trkpt lat="44.8232304" lon="10.9166083"><ele>18.0</ele><time>2026-04-06T08:14:27.478Z</time></trkpt><trkpt lat="44.8231519" lon="10.9167409"><ele>18.0</ele><time>2026-04-06T08:14:28.477Z</time></trkpt><trkpt lat="44.8230723" lon="10.9168647"><ele>18.0</ele><time>2026-04-06T08:14:29.476Z</time></trkpt><trkpt lat="44.8230049" lon="10.9169937"><ele>18.0</ele><time>2026-04-06T08:14:30.476Z</time></trkpt><trkpt lat="44.8229297" lon="10.9171236"><ele>18.0</ele><time>2026-04-06T08:14:31.477Z</time></trkpt><trkpt lat="44.8228538" lon="10.9172613"><ele>18.0</ele><time>2026-04-06T08:14:32.476Z</time></trkpt><trkpt lat="44.8227702" lon="10.9173903"><ele>18.0</ele><time>2026-04-06T08:14:33.477Z</time></trkpt><trkpt lat="44.8226898" lon="10.9175223"><ele>18.0</ele><time>2026-04-06T08:14:34.476Z</time></trkpt><trkpt lat="44.8226057" lon="10.9176623"><ele>18.0</ele><time>2026-04-06T08:14:35.476Z</time></trkpt><trkpt lat="44.8225236" lon="10.9178075"><ele>18.25</ele><time>2026-04-06T08:14:36.476Z</time></trkpt><trkpt lat="44.822442" lon="10.917946"><ele>18.5</ele><time>2026-04-06T08:14:37.476Z</time></trkpt><trkpt lat="44.8223584" lon="10.9180852"><ele>18.75</ele><time>2026-04-06T08:14:38.476Z</time></trkpt><trkpt lat="44.8222747" lon="10.9182207"><ele>19.0</ele><time>2026-04-06T08:14:39.477Z</time></trkpt><trkpt lat="44.822192" lon="10.9183621"><ele>18.5</ele><time>2026-04-06T08:14:40.476Z</time></trkpt><trkpt lat="44.8221126" lon="10.9185132"><ele>18.0</ele><time>2026-04-06T08:14:41.478Z</time></trkpt><trkpt lat="44.8220275" lon="10.9186612"><ele>17.5</ele><time>2026-04-06T08:14:42.477Z</time></trkpt><trkpt lat="44.8219413" lon="10.9188065"><ele>17.0</ele><time>2026-04-06T08:14:43.476Z</time></trkpt><trkpt lat="44.8218608" lon="10.9189512"><ele>17.25</ele><time>2026-04-06T08:14:44.475Z</time></trkpt><trkpt lat="44.8217759" lon="10.919095"><ele>17.5</ele><time>2026-04-06T08:14:45.477Z</time></trkpt><trkpt lat="44.8216992" lon="10.9192418"><ele>17.75</ele><time>2026-04-06T08:14:46.476Z</time></trkpt><trkpt lat="44.8216206" lon="10.9193789"><ele>18.0</ele><time>2026-04-06T08:14:47.476Z</time></trkpt><trkpt lat="44.8215379" lon="10.9195208"><ele>18.25</ele><time>2026-04-06T08:14:48.476Z</time></trkpt><trkpt lat="44.8214514" lon="10.9196616"><ele>18.5</ele><time>2026-04-06T08:14:49.477Z</time></trkpt><trkpt lat="44.8213699" lon="10.9198012"><ele>18.75</ele><time>2026-04-06T08:14:50.478Z</time></trkpt><trkpt lat="44.8212805" lon="10.9199448"><ele>19.0</ele><time>2026-04-06T08:14:51.476Z</time></trkpt><trkpt lat="44.821193" lon="10.9200898"><ele>18.5</ele><time>2026-04-06T08:14:52.476Z</time></trkpt><trkpt lat="44.821098" lon="10.9202424"><ele>18.0</ele><time>2026-04-06T08:14:53.476Z</time></trkpt><trkpt lat="44.8210038" lon="10.9204069"><ele>17.5</ele><time>2026-04-06T08:14:54.476Z</time></trkpt><trkpt lat="44.8209137" lon="10.9205676"><ele>17.0</ele><time>2026-04-06T08:14:55.476Z</time></trkpt><trkpt lat="44.8208282" lon="10.9207244"><ele>17.0</ele><time>2026-04-06T08:14:56.476Z</time></trkpt><trkpt lat="44.8207402" lon="10.9208918"><ele>17.0</ele><time>2026-04-06T08:14:57.476Z</time></trkpt><trkpt lat="44.8206477" lon="10.9210508"><ele>17.0</ele><time>2026-04-06T08:14:58.476Z</time></trkpt><trkpt lat="44.8205609" lon="10.9212054"><ele>17.0</ele><time>2026-04-06T08:14:59.476Z</time></trkpt><trkpt lat="44.8204585" lon="10.921362"><ele>17.0</ele><time>2026-04-06T08:15:00.477Z</time></trkpt><trkpt lat="44.8203574" lon="10.9215141"><ele>17.0</ele><time>2026-04-06T08:15:01.476Z</time></trkpt><trkpt lat="44.8202504" lon="10.9216585"><ele>17.0</ele><time>2026-04-06T08:15:02.477Z</time></trkpt><trkpt lat="44.8201519" lon="10.9217952"><ele>17.0</ele><time>2026-04-06T08:15:03.477Z</time></trkpt><trkpt lat="44.820063" lon="10.9219206"><ele>17.2</ele><time>2026-04-06T08:15:04.476Z</time></trkpt><trkpt lat="44.8199737" lon="10.9220357"><ele>17.4</ele><time>2026-04-06T08:15:05.477Z</time></trkpt><trkpt lat="44.8198856" lon="10.9221514"><ele>17.6</ele><time>2026-04-06T08:15:06.476Z</time></trkpt><trkpt lat="44.8198086" lon="10.9222505"><ele>17.8</ele><time>2026-04-06T08:15:07.476Z</time></trkpt><trkpt lat="44.8197349" lon="10.9223445"><ele>18.0</ele><time>2026-04-06T08:15:08.477Z</time></trkpt><trkpt lat="44.8196615" lon="10.9224366"><ele>18.0</ele><time>2026-04-06T08:15:09.477Z</time></trkpt><trkpt lat="44.8195958" lon="10.9225173"><ele>18.0</ele><time>2026-04-06T08:15:10.476Z</time></trkpt><trkpt lat="44.819542" lon="10.9225937"><ele>18.0</ele><time>2026-04-06T08:15:11.476Z</time></trkpt><trkpt lat="44.8194916" lon="10.9226603"><ele>18.0</ele><time>2026-04-06T08:15:12.476Z</time></trkpt><trkpt lat="44.8194435" lon="10.9227246"><ele>18.0</ele><time>2026-04-06T08:15:13.476Z</time></trkpt><trkpt lat="44.8193545" lon="10.922835"><ele>18.0</ele><time>2026-04-06T08:15:15.477Z</time></trkpt><trkpt lat="44.8193051" lon="10.9228975"><ele>17.833333333333332</ele><time>2026-04-06T08:15:16.478Z</time></trkpt><trkpt lat="44.8192595" lon="10.9229628"><ele>17.666666666666668</ele><time>2026-04-06T08:15:17.476Z</time></trkpt><trkpt lat="44.8192149" lon="10.9230411"><ele>17.5</ele><time>2026-04-06T08:15:18.476Z</time></trkpt><trkpt lat="44.8191816" lon="10.923124"><ele>17.333333333333336</ele><time>2026-04-06T08:15:19.477Z</time></trkpt><trkpt lat="44.8191492" lon="10.9232261"><ele>17.166666666666668</ele><time>2026-04-06T08:15:20.476Z</time></trkpt><trkpt lat="44.8191135" lon="10.9233358"><ele>17.0</ele><time>2026-04-06T08:15:21.477Z</time></trkpt><trkpt lat="44.8190778" lon="10.9234534"><ele>17.4</ele><time>2026-04-06T08:15:22.476Z</time></trkpt><trkpt lat="44.8190477" lon="10.9235804"><ele>17.799999999999997</ele><time>2026-04-06T08:15:23.476Z</time></trkpt><trkpt lat="44.8190105" lon="10.9237098"><ele>18.2</ele><time>2026-04-06T08:15:24.476Z</time></trkpt><trkpt lat="44.8189733" lon="10.9238338"><ele>18.599999999999998</ele><time>2026-04-06T08:15:25.476Z</time></trkpt><trkpt lat="44.8189452" lon="10.9239491"><ele>19.0</ele><time>2026-04-06T08:15:26.477Z</time></trkpt><trkpt lat="44.8189124" lon="10.9240549"><ele>19.0</ele><time>2026-04-06T08:15:27.476Z</time></trkpt><trkpt lat="44.8188863" lon="10.9241471"><ele>19.0</ele><time>2026-04-06T08:15:28.476Z</time></trkpt><trkpt lat="44.8188604" lon="10.9242381"><ele>19.0</ele><time>2026-04-06T08:15:29.478Z</time></trkpt><trkpt lat="44.8188123" lon="10.9243903"><ele>19.0</ele><time>2026-04-06T08:15:31.476Z</time></trkpt><trkpt lat="44.8188204" lon="10.9244899"><ele>19.0</ele><time>2026-04-06T08:15:33.476Z</time></trkpt><trkpt lat="44.8188994" lon="10.9245701"><ele>19.0</ele><time>2026-04-06T08:15:35.477Z</time></trkpt><trkpt lat="44.8189538" lon="10.9246179"><ele>19.2</ele><time>2026-04-06T08:15:36.475Z</time></trkpt><trkpt lat="44.8190226" lon="10.9246739"><ele>19.4</ele><time>2026-04-06T08:15:37.476Z</time></trkpt><trkpt lat="44.8190988" lon="10.9247293"><ele>19.6</ele><time>2026-04-06T08:15:38.476Z</time></trkpt><trkpt lat="44.819189" lon="10.9247933"><ele>19.8</ele><time>2026-04-06T08:15:39.476Z</time></trkpt><trkpt lat="44.8192886" lon="10.9248642"><ele>20.0</ele><time>2026-04-06T08:15:40.476Z</time></trkpt><trkpt lat="44.8193891" lon="10.9249418"><ele>19.5</ele><time>2026-04-06T08:15:41.476Z</time></trkpt><trkpt lat="44.8194933" lon="10.9250182"><ele>19.0</ele><time>2026-04-06T08:15:42.476Z</time></trkpt><trkpt lat="44.8195958" lon="10.9250991"><ele>18.5</ele><time>2026-04-06T08:15:43.477Z</time></trkpt><trkpt lat="44.819714" lon="10.9251737"><ele>18.0</ele><time>2026-04-06T08:15:44.476Z</time></trkpt><trkpt lat="44.8198306" lon="10.9252549"><ele>18.0</ele><time>2026-04-06T08:15:45.477Z</time></trkpt><trkpt lat="44.8199466" lon="10.9253361"><ele>18.0</ele><time>2026-04-06T08:15:46.478Z</time></trkpt><trkpt lat="44.8200622" lon="10.925417"><ele>18.0</ele><time>2026-04-06T08:15:47.477Z</time></trkpt><trkpt lat="44.8201797" lon="10.9255044"><ele>18.0</ele><time>2026-04-06T08:15:48.476Z</time></trkpt><trkpt lat="44.8203005" lon="10.9255846"><ele>18.0</ele><time>2026-04-06T08:15:49.476Z</time></trkpt><trkpt lat="44.8204191" lon="10.9256679"><ele>18.0</ele><time>2026-04-06T08:15:50.476Z</time></trkpt><trkpt lat="44.8205365" lon="10.9257476"><ele>18.0</ele><time>2026-04-06T08:15:51.476Z</time></trkpt><trkpt lat="44.820656" lon="10.9258294"><ele>18.0</ele><time>2026-04-06T08:15:52.476Z</time></trkpt><trkpt lat="44.8207687" lon="10.9259139"><ele>18.0</ele><time>2026-04-06T08:15:53.476Z</time></trkpt><trkpt lat="44.8208864" lon="10.9259936"><ele>18.0</ele><time>2026-04-06T08:15:54.476Z</time></trkpt><trkpt lat="44.8210034" lon="10.9260782"><ele>18.0</ele><time>2026-04-06T08:15:55.476Z</time></trkpt><trkpt lat="44.8211242" lon="10.9261662"><ele>18.0</ele><time>2026-04-06T08:15:56.476Z</time></trkpt><trkpt lat="44.8212477" lon="10.9262616"><ele>18.0</ele><time>2026-04-06T08:15:57.476Z</time></trkpt><trkpt lat="44.8213747" lon="10.9263619"><ele>18.0</ele><time>2026-04-06T08:15:58.476Z</time></trkpt><trkpt lat="44.8215023" lon="10.9264742"><ele>18.0</ele><time>2026-04-06T08:15:59.476Z</time></trkpt><trkpt lat="44.8216378" lon="10.9265808"><ele>18.0</ele><time>2026-04-06T08:16:00.476Z</time></trkpt><trkpt lat="44.8217809" lon="10.9266975"><ele>18.0</ele><time>2026-04-06T08:16:01.477Z</time></trkpt><trkpt lat="44.8219375" lon="10.9268153"><ele>18.0</ele><time>2026-04-06T08:16:02.476Z</time></trkpt><trkpt lat="44.822095" lon="10.9269425"><ele>17.666666666666668</ele><time>2026-04-06T08:16:03.476Z</time></trkpt><trkpt lat="44.8222594" lon="10.9270825"><ele>17.333333333333336</ele><time>2026-04-06T08:16:04.477Z</time></trkpt><trkpt lat="44.8224146" lon="10.9272415"><ele>17.0</ele><time>2026-04-06T08:16:05.476Z</time></trkpt><trkpt lat="44.8225819" lon="10.9274019"><ele>17.666666666666668</ele><time>2026-04-06T08:16:06.477Z</time></trkpt><trkpt lat="44.8227397" lon="10.9275622"><ele>18.333333333333332</ele><time>2026-04-06T08:16:07.476Z</time></trkpt><trkpt lat="44.8228953" lon="10.9277122"><ele>19.0</ele><time>2026-04-06T08:16:08.476Z</time></trkpt><trkpt lat="44.823038" lon="10.9278537"><ele>19.0</ele><time>2026-04-06T08:16:09.477Z</time></trkpt><trkpt lat="44.8231745" lon="10.9279896"><ele>19.0</ele><time>2026-04-06T08:16:10.477Z</time></trkpt><trkpt lat="44.8233029" lon="10.9281198"><ele>19.0</ele><time>2026-04-06T08:16:11.476Z</time></trkpt><trkpt lat="44.8234237" lon="10.9282446"><ele>19.0</ele><time>2026-04-06T08:16:12.477Z</time></trkpt><trkpt lat="44.8235406" lon="10.9283656"><ele>19.0</ele><time>2026-04-06T08:16:13.476Z</time></trkpt><trkpt lat="44.8236571" lon="10.9284784"><ele>19.0</ele><time>2026-04-06T08:16:14.477Z</time></trkpt><trkpt lat="44.8237732" lon="10.9285844"><ele>19.0</ele><time>2026-04-06T08:16:15.476Z</time></trkpt><trkpt lat="44.8238748" lon="10.9287016"><ele>19.0</ele><time>2026-04-06T08:16:16.477Z</time></trkpt><trkpt lat="44.8239746" lon="10.9288015"><ele>19.0</ele><time>2026-04-06T08:16:17.477Z</time></trkpt><trkpt lat="44.8240699" lon="10.9289012"><ele>19.0</ele><time>2026-04-06T08:16:18.476Z</time></trkpt><trkpt lat="44.824162" lon="10.928994"><ele>19.0</ele><time>2026-04-06T08:16:19.476Z</time></trkpt><trkpt lat="44.8242491" lon="10.9290815"><ele>18.666666666666664</ele><time>2026-04-06T08:16:20.477Z</time></trkpt><trkpt lat="44.8243238" lon="10.9291588"><ele>18.333333333333332</ele><time>2026-04-06T08:16:21.476Z</time></trkpt><trkpt lat="44.8243934" lon="10.9292287"><ele>18.0</ele><time>2026-04-06T08:16:22.476Z</time></trkpt><trkpt lat="44.8244616" lon="10.9292977"><ele>17.666666666666668</ele><time>2026-04-06T08:16:23.476Z</time></trkpt><trkpt lat="44.8245181" lon="10.9293657"><ele>17.333333333333336</ele><time>2026-04-06T08:16:24.476Z</time></trkpt><trkpt lat="44.8245745" lon="10.9294373"><ele>17.0</ele><time>2026-04-06T08:16:25.476Z</time></trkpt><trkpt lat="44.8246279" lon="10.9294888"><ele>17.0</ele><time>2026-04-06T08:16:26.477Z</time></trkpt><trkpt lat="44.8247354" lon="10.9295602"><ele>17.0</ele><time>2026-04-06T08:16:28.478Z</time></trkpt><trkpt lat="44.8247975" lon="10.9295911"><ele>17.0</ele><time>2026-04-06T08:16:29.476Z</time></trkpt><trkpt lat="44.8248713" lon="10.9296022"><ele>17.0</ele><time>2026-04-06T08:16:30.477Z</time></trkpt><trkpt lat="44.8249535" lon="10.9296212"><ele>17.0</ele><time>2026-04-06T08:16:31.477Z</time></trkpt><trkpt lat="44.8250478" lon="10.9296383"><ele>17.0</ele><time>2026-04-06T08:16:32.476Z</time></trkpt><trkpt lat="44.8251554" lon="10.9296523"><ele>17.0</ele><time>2026-04-06T08:16:33.476Z</time></trkpt><trkpt lat="44.8252743" lon="10.9296591"><ele>17.0</ele><time>2026-04-06T08:16:34.476Z</time></trkpt><trkpt lat="44.8253939" lon="10.9296645"><ele>17.0</ele><time>2026-04-06T08:16:35.476Z</time></trkpt><trkpt lat="44.8255206" lon="10.9296637"><ele>17.0</ele><time>2026-04-06T08:16:36.476Z</time></trkpt><trkpt lat="44.8256536" lon="10.9296432"><ele>17.0</ele><time>2026-04-06T08:16:37.476Z</time></trkpt><trkpt lat="44.8257914" lon="10.9296207"><ele>17.0</ele><time>2026-04-06T08:16:38.476Z</time></trkpt><trkpt lat="44.82592" lon="10.9296072"><ele>17.0</ele><time>2026-04-06T08:16:39.476Z</time></trkpt><trkpt lat="44.8260398" lon="10.9296056"><ele>17.0</ele><time>2026-04-06T08:16:40.476Z</time></trkpt><trkpt lat="44.8261434" lon="10.9296205"><ele>17.0</ele><time>2026-04-06T08:16:41.476Z</time></trkpt><trkpt lat="44.8262381" lon="10.9296537"><ele>17.0</ele><time>2026-04-06T08:16:42.476Z</time></trkpt><trkpt lat="44.8263227" lon="10.929677"><ele>17.0</ele><time>2026-04-06T08:16:43.476Z</time></trkpt><trkpt lat="44.8264027" lon="10.9296924"><ele>17.0</ele><time>2026-04-06T08:16:44.477Z</time></trkpt><trkpt lat="44.8264875" lon="10.9296971"><ele>17.0</ele><time>2026-04-06T08:16:45.476Z</time></trkpt><trkpt lat="44.8265744" lon="10.9296689"><ele>17.0</ele><time>2026-04-06T08:16:46.477Z</time></trkpt><trkpt lat="44.8266707" lon="10.9296266"><ele>17.0</ele><time>2026-04-06T08:16:47.475Z</time></trkpt><trkpt lat="44.8267711" lon="10.9295901"><ele>17.0</ele><time>2026-04-06T08:16:48.476Z</time></trkpt><trkpt lat="44.8268819" lon="10.929539"><ele>17.0</ele><time>2026-04-06T08:16:49.476Z</time></trkpt><trkpt lat="44.8270005" lon="10.9294794"><ele>17.0</ele><time>2026-04-06T08:16:50.477Z</time></trkpt><trkpt lat="44.8271177" lon="10.9294172"><ele>16.75</ele><time>2026-04-06T08:16:51.477Z</time></trkpt><trkpt lat="44.8272441" lon="10.929344"><ele>16.5</ele><time>2026-04-06T08:16:52.476Z</time></trkpt><trkpt lat="44.8273715" lon="10.9292742"><ele>16.25</ele><time>2026-04-06T08:16:53.476Z</time></trkpt><trkpt lat="44.8275067" lon="10.9292173"><ele>16.0</ele><time>2026-04-06T08:16:54.476Z</time></trkpt><trkpt lat="44.8276509" lon="10.9291715"><ele>16.0</ele><time>2026-04-06T08:16:55.476Z</time></trkpt><trkpt lat="44.8278064" lon="10.9291426"><ele>16.0</ele><time>2026-04-06T08:16:56.476Z</time></trkpt><trkpt lat="44.8279691" lon="10.9291143"><ele>16.0</ele><time>2026-04-06T08:16:57.476Z</time></trkpt><trkpt lat="44.8281232" lon="10.9290968"><ele>16.0</ele><time>2026-04-06T08:16:58.476Z</time></trkpt><trkpt lat="44.8282703" lon="10.9290901"><ele>16.0</ele><time>2026-04-06T08:16:59.476Z</time></trkpt><trkpt lat="44.828407" lon="10.9290923"><ele>16.0</ele><time>2026-04-06T08:17:00.476Z</time></trkpt><trkpt lat="44.828533" lon="10.9291117"><ele>16.0</ele><time>2026-04-06T08:17:01.477Z</time></trkpt><trkpt lat="44.8286481" lon="10.9291298"><ele>16.2</ele><time>2026-04-06T08:17:02.477Z</time></trkpt><trkpt lat="44.8287517" lon="10.9291482"><ele>16.400000000000002</ele><time>2026-04-06T08:17:03.476Z</time></trkpt><trkpt lat="44.8288505" lon="10.9291684"><ele>16.6</ele><time>2026-04-06T08:17:04.476Z</time></trkpt><trkpt lat="44.8289426" lon="10.929196"><ele>16.8</ele><time>2026-04-06T08:17:05.476Z</time></trkpt><trkpt lat="44.8290381" lon="10.9292225"><ele>17.0</ele><time>2026-04-06T08:17:06.477Z</time></trkpt><trkpt lat="44.8291336" lon="10.9292557"><ele>17.0</ele><time>2026-04-06T08:17:07.476Z</time></trkpt><trkpt lat="44.8292403" lon="10.9292879"><ele>17.0</ele><time>2026-04-06T08:17:08.476Z</time></trkpt><trkpt lat="44.8293496" lon="10.9293206"><ele>17.0</ele><time>2026-04-06T08:17:09.476Z</time></trkpt><trkpt lat="44.8294582" lon="10.929357"><ele>17.0</ele><time>2026-04-06T08:17:10.476Z</time></trkpt><trkpt lat="44.829567" lon="10.9293948"><ele>17.0</ele><time>2026-04-06T08:17:11.476Z</time></trkpt><trkpt lat="44.8296739" lon="10.9294341"><ele>17.0</ele><time>2026-04-06T08:17:12.477Z</time></trkpt><trkpt lat="44.8297736" lon="10.9294647"><ele>17.0</ele><time>2026-04-06T08:17:13.476Z</time></trkpt><trkpt lat="44.8298675" lon="10.9294846"><ele>17.0</ele><time>2026-04-06T08:17:14.476Z</time></trkpt><trkpt lat="44.8299514" lon="10.9295009"><ele>17.0</ele><time>2026-04-06T08:17:15.476Z</time></trkpt><trkpt lat="44.8300264" lon="10.929519"><ele>17.0</ele><time>2026-04-06T08:17:16.476Z</time></trkpt><trkpt lat="44.8301028" lon="10.929617"><ele>17.0</ele><time>2026-04-06T08:17:18.476Z</time></trkpt><trkpt lat="44.8301032" lon="10.9297985"><ele>17.0</ele><time>2026-04-06T08:17:20.476Z</time></trkpt><trkpt lat="44.8300972" lon="10.9299168"><ele>17.0</ele><time>2026-04-06T08:17:21.476Z</time></trkpt><trkpt lat="44.8300924" lon="10.9300426"><ele>17.0</ele><time>2026-04-06T08:17:22.476Z</time></trkpt><trkpt lat="44.830088" lon="10.9301889"><ele>17.0</ele><time>2026-04-06T08:17:23.476Z</time></trkpt><trkpt lat="44.8300833" lon="10.9303456"><ele>17.0</ele><time>2026-04-06T08:17:24.476Z</time></trkpt><trkpt lat="44.8300749" lon="10.9305085"><ele>17.0</ele><time>2026-04-06T08:17:25.476Z</time></trkpt><trkpt lat="44.8300685" lon="10.9306801"><ele>17.0</ele><time>2026-04-06T08:17:26.477Z</time></trkpt><trkpt lat="44.8300598" lon="10.9308519"><ele>17.0</ele><time>2026-04-06T08:17:27.476Z</time></trkpt><trkpt lat="44.8300511" lon="10.9310266"><ele>17.0</ele><time>2026-04-06T08:17:28.477Z</time></trkpt><trkpt lat="44.8300402" lon="10.9312127"><ele>17.0</ele><time>2026-04-06T08:17:29.476Z</time></trkpt><trkpt lat="44.8300329" lon="10.9313993"><ele>17.0</ele><time>2026-04-06T08:17:30.476Z</time></trkpt><trkpt lat="44.8300234" lon="10.931588"><ele>17.0</ele><time>2026-04-06T08:17:31.477Z</time></trkpt><trkpt lat="44.8300206" lon="10.9317759"><ele>16.75</ele><time>2026-04-06T08:17:32.477Z</time></trkpt><trkpt lat="44.8300132" lon="10.9319665"><ele>16.5</ele><time>2026-04-06T08:17:33.476Z</time></trkpt><trkpt lat="44.8300059" lon="10.9321388"><ele>16.25</ele><time>2026-04-06T08:17:34.476Z</time></trkpt><trkpt lat="44.8299993" lon="10.9323027"><ele>16.0</ele><time>2026-04-06T08:17:35.476Z</time></trkpt><trkpt lat="44.8299903" lon="10.9324559"><ele>16.0</ele><time>2026-04-06T08:17:36.476Z</time></trkpt><trkpt lat="44.8299861" lon="10.9325946"><ele>16.0</ele><time>2026-04-06T08:17:37.476Z</time></trkpt><trkpt lat="44.8299839" lon="10.9327215"><ele>16.0</ele><time>2026-04-06T08:17:38.476Z</time></trkpt><trkpt lat="44.8300041" lon="10.932841"><ele>16.0</ele><time>2026-04-06T08:17:39.476Z</time></trkpt><trkpt lat="44.8300558" lon="10.9329503"><ele>16.0</ele><time>2026-04-06T08:17:40.477Z</time></trkpt><trkpt lat="44.8301307" lon="10.9330406"><ele>16.0</ele><time>2026-04-06T08:17:41.476Z</time></trkpt><trkpt lat="44.8302203" lon="10.9331082"><ele>16.0</ele><time>2026-04-06T08:17:42.476Z</time></trkpt><trkpt lat="44.8303215" lon="10.933152"><ele>16.0</ele><time>2026-04-06T08:17:43.476Z</time></trkpt><trkpt lat="44.8304377" lon="10.9331833"><ele>16.0</ele><time>2026-04-06T08:17:44.477Z</time></trkpt><trkpt lat="44.8305555" lon="10.933215"><ele>16.0</ele><time>2026-04-06T08:17:45.477Z</time></trkpt><trkpt lat="44.8306661" lon="10.933243"><ele>15.999999999999998</ele><time>2026-04-06T08:17:46.476Z</time></trkpt><trkpt lat="44.8307646" lon="10.933267"><ele>16.0</ele><time>2026-04-06T08:17:47.477Z</time></trkpt><trkpt lat="44.8308476" lon="10.9332899"><ele>16.0</ele><time>2026-04-06T08:17:48.476Z</time></trkpt><trkpt lat="44.830922" lon="10.9332995"><ele>16.0</ele><time>2026-04-06T08:17:49.477Z</time></trkpt><trkpt lat="44.8309859" lon="10.9333155"><ele>15.999999999999998</ele><time>2026-04-06T08:17:50.476Z</time></trkpt><trkpt lat="44.8310812" lon="10.9333606"><ele>16.0</ele><time>2026-04-06T08:17:52.478Z</time></trkpt><trkpt lat="44.8311322" lon="10.9334403"><ele>16.2</ele><time>2026-04-06T08:17:54.476Z</time></trkpt><trkpt lat="44.8311237" lon="10.933575"><ele>16.400000000000002</ele><time>2026-04-06T08:17:56.477Z</time></trkpt><trkpt lat="44.8311106" lon="10.933722"><ele>16.6</ele><time>2026-04-06T08:17:58.476Z</time></trkpt><trkpt lat="44.8311003" lon="10.933897"><ele>16.8</ele><time>2026-04-06T08:18:00.476Z</time></trkpt><trkpt lat="44.8310938" lon="10.9339866"><ele>17.0</ele><time>2026-04-06T08:18:01.477Z</time></trkpt><trkpt lat="44.8310833" lon="10.9340793"><ele>17.0</ele><time>2026-04-06T08:18:02.477Z</time></trkpt><trkpt lat="44.8310769" lon="10.9341679"><ele>17.0</ele><time>2026-04-06T08:18:03.476Z</time></trkpt><trkpt lat="44.8310613" lon="10.9343434"><ele>17.0</ele><time>2026-04-06T08:18:05.476Z</time></trkpt><trkpt lat="44.8310517" lon="10.9344316"><ele>17.0</ele><time>2026-04-06T08:18:06.477Z</time></trkpt><trkpt lat="44.8310406" lon="10.9345245"><ele>17.0</ele><time>2026-04-06T08:18:07.477Z</time></trkpt><trkpt lat="44.8310216" lon="10.93463"><ele>17.0</ele><time>2026-04-06T08:18:08.476Z</time></trkpt><trkpt lat="44.8309951" lon="10.9347283"><ele>17.333333333333336</ele><time>2026-04-06T08:18:09.477Z</time></trkpt><trkpt lat="44.8309612" lon="10.9348316"><ele>17.666666666666668</ele><time>2026-04-06T08:18:10.476Z</time></trkpt><trkpt lat="44.8309174" lon="10.9349384"><ele>18.0</ele><time>2026-04-06T08:18:11.475Z</time></trkpt><trkpt lat="44.8308734" lon="10.9350426"><ele>18.333333333333332</ele><time>2026-04-06T08:18:12.476Z</time></trkpt><trkpt lat="44.8308258" lon="10.9351449"><ele>18.666666666666664</ele><time>2026-04-06T08:18:13.478Z</time></trkpt><trkpt lat="44.8307817" lon="10.9352381"><ele>19.0</ele><time>2026-04-06T08:18:14.476Z</time></trkpt><trkpt lat="44.8307366" lon="10.9353268"><ele>19.0</ele><time>2026-04-06T08:18:15.477Z</time></trkpt><trkpt lat="44.8306988" lon="10.9354092"><ele>19.0</ele><time>2026-04-06T08:18:16.477Z</time></trkpt><trkpt lat="44.8306592" lon="10.9354855"><ele>19.0</ele><time>2026-04-06T08:18:17.476Z</time></trkpt><trkpt lat="44.8306169" lon="10.9355554"><ele>19.0</ele><time>2026-04-06T08:18:18.476Z</time></trkpt><trkpt lat="44.8305559" lon="10.9356913"><ele>19.0</ele><time>2026-04-06T08:18:20.476Z</time></trkpt><trkpt lat="44.8305445" lon="10.9358018"><ele>19.0</ele><time>2026-04-06T08:18:22.476Z</time></trkpt><trkpt lat="44.8306029" lon="10.9358832"><ele>18.8</ele><time>2026-04-06T08:18:24.476Z</time></trkpt><trkpt lat="44.830703" lon="10.935951"><ele>18.599999999999998</ele><time>2026-04-06T08:18:26.476Z</time></trkpt><trkpt lat="44.8307644" lon="10.9359875"><ele>18.4</ele><time>2026-04-06T08:18:27.476Z</time></trkpt><trkpt lat="44.8308293" lon="10.9360273"><ele>18.2</ele><time>2026-04-06T08:18:28.476Z</time></trkpt><trkpt lat="44.8308991" lon="10.9360703"><ele>18.0</ele><time>2026-04-06T08:18:29.476Z</time></trkpt><trkpt lat="44.831014" lon="10.9361508"><ele>18.000000000000004</ele><time>2026-04-06T08:18:31.476Z</time></trkpt><trkpt lat="44.8310757" lon="10.9361858"><ele>18.0</ele><time>2026-04-06T08:18:32.477Z</time></trkpt><trkpt lat="44.8311354" lon="10.9362226"><ele>18.0</ele><time>2026-04-06T08:18:33.476Z</time></trkpt><trkpt lat="44.8311951" lon="10.9362642"><ele>18.0</ele><time>2026-04-06T08:18:34.476Z</time></trkpt><trkpt lat="44.8312536" lon="10.9363027"><ele>18.0</ele><time>2026-04-06T08:18:35.476Z</time></trkpt><trkpt lat="44.8313154" lon="10.9363433"><ele>18.000000000000004</ele><time>2026-04-06T08:18:36.478Z</time></trkpt><trkpt lat="44.831384" lon="10.9363934"><ele>18.0</ele><time>2026-04-06T08:18:37.476Z</time></trkpt><trkpt lat="44.8314534" lon="10.9364383"><ele>18.0</ele><time>2026-04-06T08:18:38.476Z</time></trkpt><trkpt lat="44.8315322" lon="10.9364865"><ele>18.0</ele><time>2026-04-06T08:18:39.476Z</time></trkpt><trkpt lat="44.8316104" lon="10.9365382"><ele>18.0</ele><time>2026-04-06T08:18:40.476Z</time></trkpt><trkpt lat="44.83169" lon="10.9365851"><ele>18.0</ele><time>2026-04-06T08:18:41.476Z</time></trkpt><trkpt lat="44.8317682" lon="10.9366385"><ele>18.0</ele><time>2026-04-06T08:18:42.478Z</time></trkpt><trkpt lat="44.8318491" lon="10.9366882"><ele>18.0</ele><time>2026-04-06T08:18:43.476Z</time></trkpt><trkpt lat="44.8319308" lon="10.9367425"><ele>18.0</ele><time>2026-04-06T08:18:44.476Z</time></trkpt><trkpt lat="44.8320153" lon="10.9367961"><ele>18.0</ele><time>2026-04-06T08:18:45.477Z</time></trkpt><trkpt lat="44.8320948" lon="10.9368551"><ele>18.0</ele><time>2026-04-06T08:18:46.476Z</time></trkpt><trkpt lat="44.8321826" lon="10.9369085"><ele>18.0</ele><time>2026-04-06T08:18:47.477Z</time></trkpt><trkpt lat="44.8322682" lon="10.9369596"><ele>18.0</ele><time>2026-04-06T08:18:48.476Z</time></trkpt><trkpt lat="44.8323567" lon="10.9370143"><ele>18.0</ele><time>2026-04-06T08:18:49.476Z</time></trkpt><trkpt lat="44.8324484" lon="10.9370695"><ele>18.0</ele><time>2026-04-06T08:18:50.476Z</time></trkpt><trkpt lat="44.8325405" lon="10.9371257"><ele>18.0</ele><time>2026-04-06T08:18:51.476Z</time></trkpt><trkpt lat="44.8326304" lon="10.9371806"><ele>18.0</ele><time>2026-04-06T08:18:52.476Z</time></trkpt><trkpt lat="44.8327236" lon="10.9372372"><ele>18.0</ele><time>2026-04-06T08:18:53.476Z</time></trkpt><trkpt lat="44.8328152" lon="10.9372858"><ele>18.0</ele><time>2026-04-06T08:18:54.476Z</time></trkpt><trkpt lat="44.8329074" lon="10.937339"><ele>18.0</ele><time>2026-04-06T08:18:55.478Z</time></trkpt><trkpt lat="44.8329967" lon="10.9373953"><ele>18.0</ele><time>2026-04-06T08:18:56.476Z</time></trkpt><trkpt lat="44.8330885" lon="10.9374468"><ele>18.0</ele><time>2026-04-06T08:18:57.476Z</time></trkpt><trkpt lat="44.8331834" lon="10.9375048"><ele>18.0</ele><time>2026-04-06T08:18:58.476Z</time></trkpt><trkpt lat="44.8332711" lon="10.9375614"><ele>18.0</ele><time>2026-04-06T08:18:59.477Z</time></trkpt><trkpt lat="44.8333623" lon="10.9376216"><ele>18.0</ele><time>2026-04-06T08:19:00.476Z</time></trkpt><trkpt lat="44.8334448" lon="10.9376795"><ele>18.0</ele><time>2026-04-06T08:19:01.476Z</time></trkpt><trkpt lat="44.8335261" lon="10.9377364"><ele>18.0</ele><time>2026-04-06T08:19:02.477Z</time></trkpt><trkpt lat="44.8336099" lon="10.9377863"><ele>18.0</ele><time>2026-04-06T08:19:03.476Z</time></trkpt><trkpt lat="44.83369" lon="10.9378319"><ele>18.42857142857143</ele><time>2026-04-06T08:19:04.477Z</time></trkpt><trkpt lat="44.8337642" lon="10.9378762"><ele>18.857142857142858</ele><time>2026-04-06T08:19:05.476Z</time></trkpt><trkpt lat="44.8338337" lon="10.9379174"><ele>19.285714285714285</ele><time>2026-04-06T08:19:06.476Z</time></trkpt><trkpt lat="44.8338948" lon="10.9379574"><ele>19.714285714285715</ele><time>2026-04-06T08:19:07.476Z</time></trkpt><trkpt lat="44.8339578" lon="10.9379951"><ele>20.142857142857142</ele><time>2026-04-06T08:19:08.476Z</time></trkpt><trkpt lat="44.8340187" lon="10.938037"><ele>20.571428571428573</ele><time>2026-04-06T08:19:09.476Z</time></trkpt><trkpt lat="44.8340821" lon="10.9380749"><ele>21.0</ele><time>2026-04-06T08:19:10.476Z</time></trkpt><trkpt lat="44.8341829" lon="10.9381296"><ele>21.0</ele><time>2026-04-06T08:19:12.477Z</time></trkpt><trkpt lat="44.8342844" lon="10.9381945"><ele>21.0</ele><time>2026-04-06T08:19:14.476Z</time></trkpt><trkpt lat="44.8343825" lon="10.9382405"><ele>21.0</ele><time>2026-04-06T08:19:16.477Z</time></trkpt><trkpt lat="44.8344672" lon="10.938263"><ele>21.0</ele><time>2026-04-06T08:19:18.476Z</time></trkpt><trkpt lat="44.8345407" lon="10.9382609"><ele>21.0</ele><time>2026-04-06T08:19:20.477Z</time></trkpt><trkpt lat="44.8346196" lon="10.9382403"><ele>21.0</ele><time>2026-04-06T08:19:22.476Z</time></trkpt><trkpt lat="44.8346983" lon="10.9381898"><ele>21.0</ele><time>2026-04-06T08:19:24.476Z</time></trkpt><trkpt lat="44.8347809" lon="10.9381234"><ele>21.0</ele><time>2026-04-06T08:19:26.477Z</time></trkpt><trkpt lat="44.8348643" lon="10.9380321"><ele>21.0</ele><time>2026-04-06T08:19:28.476Z</time></trkpt><trkpt lat="44.8349427" lon="10.9379456"><ele>21.0</ele><time>2026-04-06T08:19:30.477Z</time></trkpt><trkpt lat="44.8350345" lon="10.9378712"><ele>20.5</ele><time>2026-04-06T08:19:32.477Z</time></trkpt><trkpt lat="44.835141" lon="10.9378189"><ele>20.0</ele><time>2026-04-06T08:19:34.476Z</time></trkpt><trkpt lat="44.8352624" lon="10.9377881"><ele>19.5</ele><time>2026-04-06T08:19:36.477Z</time></trkpt><trkpt lat="44.8353264" lon="10.9377913"><ele>19.0</ele><time>2026-04-06T08:19:37.477Z</time></trkpt><trkpt lat="44.8353948" lon="10.9378078"><ele>18.5</ele><time>2026-04-06T08:19:38.476Z</time></trkpt><trkpt lat="44.83547" lon="10.9378328"><ele>18.0</ele><time>2026-04-06T08:19:39.477Z</time></trkpt><trkpt lat="44.8355449" lon="10.9378583"><ele>18.0</ele><time>2026-04-06T08:19:40.477Z</time></trkpt><trkpt lat="44.8356292" lon="10.9378975"><ele>18.0</ele><time>2026-04-06T08:19:41.476Z</time></trkpt><trkpt lat="44.8357129" lon="10.9379414"><ele>18.0</ele><time>2026-04-06T08:19:42.477Z</time></trkpt><trkpt lat="44.8357982" lon="10.9379818"><ele>18.0</ele><time>2026-04-06T08:19:43.477Z</time></trkpt><trkpt lat="44.8358907" lon="10.9380329"><ele>18.0</ele><time>2026-04-06T08:19:44.476Z</time></trkpt><trkpt lat="44.8359871" lon="10.9380808"><ele>18.25</ele><time>2026-04-06T08:19:45.477Z</time></trkpt><trkpt lat="44.8360884" lon="10.938132"><ele>18.5</ele><time>2026-04-06T08:19:46.476Z</time></trkpt><trkpt lat="44.8361942" lon="10.9381869"><ele>18.75</ele><time>2026-04-06T08:19:47.477Z</time></trkpt><trkpt lat="44.8363069" lon="10.9382444"><ele>19.0</ele><time>2026-04-06T08:19:48.476Z</time></trkpt><trkpt lat="44.8364249" lon="10.9383056"><ele>19.0</ele><time>2026-04-06T08:19:49.476Z</time></trkpt><trkpt lat="44.8365461" lon="10.9383739"><ele>19.0</ele><time>2026-04-06T08:19:50.476Z</time></trkpt><trkpt lat="44.8366656" lon="10.9384544"><ele>19.0</ele><time>2026-04-06T08:19:51.476Z</time></trkpt><trkpt lat="44.8367924" lon="10.9385438"><ele>19.0</ele><time>2026-04-06T08:19:52.477Z</time></trkpt><trkpt lat="44.8369159" lon="10.9386345"><ele>18.75</ele><time>2026-04-06T08:19:53.477Z</time></trkpt><trkpt lat="44.8370466" lon="10.9387218"><ele>18.5</ele><time>2026-04-06T08:19:54.478Z</time></trkpt><trkpt lat="44.837179" lon="10.9388104"><ele>18.25</ele><time>2026-04-06T08:19:55.476Z</time></trkpt><trkpt lat="44.8372932" lon="10.9388954"><ele>18.0</ele><time>2026-04-06T08:19:56.476Z</time></trkpt><trkpt lat="44.8374029" lon="10.9389725"><ele>18.0</ele><time>2026-04-06T08:19:57.476Z</time></trkpt><trkpt lat="44.8375032" lon="10.9390424"><ele>18.0</ele><time>2026-04-06T08:19:58.476Z</time></trkpt><trkpt lat="44.8375955" lon="10.9391128"><ele>18.0</ele><time>2026-04-06T08:19:59.476Z</time></trkpt><trkpt lat="44.8376865" lon="10.9391768"><ele>18.0</ele><time>2026-04-06T08:20:00.476Z</time></trkpt><trkpt lat="44.8377823" lon="10.9392354"><ele>18.0</ele><time>2026-04-06T08:20:01.476Z</time></trkpt><trkpt lat="44.8378736" lon="10.9392984"><ele>18.0</ele><time>2026-04-06T08:20:02.477Z</time></trkpt><trkpt lat="44.8379606" lon="10.9393542"><ele>18.0</ele><time>2026-04-06T08:20:03.476Z</time></trkpt><trkpt lat="44.8380415" lon="10.9394095"><ele>18.0</ele><time>2026-04-06T08:20:04.477Z</time></trkpt><trkpt lat="44.838115" lon="10.9394561"><ele>18.0</ele><time>2026-04-06T08:20:05.476Z</time></trkpt><trkpt lat="44.8381835" lon="10.9394959"><ele>18.0</ele><time>2026-04-06T08:20:06.476Z</time></trkpt><trkpt lat="44.838243" lon="10.9395345"><ele>18.0</ele><time>2026-04-06T08:20:07.476Z</time></trkpt><trkpt lat="44.8383257" lon="10.9395915"><ele>18.0</ele><time>2026-04-06T08:20:09.477Z</time></trkpt><trkpt lat="44.8383759" lon="10.9396757"><ele>18.0</ele><time>2026-04-06T08:20:11.476Z</time></trkpt><trkpt lat="44.8383589" lon="10.9398098"><ele>18.0</ele><time>2026-04-06T08:20:13.476Z</time></trkpt><trkpt lat="44.8382991" lon="10.939968"><ele>18.0</ele><time>2026-04-06T08:20:15.476Z</time></trkpt><trkpt lat="44.838256" lon="10.9400564"><ele>18.0</ele><time>2026-04-06T08:20:16.477Z</time></trkpt><trkpt lat="44.8382145" lon="10.9401667"><ele>17.8</ele><time>2026-04-06T08:20:17.477Z</time></trkpt><trkpt lat="44.8381754" lon="10.9402826"><ele>17.6</ele><time>2026-04-06T08:20:18.476Z</time></trkpt><trkpt lat="44.8381266" lon="10.9404034"><ele>17.4</ele><time>2026-04-06T08:20:19.475Z</time></trkpt><trkpt lat="44.8380771" lon="10.9405182"><ele>17.2</ele><time>2026-04-06T08:20:20.477Z</time></trkpt><trkpt lat="44.838033" lon="10.9406319"><ele>17.0</ele><time>2026-04-06T08:20:21.476Z</time></trkpt><trkpt lat="44.837984" lon="10.940751"><ele>17.0</ele><time>2026-04-06T08:20:22.476Z</time></trkpt><trkpt lat="44.8379346" lon="10.9408746"><ele>17.0</ele><time>2026-04-06T08:20:23.476Z</time></trkpt><trkpt lat="44.837888" lon="10.9410041"><ele>17.0</ele><time>2026-04-06T08:20:24.476Z</time></trkpt><trkpt lat="44.8378392" lon="10.9411325"><ele>17.0</ele><time>2026-04-06T08:20:25.477Z</time></trkpt><trkpt lat="44.8377899" lon="10.9412579"><ele>17.0</ele><time>2026-04-06T08:20:26.476Z</time></trkpt><trkpt lat="44.8377329" lon="10.9413816"><ele>17.2</ele><time>2026-04-06T08:20:27.476Z</time></trkpt><trkpt lat="44.8376772" lon="10.9415092"><ele>17.4</ele><time>2026-04-06T08:20:28.477Z</time></trkpt><trkpt lat="44.8376223" lon="10.9416373"><ele>17.6</ele><time>2026-04-06T08:20:29.476Z</time></trkpt><trkpt lat="44.8375632" lon="10.9417718"><ele>17.8</ele><time>2026-04-06T08:20:30.477Z</time></trkpt><trkpt lat="44.8375103" lon="10.9419055"><ele>18.0</ele><time>2026-04-06T08:20:31.476Z</time></trkpt><trkpt lat="44.8374477" lon="10.9420369"><ele>18.0</ele><time>2026-04-06T08:20:32.477Z</time></trkpt><trkpt lat="44.8373946" lon="10.9421696"><ele>18.0</ele><time>2026-04-06T08:20:33.477Z</time></trkpt><trkpt lat="44.8373408" lon="10.942303"><ele>18.0</ele><time>2026-04-06T08:20:34.476Z</time></trkpt><trkpt lat="44.8372845" lon="10.9424373"><ele>18.0</ele><time>2026-04-06T08:20:35.476Z</time></trkpt><trkpt lat="44.8372281" lon="10.9425748"><ele>18.0</ele><time>2026-04-06T08:20:36.476Z</time></trkpt><trkpt lat="44.8371745" lon="10.9427127"><ele>18.0</ele><time>2026-04-06T08:20:37.476Z</time></trkpt><trkpt lat="44.8371173" lon="10.9428525"><ele>18.0</ele><time>2026-04-06T08:20:38.476Z</time></trkpt><trkpt lat="44.8370588" lon="10.9430008"><ele>18.0</ele><time>2026-04-06T08:20:39.476Z</time></trkpt><trkpt lat="44.8369943" lon="10.9431536"><ele>18.0</ele><time>2026-04-06T08:20:40.476Z</time></trkpt><trkpt lat="44.8369284" lon="10.9433141"><ele>18.0</ele><time>2026-04-06T08:20:41.476Z</time></trkpt><trkpt lat="44.8368656" lon="10.9434766"><ele>18.0</ele><time>2026-04-06T08:20:42.476Z</time></trkpt><trkpt lat="44.8367903" lon="10.9436426"><ele>18.0</ele><time>2026-04-06T08:20:43.476Z</time></trkpt><trkpt lat="44.8367182" lon="10.943818"><ele>18.0</ele><time>2026-04-06T08:20:44.476Z</time></trkpt><trkpt lat="44.8366439" lon="10.9439951"><ele>17.666666666666668</ele><time>2026-04-06T08:20:45.477Z</time></trkpt><trkpt lat="44.8365721" lon="10.9441796"><ele>17.333333333333336</ele><time>2026-04-06T08:20:46.476Z</time></trkpt><trkpt lat="44.8365011" lon="10.944371"><ele>17.0</ele><time>2026-04-06T08:20:47.476Z</time></trkpt><trkpt lat="44.8364312" lon="10.9445554"><ele>17.0</ele><time>2026-04-06T08:20:48.477Z</time></trkpt><trkpt lat="44.8363514" lon="10.9447467"><ele>17.0</ele><time>2026-04-06T08:20:49.476Z</time></trkpt><trkpt lat="44.8362683" lon="10.944931"><ele>17.0</ele><time>2026-04-06T08:20:50.477Z</time></trkpt><trkpt lat="44.8361928" lon="10.9451182"><ele>17.0</ele><time>2026-04-06T08:20:51.476Z</time></trkpt><trkpt lat="44.8361093" lon="10.945308"><ele>17.0</ele><time>2026-04-06T08:20:52.476Z</time></trkpt><trkpt lat="44.836032" lon="10.9455006"><ele>17.0</ele><time>2026-04-06T08:20:53.477Z</time></trkpt><trkpt lat="44.8359547" lon="10.9457006"><ele>17.5</ele><time>2026-04-06T08:20:54.476Z</time></trkpt><trkpt lat="44.8358803" lon="10.9458943"><ele>18.0</ele><time>2026-04-06T08:20:55.476Z</time></trkpt><trkpt lat="44.8358089" lon="10.9460672"><ele>18.5</ele><time>2026-04-06T08:20:56.476Z</time></trkpt><trkpt lat="44.8357429" lon="10.9462356"><ele>19.0</ele><time>2026-04-06T08:20:57.477Z</time></trkpt><trkpt lat="44.8356774" lon="10.9463884"><ele>19.0</ele><time>2026-04-06T08:20:58.476Z</time></trkpt><trkpt lat="44.8356148" lon="10.9465323"><ele>19.0</ele><time>2026-04-06T08:20:59.478Z</time></trkpt><trkpt lat="44.835551" lon="10.9466818"><ele>19.0</ele><time>2026-04-06T08:21:00.476Z</time></trkpt><trkpt lat="44.835495" lon="10.9468261"><ele>19.0</ele><time>2026-04-06T08:21:01.477Z</time></trkpt><trkpt lat="44.8354351" lon="10.9469686"><ele>19.0</ele><time>2026-04-06T08:21:02.476Z</time></trkpt><trkpt lat="44.8353754" lon="10.9471216"><ele>19.0</ele><time>2026-04-06T08:21:03.476Z</time></trkpt><trkpt lat="44.8353147" lon="10.947275"><ele>19.0</ele><time>2026-04-06T08:21:04.476Z</time></trkpt><trkpt lat="44.8352561" lon="10.9474257"><ele>19.0</ele><time>2026-04-06T08:21:05.476Z</time></trkpt><trkpt lat="44.8351848" lon="10.9475801"><ele>19.0</ele><time>2026-04-06T08:21:06.476Z</time></trkpt><trkpt lat="44.8351214" lon="10.947743"><ele>19.0</ele><time>2026-04-06T08:21:07.476Z</time></trkpt><trkpt lat="44.8350527" lon="10.9479052"><ele>19.0</ele><time>2026-04-06T08:21:08.476Z</time></trkpt><trkpt lat="44.8349883" lon="10.9480697"><ele>19.0</ele><time>2026-04-06T08:21:09.477Z</time></trkpt><trkpt lat="44.8349206" lon="10.94824"><ele>19.25</ele><time>2026-04-06T08:21:10.476Z</time></trkpt><trkpt lat="44.8348552" lon="10.9483936"><ele>19.5</ele><time>2026-04-06T08:21:11.476Z</time></trkpt><trkpt lat="44.8347957" lon="10.9485452"><ele>19.75</ele><time>2026-04-06T08:21:12.477Z</time></trkpt><trkpt lat="44.8347374" lon="10.9486828"><ele>20.0</ele><time>2026-04-06T08:21:13.476Z</time></trkpt><trkpt lat="44.8346849" lon="10.9488107"><ele>20.0</ele><time>2026-04-06T08:21:14.476Z</time></trkpt><trkpt lat="44.8346319" lon="10.9489409"><ele>20.0</ele><time>2026-04-06T08:21:15.477Z</time></trkpt><trkpt lat="44.8345776" lon="10.9490684"><ele>20.0</ele><time>2026-04-06T08:21:16.476Z</time></trkpt><trkpt lat="44.8345184" lon="10.9492073"><ele>20.0</ele><time>2026-04-06T08:21:17.476Z</time></trkpt><trkpt lat="44.8344661" lon="10.9493518"><ele>20.0</ele><time>2026-04-06T08:21:18.476Z</time></trkpt><trkpt lat="44.8344079" lon="10.9494922"><ele>20.0</ele><time>2026-04-06T08:21:19.476Z</time></trkpt><trkpt lat="44.8343471" lon="10.9496357"><ele>20.0</ele><time>2026-04-06T08:21:20.476Z</time></trkpt><trkpt lat="44.8342889" lon="10.9497703"><ele>20.0</ele><time>2026-04-06T08:21:21.477Z</time></trkpt><trkpt lat="44.8342271" lon="10.9499023"><ele>20.0</ele><time>2026-04-06T08:21:22.476Z</time></trkpt><trkpt lat="44.8341711" lon="10.9500378"><ele>19.8</ele><time>2026-04-06T08:21:23.477Z</time></trkpt><trkpt lat="44.8341182" lon="10.9501782"><ele>19.6</ele><time>2026-04-06T08:21:24.477Z</time></trkpt><trkpt lat="44.834068" lon="10.9503153"><ele>19.4</ele><time>2026-04-06T08:21:25.477Z</time></trkpt><trkpt lat="44.8340199" lon="10.9504584"><ele>19.2</ele><time>2026-04-06T08:21:26.476Z</time></trkpt><trkpt lat="44.833972" lon="10.9505962"><ele>19.0</ele><time>2026-04-06T08:21:27.476Z</time></trkpt><trkpt lat="44.833919" lon="10.9507359"><ele>19.0</ele><time>2026-04-06T08:21:28.476Z</time></trkpt><trkpt lat="44.8338537" lon="10.9508702"><ele>19.0</ele><time>2026-04-06T08:21:29.476Z</time></trkpt><trkpt lat="44.8337877" lon="10.9510051"><ele>19.0</ele><time>2026-04-06T08:21:30.476Z</time></trkpt><trkpt lat="44.8337186" lon="10.9511393"><ele>19.0</ele><time>2026-04-06T08:21:31.476Z</time></trkpt><trkpt lat="44.8336527" lon="10.9512842"><ele>19.0</ele><time>2026-04-06T08:21:32.476Z</time></trkpt><trkpt lat="44.8335933" lon="10.9514346"><ele>19.0</ele><time>2026-04-06T08:21:33.476Z</time></trkpt><trkpt lat="44.8335338" lon="10.9515867"><ele>19.0</ele><time>2026-04-06T08:21:34.476Z</time></trkpt><trkpt lat="44.8334695" lon="10.9517449"><ele>19.0</ele><time>2026-04-06T08:21:35.476Z</time></trkpt><trkpt lat="44.8334091" lon="10.9519047"><ele>20.0</ele><time>2026-04-06T08:21:36.477Z</time></trkpt><trkpt lat="44.8333438" lon="10.9520667"><ele>21.0</ele><time>2026-04-06T08:21:37.476Z</time></trkpt><trkpt lat="44.8332771" lon="10.9522258"><ele>22.0</ele><time>2026-04-06T08:21:38.477Z</time></trkpt><trkpt lat="44.8332121" lon="10.9523805"><ele>23.0</ele><time>2026-04-06T08:21:39.476Z</time></trkpt><trkpt lat="44.8331528" lon="10.9525246"><ele>22.799999999999997</ele><time>2026-04-06T08:21:40.477Z</time></trkpt><trkpt lat="44.8331001" lon="10.9526563"><ele>22.6</ele><time>2026-04-06T08:21:41.477Z</time></trkpt><trkpt lat="44.83305" lon="10.9527833"><ele>22.4</ele><time>2026-04-06T08:21:42.477Z</time></trkpt><trkpt lat="44.8330023" lon="10.9529037"><ele>22.200000000000003</ele><time>2026-04-06T08:21:43.477Z</time></trkpt><trkpt lat="44.8329592" lon="10.9530025"><ele>22.0</ele><time>2026-04-06T08:21:44.477Z</time></trkpt><trkpt lat="44.8329201" lon="10.9530985"><ele>22.0</ele><time>2026-04-06T08:21:45.476Z</time></trkpt><trkpt lat="44.832883" lon="10.953197"><ele>22.0</ele><time>2026-04-06T08:21:47.477Z</time></trkpt><trkpt lat="44.8328477" lon="10.9533144"><ele>22.0</ele><time>2026-04-06T08:21:53.476Z</time></trkpt><trkpt lat="44.8328439" lon="10.9534152"><ele>22.0</ele><time>2026-04-06T08:22:11.477Z</time></trkpt><trkpt lat="44.8329222" lon="10.9534915"><ele>22.0</ele><time>2026-04-06T08:22:13.477Z</time></trkpt><trkpt lat="44.8330526" lon="10.9535274"><ele>22.333333333333332</ele><time>2026-04-06T08:22:15.477Z</time></trkpt><trkpt lat="44.8331297" lon="10.9535534"><ele>22.666666666666664</ele><time>2026-04-06T08:22:16.477Z</time></trkpt><trkpt lat="44.8332104" lon="10.9535814"><ele>23.0</ele><time>2026-04-06T08:22:17.476Z</time></trkpt><trkpt lat="44.833287" lon="10.9536058"><ele>23.333333333333332</ele><time>2026-04-06T08:22:18.476Z</time></trkpt><trkpt lat="44.8333739" lon="10.9536331"><ele>23.666666666666668</ele><time>2026-04-06T08:22:19.476Z</time></trkpt><trkpt lat="44.833468" lon="10.9536645"><ele>24.0</ele><time>2026-04-06T08:22:20.477Z</time></trkpt><trkpt lat="44.8335605" lon="10.9536872"><ele>24.0</ele><time>2026-04-06T08:22:21.476Z</time></trkpt><trkpt lat="44.833663" lon="10.953722"><ele>24.0</ele><time>2026-04-06T08:22:22.478Z</time></trkpt><trkpt lat="44.8337586" lon="10.9537484"><ele>24.0</ele><time>2026-04-06T08:22:23.478Z</time></trkpt><trkpt lat="44.8338612" lon="10.9537811"><ele>24.0</ele><time>2026-04-06T08:22:24.476Z</time></trkpt><trkpt lat="44.8339668" lon="10.9538142"><ele>24.0</ele><time>2026-04-06T08:22:25.477Z</time></trkpt><trkpt lat="44.8340713" lon="10.9538495"><ele>24.0</ele><time>2026-04-06T08:22:26.476Z</time></trkpt><trkpt lat="44.8341772" lon="10.953881"><ele>24.0</ele><time>2026-04-06T08:22:27.477Z</time></trkpt><trkpt lat="44.8342811" lon="10.9539123"><ele>24.0</ele><time>2026-04-06T08:22:28.476Z</time></trkpt><trkpt lat="44.8343845" lon="10.9539484"><ele>24.0</ele><time>2026-04-06T08:22:29.477Z</time></trkpt><trkpt lat="44.8344902" lon="10.9539754"><ele>24.0</ele><time>2026-04-06T08:22:30.476Z</time></trkpt><trkpt lat="44.8345972" lon="10.9540039"><ele>24.0</ele><time>2026-04-06T08:22:31.477Z</time></trkpt><trkpt lat="44.8347017" lon="10.9540273"><ele>24.0</ele><time>2026-04-06T08:22:32.476Z</time></trkpt><trkpt lat="44.8348115" lon="10.9540465"><ele>24.0</ele><time>2026-04-06T08:22:33.478Z</time></trkpt><trkpt lat="44.8349238" lon="10.9540642"><ele>24.0</ele><time>2026-04-06T08:22:34.476Z</time></trkpt><trkpt lat="44.8350401" lon="10.9540836"><ele>24.0</ele><time>2026-04-06T08:22:35.476Z</time></trkpt><trkpt lat="44.8351499" lon="10.9540963"><ele>24.0</ele><time>2026-04-06T08:22:36.476Z</time></trkpt><trkpt lat="44.8352685" lon="10.9541086"><ele>24.0</ele><time>2026-04-06T08:22:37.476Z</time></trkpt><trkpt lat="44.8353771" lon="10.9541263"><ele>24.0</ele><time>2026-04-06T08:22:38.475Z</time></trkpt><trkpt lat="44.835481" lon="10.9541361"><ele>24.0</ele><time>2026-04-06T08:22:39.476Z</time></trkpt><trkpt lat="44.8355842" lon="10.9541395"><ele>24.0</ele><time>2026-04-06T08:22:40.476Z</time></trkpt><trkpt lat="44.8356845" lon="10.9541327"><ele>24.0</ele><time>2026-04-06T08:22:41.476Z</time></trkpt><trkpt lat="44.8357866" lon="10.9541201"><ele>24.0</ele><time>2026-04-06T08:22:42.477Z</time></trkpt><trkpt lat="44.8358885" lon="10.9541029"><ele>24.0</ele><time>2026-04-06T08:22:43.477Z</time></trkpt><trkpt lat="44.8359844" lon="10.9540782"><ele>24.0</ele><time>2026-04-06T08:22:44.477Z</time></trkpt><trkpt lat="44.8360814" lon="10.9540518"><ele>24.0</ele><time>2026-04-06T08:22:45.477Z</time></trkpt><trkpt lat="44.8361801" lon="10.9540217"><ele>24.0</ele><time>2026-04-06T08:22:46.476Z</time></trkpt><trkpt lat="44.8362772" lon="10.9540038"><ele>24.0</ele><time>2026-04-06T08:22:47.477Z</time></trkpt><trkpt lat="44.8363696" lon="10.9539755"><ele>24.0</ele><time>2026-04-06T08:22:48.476Z</time></trkpt><trkpt lat="44.8364548" lon="10.9539464"><ele>24.0</ele><time>2026-04-06T08:22:49.476Z</time></trkpt><trkpt lat="44.8365275" lon="10.9539247"><ele>24.0</ele><time>2026-04-06T08:22:50.477Z</time></trkpt><trkpt lat="44.8365972" lon="10.9539106"><ele>24.0</ele><time>2026-04-06T08:22:51.478Z</time></trkpt><trkpt lat="44.836688" lon="10.9539283"><ele>24.0</ele><time>2026-04-06T08:22:53.476Z</time></trkpt><trkpt lat="44.8367296" lon="10.9540303"><ele>24.0</ele><time>2026-04-06T08:22:55.476Z</time></trkpt><trkpt lat="44.8368104" lon="10.954109"><ele>24.0</ele><time>2026-04-06T08:22:57.476Z</time></trkpt><trkpt lat="44.8369167" lon="10.9541519"><ele>24.0</ele><time>2026-04-06T08:22:59.476Z</time></trkpt><trkpt lat="44.8369847" lon="10.9541715"><ele>24.0</ele><time>2026-04-06T08:23:00.477Z</time></trkpt><trkpt lat="44.8370952" lon="10.954218"><ele>24.0</ele><time>2026-04-06T08:23:02.476Z</time></trkpt><trkpt lat="44.8372068" lon="10.9542504"><ele>24.0</ele><time>2026-04-06T08:23:04.477Z</time></trkpt><trkpt lat="44.8373232" lon="10.9542813"><ele>24.0</ele><time>2026-04-06T08:23:06.476Z</time></trkpt><trkpt lat="44.8374447" lon="10.9542973"><ele>24.0</ele><time>2026-04-06T08:23:08.477Z</time></trkpt><trkpt lat="44.8375109" lon="10.9543173"><ele>24.0</ele><time>2026-04-06T08:23:09.477Z</time></trkpt><trkpt lat="44.8375835" lon="10.9543436"><ele>23.999999999999996</ele><time>2026-04-06T08:23:10.476Z</time></trkpt><trkpt lat="44.8376606" lon="10.9543714"><ele>24.0</ele><time>2026-04-06T08:23:11.476Z</time></trkpt><trkpt lat="44.837733" lon="10.9543978"><ele>24.0</ele><time>2026-04-06T08:23:12.476Z</time></trkpt><trkpt lat="44.837805" lon="10.9544262"><ele>24.0</ele><time>2026-04-06T08:23:13.476Z</time></trkpt><trkpt lat="44.8378767" lon="10.9544499"><ele>24.0</ele><time>2026-04-06T08:23:14.476Z</time></trkpt><trkpt lat="44.8379432" lon="10.9544685"><ele>23.999999999999996</ele><time>2026-04-06T08:23:15.477Z</time></trkpt><trkpt lat="44.8380086" lon="10.9544839"><ele>24.0</ele><time>2026-04-06T08:23:16.478Z</time></trkpt><trkpt lat="44.8380739" lon="10.9545162"><ele>24.0</ele><time>2026-04-06T08:23:17.477Z</time></trkpt><trkpt lat="44.8381426" lon="10.9545355"><ele>24.0</ele><time>2026-04-06T08:23:18.476Z</time></trkpt><trkpt lat="44.8382097" lon="10.954555"><ele>24.0</ele><time>2026-04-06T08:23:19.477Z</time></trkpt><trkpt lat="44.8383105" lon="10.9546045"><ele>24.0</ele><time>2026-04-06T08:23:21.476Z</time></trkpt><trkpt lat="44.8383396" lon="10.9547235"><ele>24.0</ele><time>2026-04-06T08:23:23.476Z</time></trkpt><trkpt lat="44.8383072" lon="10.9548369"><ele>24.0</ele><time>2026-04-06T08:23:25.477Z</time></trkpt><trkpt lat="44.8382996" lon="10.9549347"><ele>24.0</ele><time>2026-04-06T08:23:27.477Z</time></trkpt><trkpt lat="44.838356" lon="10.9550264"><ele>24.0</ele><time>2026-04-06T08:23:29.476Z</time></trkpt><trkpt lat="44.8384263" lon="10.9550948"><ele>24.0</ele><time>2026-04-06T08:23:31.477Z</time></trkpt><trkpt lat="44.8385153" lon="10.9551622"><ele>24.0</ele><time>2026-04-06T08:23:33.476Z</time></trkpt><trkpt lat="44.8385962" lon="10.9552274"><ele>24.0</ele><time>2026-04-06T08:23:35.477Z</time></trkpt><trkpt lat="44.8386808" lon="10.9552894"><ele>24.0</ele><time>2026-04-06T08:23:37.476Z</time></trkpt><trkpt lat="44.8387632" lon="10.9553698"><ele>24.0</ele><time>2026-04-06T08:23:39.477Z</time></trkpt><trkpt lat="44.8388551" lon="10.9554549"><ele>24.0</ele><time>2026-04-06T08:23:41.476Z</time></trkpt><trkpt lat="44.8389564" lon="10.9555572"><ele>24.0</ele><time>2026-04-06T08:23:43.477Z</time></trkpt><trkpt lat="44.838999" lon="10.9556291"><ele>24.0</ele><time>2026-04-06T08:23:44.476Z</time></trkpt><trkpt lat="44.8390817" lon="10.9557567"><ele>24.0</ele><time>2026-04-06T08:23:46.477Z</time></trkpt><trkpt lat="44.8391925" lon="10.9558456"><ele>24.0</ele><time>2026-04-06T08:23:48.477Z</time></trkpt><trkpt lat="44.8392594" lon="10.9558837"><ele>24.0</ele><time>2026-04-06T08:23:49.476Z</time></trkpt><trkpt lat="44.8393239" lon="10.9559151"><ele>24.0</ele><time>2026-04-06T08:23:50.477Z</time></trkpt><trkpt lat="44.839386" lon="10.9559433"><ele>24.0</ele><time>2026-04-06T08:23:51.476Z</time></trkpt><trkpt lat="44.8394452" lon="10.955982"><ele>24.0</ele><time>2026-04-06T08:23:52.477Z</time></trkpt><trkpt lat="44.8395555" lon="10.9560463"><ele>23.5</ele><time>2026-04-06T08:23:54.477Z</time></trkpt><trkpt lat="44.8396153" lon="10.9560756"><ele>23.0</ele><time>2026-04-06T08:23:55.478Z</time></trkpt><trkpt lat="44.8400835" lon="10.9563955"><ele>23.0</ele><time>2026-04-06T08:25:45.476Z</time></trkpt><trkpt lat="44.8400626" lon="10.9565039"><ele>23.0</ele><time>2026-04-06T08:25:47.477Z</time></trkpt><trkpt lat="44.8400101" lon="10.9566428"><ele>23.0</ele><time>2026-04-06T08:25:49.476Z</time></trkpt><trkpt lat="44.8399807" lon="10.956799"><ele>23.0</ele><time>2026-04-06T08:25:51.477Z</time></trkpt><trkpt lat="44.8400264" lon="10.9569544"><ele>23.0</ele><time>2026-04-06T08:25:53.477Z</time></trkpt><trkpt lat="44.8400754" lon="10.9570382"><ele>23.0</ele><time>2026-04-06T08:25:54.476Z</time></trkpt><trkpt lat="44.8401272" lon="10.9571266"><ele>23.0</ele><time>2026-04-06T08:25:55.477Z</time></trkpt><trkpt lat="44.8401712" lon="10.957219"><ele>23.0</ele><time>2026-04-06T08:25:56.476Z</time></trkpt><trkpt lat="44.8402167" lon="10.9573204"><ele>23.0</ele><time>2026-04-06T08:25:57.477Z</time></trkpt><trkpt lat="44.8402626" lon="10.9574315"><ele>23.0</ele><time>2026-04-06T08:25:58.477Z</time></trkpt><trkpt lat="44.8403112" lon="10.957544"><ele>23.0</ele><time>2026-04-06T08:25:59.477Z</time></trkpt><trkpt lat="44.8403608" lon="10.9576667"><ele>23.0</ele><time>2026-04-06T08:26:00.476Z</time></trkpt><trkpt lat="44.8404055" lon="10.9577714"><ele>23.0</ele><time>2026-04-06T08:26:01.477Z</time></trkpt><trkpt lat="44.84045" lon="10.9578752"><ele>23.0</ele><time>2026-04-06T08:26:02.476Z</time></trkpt><trkpt lat="44.8405013" lon="10.9579725"><ele>23.0</ele><time>2026-04-06T08:26:03.477Z</time></trkpt><trkpt lat="44.8405587" lon="10.9580747"><ele>23.0</ele><time>2026-04-06T08:26:04.477Z</time></trkpt><trkpt lat="44.8406311" lon="10.9581563"><ele>23.0</ele><time>2026-04-06T08:26:05.477Z</time></trkpt><trkpt lat="44.8407058" lon="10.9582399"><ele>23.0</ele><time>2026-04-06T08:26:06.476Z</time></trkpt><trkpt lat="44.8407847" lon="10.9583204"><ele>23.0</ele><time>2026-04-06T08:26:07.476Z</time></trkpt><trkpt lat="44.8408454" lon="10.9584157"><ele>23.0</ele><time>2026-04-06T08:26:08.476Z</time></trkpt><trkpt lat="44.8408948" lon="10.9585141"><ele>23.0</ele><time>2026-04-06T08:26:09.478Z</time></trkpt><trkpt lat="44.8409524" lon="10.9586118"><ele>23.0</ele><time>2026-04-06T08:26:10.475Z</time></trkpt><trkpt lat="44.8410191" lon="10.9587043"><ele>23.333333333333336</ele><time>2026-04-06T08:26:11.476Z</time></trkpt><trkpt lat="44.8410927" lon="10.9587919"><ele>23.666666666666668</ele><time>2026-04-06T08:26:12.476Z</time></trkpt><trkpt lat="44.8411705" lon="10.9588701"><ele>24.0</ele><time>2026-04-06T08:26:13.477Z</time></trkpt><trkpt lat="44.8412427" lon="10.9589413"><ele>24.333333333333336</ele><time>2026-04-06T08:26:14.478Z</time></trkpt><trkpt lat="44.8413063" lon="10.9590041"><ele>24.666666666666668</ele><time>2026-04-06T08:26:15.476Z</time></trkpt><trkpt lat="44.8413598" lon="10.9590546"><ele>25.0</ele><time>2026-04-06T08:26:16.477Z</time></trkpt><trkpt lat="44.841448" lon="10.9591437"><ele>25.000000000000004</ele><time>2026-04-06T08:26:18.476Z</time></trkpt><trkpt lat="44.8415589" lon="10.9592429"><ele>25.0</ele><time>2026-04-06T08:26:20.476Z</time></trkpt><trkpt lat="44.8416243" lon="10.9592924"><ele>25.0</ele><time>2026-04-06T08:26:21.477Z</time></trkpt><trkpt lat="44.8416937" lon="10.9593335"><ele>25.0</ele><time>2026-04-06T08:26:22.477Z</time></trkpt><trkpt lat="44.8417664" lon="10.9593789"><ele>25.000000000000004</ele><time>2026-04-06T08:26:23.476Z</time></trkpt><trkpt lat="44.8418383" lon="10.9594211"><ele>25.0</ele><time>2026-04-06T08:26:24.476Z</time></trkpt><trkpt lat="44.8419094" lon="10.9594674"><ele>25.000000000000004</ele><time>2026-04-06T08:26:25.477Z</time></trkpt><trkpt lat="44.8419852" lon="10.9595177"><ele>25.0</ele><time>2026-04-06T08:26:26.477Z</time></trkpt><trkpt lat="44.8420543" lon="10.9595818"><ele>25.0</ele><time>2026-04-06T08:26:27.477Z</time></trkpt><trkpt lat="44.8421232" lon="10.9596559"><ele>25.0</ele><time>2026-04-06T08:26:28.477Z</time></trkpt><trkpt lat="44.8421997" lon="10.9597332"><ele>25.000000000000004</ele><time>2026-04-06T08:26:29.477Z</time></trkpt><trkpt lat="44.8422817" lon="10.9598127"><ele>25.0</ele><time>2026-04-06T08:26:30.476Z</time></trkpt><trkpt lat="44.8423666" lon="10.959886"><ele>25.0</ele><time>2026-04-06T08:26:31.476Z</time></trkpt><trkpt lat="44.8424505" lon="10.9599617"><ele>25.0</ele><time>2026-04-06T08:26:32.477Z</time></trkpt><trkpt lat="44.8425283" lon="10.9600448"><ele>25.0</ele><time>2026-04-06T08:26:33.478Z</time></trkpt><trkpt lat="44.8426063" lon="10.9601272"><ele>25.0</ele><time>2026-04-06T08:26:34.477Z</time></trkpt><trkpt lat="44.8426769" lon="10.9602169"><ele>25.0</ele><time>2026-04-06T08:26:35.476Z</time></trkpt><trkpt lat="44.8427434" lon="10.9603087"><ele>24.8</ele><time>2026-04-06T08:26:36.478Z</time></trkpt><trkpt lat="44.8428016" lon="10.9604125"><ele>24.6</ele><time>2026-04-06T08:26:37.476Z</time></trkpt><trkpt lat="44.8428444" lon="10.9605256"><ele>24.4</ele><time>2026-04-06T08:26:38.476Z</time></trkpt><trkpt lat="44.8428696" lon="10.9606511"><ele>24.2</ele><time>2026-04-06T08:26:39.477Z</time></trkpt><trkpt lat="44.842884" lon="10.9607806"><ele>24.0</ele><time>2026-04-06T08:26:40.477Z</time></trkpt><trkpt lat="44.8429063" lon="10.9609114"><ele>24.5</ele><time>2026-04-06T08:26:41.476Z</time></trkpt><trkpt lat="44.8429254" lon="10.9610323"><ele>25.0</ele><time>2026-04-06T08:26:42.477Z</time></trkpt><trkpt lat="44.842964" lon="10.9611405"><ele>25.5</ele><time>2026-04-06T08:26:43.476Z</time></trkpt><trkpt lat="44.8430106" lon="10.9612392"><ele>26.0</ele><time>2026-04-06T08:26:44.477Z</time></trkpt><trkpt lat="44.843065" lon="10.9613317"><ele>26.5</ele><time>2026-04-06T08:26:45.476Z</time></trkpt><trkpt lat="44.8431278" lon="10.9614195"><ele>27.0</ele><time>2026-04-06T08:26:46.476Z</time></trkpt><trkpt lat="44.8431917" lon="10.961515"><ele>27.0</ele><time>2026-04-06T08:26:47.477Z</time></trkpt><trkpt lat="44.8432594" lon="10.9616074"><ele>27.000000000000004</ele><time>2026-04-06T08:26:48.477Z</time></trkpt><trkpt lat="44.8433339" lon="10.9616901"><ele>27.000000000000004</ele><time>2026-04-06T08:26:49.477Z</time></trkpt><trkpt lat="44.8434103" lon="10.9617755"><ele>27.0</ele><time>2026-04-06T08:26:50.476Z</time></trkpt><trkpt lat="44.8434865" lon="10.9618473"><ele>27.0</ele><time>2026-04-06T08:26:51.476Z</time></trkpt><trkpt lat="44.8435514" lon="10.961909"><ele>27.200000000000003</ele><time>2026-04-06T08:26:52.477Z</time></trkpt><trkpt lat="44.8436551" lon="10.9619759"><ele>27.400000000000002</ele><time>2026-04-06T08:26:54.476Z</time></trkpt><trkpt lat="44.8437692" lon="10.9620418"><ele>27.599999999999998</ele><time>2026-04-06T08:26:56.477Z</time></trkpt><trkpt lat="44.8438401" lon="10.9620812"><ele>27.799999999999997</ele><time>2026-04-06T08:26:57.478Z</time></trkpt><trkpt lat="44.8439121" lon="10.9621305"><ele>28.0</ele><time>2026-04-06T08:26:58.476Z</time></trkpt><trkpt lat="44.8439924" lon="10.9621835"><ele>28.0</ele><time>2026-04-06T08:26:59.476Z</time></trkpt><trkpt lat="44.8440747" lon="10.9622369"><ele>27.999999999999996</ele><time>2026-04-06T08:27:00.477Z</time></trkpt><trkpt lat="44.8441631" lon="10.9622862"><ele>27.999999999999996</ele><time>2026-04-06T08:27:01.477Z</time></trkpt><trkpt lat="44.8442482" lon="10.9623236"><ele>28.0</ele><time>2026-04-06T08:27:02.476Z</time></trkpt><trkpt lat="44.8443352" lon="10.9623656"><ele>28.0</ele><time>2026-04-06T08:27:03.476Z</time></trkpt><trkpt lat="44.8444174" lon="10.9624141"><ele>27.333333333333336</ele><time>2026-04-06T08:27:04.478Z</time></trkpt><trkpt lat="44.8445049" lon="10.9624743"><ele>26.666666666666668</ele><time>2026-04-06T08:27:05.477Z</time></trkpt><trkpt lat="44.8445852" lon="10.9625471"><ele>26.0</ele><time>2026-04-06T08:27:06.476Z</time></trkpt><trkpt lat="44.8446583" lon="10.9626136"><ele>25.333333333333336</ele><time>2026-04-06T08:27:07.477Z</time></trkpt><trkpt lat="44.8447323" lon="10.9626768"><ele>24.666666666666668</ele><time>2026-04-06T08:27:08.477Z</time></trkpt><trkpt lat="44.8448015" lon="10.9627347"><ele>24.0</ele><time>2026-04-06T08:27:09.477Z</time></trkpt><trkpt lat="44.8448723" lon="10.9628021"><ele>24.0</ele><time>2026-04-06T08:27:10.476Z</time></trkpt><trkpt lat="44.8449488" lon="10.9628684"><ele>24.0</ele><time>2026-04-06T08:27:11.476Z</time></trkpt><trkpt lat="44.8450242" lon="10.9629317"><ele>24.0</ele><time>2026-04-06T08:27:12.477Z</time></trkpt><trkpt lat="44.8450854" lon="10.9629846"><ele>24.0</ele><time>2026-04-06T08:27:13.477Z</time></trkpt><trkpt lat="44.8451898" lon="10.9630378"><ele>24.0</ele><time>2026-04-06T08:27:15.476Z</time></trkpt><trkpt lat="44.8453063" lon="10.9631049"><ele>23.666666666666668</ele><time>2026-04-06T08:27:17.477Z</time></trkpt><trkpt lat="44.8453697" lon="10.9631529"><ele>23.333333333333332</ele><time>2026-04-06T08:27:18.476Z</time></trkpt><trkpt lat="44.8454421" lon="10.9631953"><ele>23.0</ele><time>2026-04-06T08:27:19.476Z</time></trkpt><trkpt lat="44.8455189" lon="10.9632375"><ele>22.666666666666664</ele><time>2026-04-06T08:27:20.476Z</time></trkpt><trkpt lat="44.8455959" lon="10.9632715"><ele>22.333333333333332</ele><time>2026-04-06T08:27:21.476Z</time></trkpt><trkpt lat="44.8456724" lon="10.9633028"><ele>22.0</ele><time>2026-04-06T08:27:22.476Z</time></trkpt><trkpt lat="44.8457552" lon="10.9633333"><ele>22.0</ele><time>2026-04-06T08:27:23.476Z</time></trkpt><trkpt lat="44.8458396" lon="10.9633548"><ele>22.0</ele><time>2026-04-06T08:27:24.477Z</time></trkpt><trkpt lat="44.8459184" lon="10.9633648"><ele>22.0</ele><time>2026-04-06T08:27:25.477Z</time></trkpt><trkpt lat="44.8459946" lon="10.9633698"><ele>22.0</ele><time>2026-04-06T08:27:26.476Z</time></trkpt><trkpt lat="44.8460714" lon="10.9633648"><ele>22.0</ele><time>2026-04-06T08:27:27.477Z</time></trkpt><trkpt lat="44.8461529" lon="10.9633522"><ele>22.0</ele><time>2026-04-06T08:27:28.477Z</time></trkpt><trkpt lat="44.8462344" lon="10.9633307"><ele>22.166666666666664</ele><time>2026-04-06T08:27:29.477Z</time></trkpt><trkpt lat="44.846318" lon="10.9633069"><ele>22.333333333333332</ele><time>2026-04-06T08:27:30.477Z</time></trkpt><trkpt lat="44.8463993" lon="10.9632843"><ele>22.5</ele><time>2026-04-06T08:27:31.477Z</time></trkpt><trkpt lat="44.8464811" lon="10.9632541"><ele>22.666666666666668</ele><time>2026-04-06T08:27:32.477Z</time></trkpt><trkpt lat="44.8465668" lon="10.9632308"><ele>22.833333333333336</ele><time>2026-04-06T08:27:33.476Z</time></trkpt><trkpt lat="44.846655" lon="10.9632063"><ele>23.0</ele><time>2026-04-06T08:27:34.476Z</time></trkpt><trkpt lat="44.8467419" lon="10.9631786"><ele>23.166666666666668</ele><time>2026-04-06T08:27:35.476Z</time></trkpt><trkpt lat="44.8468294" lon="10.9631463"><ele>23.333333333333336</ele><time>2026-04-06T08:27:36.476Z</time></trkpt><trkpt lat="44.8469143" lon="10.963117"><ele>23.5</ele><time>2026-04-06T08:27:37.476Z</time></trkpt><trkpt lat="44.8469956" lon="10.9630911"><ele>23.666666666666668</ele><time>2026-04-06T08:27:38.477Z</time></trkpt><trkpt lat="44.8470786" lon="10.9630591"><ele>23.833333333333332</ele><time>2026-04-06T08:27:39.477Z</time></trkpt><trkpt lat="44.8471607" lon="10.9630336"><ele>24.0</ele><time>2026-04-06T08:27:40.477Z</time></trkpt><trkpt lat="44.8472453" lon="10.9630117"><ele>24.0</ele><time>2026-04-06T08:27:41.477Z</time></trkpt><trkpt lat="44.847327" lon="10.9629937"><ele>24.0</ele><time>2026-04-06T08:27:42.476Z</time></trkpt><trkpt lat="44.84741" lon="10.96297"><ele>24.0</ele><time>2026-04-06T08:27:43.476Z</time></trkpt><trkpt lat="44.847492" lon="10.9629424"><ele>24.0</ele><time>2026-04-06T08:27:44.476Z</time></trkpt><trkpt lat="44.8475728" lon="10.9629127"><ele>24.0</ele><time>2026-04-06T08:27:45.477Z</time></trkpt><trkpt lat="44.8476527" lon="10.96289"><ele>24.0</ele><time>2026-04-06T08:27:46.477Z</time></trkpt><trkpt lat="44.84773" lon="10.962872"><ele>24.0</ele><time>2026-04-06T08:27:47.476Z</time></trkpt><trkpt lat="44.8478132" lon="10.9628676"><ele>24.0</ele><time>2026-04-06T08:27:48.476Z</time></trkpt><trkpt lat="44.8478968" lon="10.9628644"><ele>24.0</ele><time>2026-04-06T08:27:49.476Z</time></trkpt><trkpt lat="44.8479775" lon="10.962867"><ele>24.0</ele><time>2026-04-06T08:27:50.476Z</time></trkpt><trkpt lat="44.8480623" lon="10.962887"><ele>24.0</ele><time>2026-04-06T08:27:51.477Z</time></trkpt><trkpt lat="44.8481424" lon="10.9629048"><ele>24.0</ele><time>2026-04-06T08:27:52.476Z</time></trkpt><trkpt lat="44.8482267" lon="10.9629281"><ele>24.0</ele><time>2026-04-06T08:27:53.477Z</time></trkpt><trkpt lat="44.8483101" lon="10.9629586"><ele>24.0</ele><time>2026-04-06T08:27:54.476Z</time></trkpt><trkpt lat="44.8483956" lon="10.9629864"><ele>24.0</ele><time>2026-04-06T08:27:55.476Z</time></trkpt><trkpt lat="44.8484787" lon="10.9630024"><ele>24.0</ele><time>2026-04-06T08:27:56.476Z</time></trkpt><trkpt lat="44.8485591" lon="10.9630201"><ele>24.0</ele><time>2026-04-06T08:27:57.476Z</time></trkpt><trkpt lat="44.8486469" lon="10.9630214"><ele>24.0</ele><time>2026-04-06T08:27:58.476Z</time></trkpt><trkpt lat="44.848732" lon="10.9630156"><ele>24.166666666666668</ele><time>2026-04-06T08:27:59.476Z</time></trkpt><trkpt lat="44.8488184" lon="10.9629984"><ele>24.333333333333336</ele><time>2026-04-06T08:28:00.477Z</time></trkpt><trkpt lat="44.8489055" lon="10.962986"><ele>24.5</ele><time>2026-04-06T08:28:01.476Z</time></trkpt><trkpt lat="44.8489896" lon="10.9629691"><ele>24.666666666666668</ele><time>2026-04-06T08:28:02.476Z</time></trkpt><trkpt lat="44.8490801" lon="10.9629637"><ele>24.833333333333336</ele><time>2026-04-06T08:28:03.478Z</time></trkpt><trkpt lat="44.84916" lon="10.9629725"><ele>25.0</ele><time>2026-04-06T08:28:04.477Z</time></trkpt><trkpt lat="44.8492323" lon="10.9629965"><ele>24.8</ele><time>2026-04-06T08:28:05.476Z</time></trkpt><trkpt lat="44.849301" lon="10.9630326"><ele>24.6</ele><time>2026-04-06T08:28:06.476Z</time></trkpt><trkpt lat="44.8493613" lon="10.9630643"><ele>24.4</ele><time>2026-04-06T08:28:07.476Z</time></trkpt><trkpt lat="44.8494506" lon="10.9631599"><ele>24.2</ele><time>2026-04-06T08:28:09.476Z</time></trkpt><trkpt lat="44.8495294" lon="10.963256"><ele>24.0</ele><time>2026-04-06T08:28:11.477Z</time></trkpt><trkpt lat="44.849604" lon="10.9633473"><ele>24.166666666666668</ele><time>2026-04-06T08:28:13.477Z</time></trkpt><trkpt lat="44.8496717" lon="10.9634297"><ele>24.333333333333336</ele><time>2026-04-06T08:28:15.476Z</time></trkpt><trkpt lat="44.8497311" lon="10.9634993"><ele>24.5</ele><time>2026-04-06T08:28:17.476Z</time></trkpt><trkpt lat="44.849793" lon="10.9635721"><ele>24.666666666666668</ele><time>2026-04-06T08:28:19.476Z</time></trkpt><trkpt lat="44.8498658" lon="10.9636297"><ele>24.833333333333336</ele><time>2026-04-06T08:28:21.476Z</time></trkpt><trkpt lat="44.8499391" lon="10.9636779"><ele>25.0</ele><time>2026-04-06T08:28:23.477Z</time></trkpt><trkpt lat="44.8500412" lon="10.9637285"><ele>24.833333333333336</ele><time>2026-04-06T08:28:25.477Z</time></trkpt><trkpt lat="44.850145" lon="10.9637843"><ele>24.666666666666668</ele><time>2026-04-06T08:28:27.478Z</time></trkpt><trkpt lat="44.8502121" lon="10.9638199"><ele>24.5</ele><time>2026-04-06T08:28:28.476Z</time></trkpt><trkpt lat="44.8502862" lon="10.9638545"><ele>24.333333333333336</ele><time>2026-04-06T08:28:29.476Z</time></trkpt><trkpt lat="44.8503592" lon="10.9638962"><ele>24.166666666666668</ele><time>2026-04-06T08:28:30.476Z</time></trkpt><trkpt lat="44.8504303" lon="10.9639465"><ele>24.0</ele><time>2026-04-06T08:28:31.476Z</time></trkpt><trkpt lat="44.8504973" lon="10.9640017"><ele>24.0</ele><time>2026-04-06T08:28:32.476Z</time></trkpt><trkpt lat="44.8505624" lon="10.9640587"><ele>24.0</ele><time>2026-04-06T08:28:33.477Z</time></trkpt><trkpt lat="44.850624" lon="10.9641275"><ele>24.0</ele><time>2026-04-06T08:28:34.477Z</time></trkpt><trkpt lat="44.8506813" lon="10.964203"><ele>24.0</ele><time>2026-04-06T08:28:35.476Z</time></trkpt><trkpt lat="44.8507387" lon="10.9642841"><ele>24.0</ele><time>2026-04-06T08:28:36.477Z</time></trkpt><trkpt lat="44.8507914" lon="10.9643697"><ele>24.0</ele><time>2026-04-06T08:28:37.477Z</time></trkpt><trkpt lat="44.8508414" lon="10.9644643"><ele>24.166666666666668</ele><time>2026-04-06T08:28:38.477Z</time></trkpt><trkpt lat="44.8508869" lon="10.9645638"><ele>24.333333333333336</ele><time>2026-04-06T08:28:39.476Z</time></trkpt><trkpt lat="44.850928" lon="10.9646712"><ele>24.5</ele><time>2026-04-06T08:28:40.476Z</time></trkpt><trkpt lat="44.850968" lon="10.9647798"><ele>24.666666666666668</ele><time>2026-04-06T08:28:41.476Z</time></trkpt><trkpt lat="44.8510065" lon="10.9648835"><ele>24.833333333333336</ele><time>2026-04-06T08:28:42.476Z</time></trkpt><trkpt lat="44.8510425" lon="10.9649907"><ele>25.0</ele><time>2026-04-06T08:28:43.477Z</time></trkpt><trkpt lat="44.8510805" lon="10.9651031"><ele>24.166666666666668</ele><time>2026-04-06T08:28:44.477Z</time></trkpt><trkpt lat="44.8511098" lon="10.965214"><ele>23.333333333333336</ele><time>2026-04-06T08:28:45.476Z</time></trkpt><trkpt lat="44.8511395" lon="10.9653236"><ele>22.5</ele><time>2026-04-06T08:28:46.477Z</time></trkpt><trkpt lat="44.8511694" lon="10.965438"><ele>21.666666666666668</ele><time>2026-04-06T08:28:47.476Z</time></trkpt><trkpt lat="44.851207" lon="10.9655552"><ele>20.833333333333336</ele><time>2026-04-06T08:28:48.477Z</time></trkpt><trkpt lat="44.8512434" lon="10.9656779"><ele>20.0</ele><time>2026-04-06T08:28:49.477Z</time></trkpt><trkpt lat="44.8512774" lon="10.9658012"><ele>20.4</ele><time>2026-04-06T08:28:50.476Z</time></trkpt><trkpt lat="44.8513096" lon="10.9659231"><ele>20.8</ele><time>2026-04-06T08:28:51.477Z</time></trkpt><trkpt lat="44.8513459" lon="10.9660499"><ele>21.200000000000003</ele><time>2026-04-06T08:28:52.477Z</time></trkpt><trkpt lat="44.8513853" lon="10.9661819"><ele>21.6</ele><time>2026-04-06T08:28:53.476Z</time></trkpt><trkpt lat="44.851424" lon="10.9663116"><ele>22.0</ele><time>2026-04-06T08:28:54.476Z</time></trkpt><trkpt lat="44.8514502" lon="10.9664327"><ele>22.0</ele><time>2026-04-06T08:28:55.476Z</time></trkpt><trkpt lat="44.8514822" lon="10.9665394"><ele>22.0</ele><time>2026-04-06T08:28:56.476Z</time></trkpt><trkpt lat="44.8515172" lon="10.966649"><ele>22.0</ele><time>2026-04-06T08:28:57.477Z</time></trkpt><trkpt lat="44.8515435" lon="10.9667526"><ele>22.0</ele><time>2026-04-06T08:28:58.477Z</time></trkpt><trkpt lat="44.8515704" lon="10.9668561"><ele>22.0</ele><time>2026-04-06T08:28:59.477Z</time></trkpt><trkpt lat="44.8515955" lon="10.9669472"><ele>22.0</ele><time>2026-04-06T08:29:00.477Z</time></trkpt><trkpt lat="44.8516449" lon="10.9670906"><ele>22.333333333333332</ele><time>2026-04-06T08:29:02.477Z</time></trkpt><trkpt lat="44.8516998" lon="10.96722"><ele>22.666666666666664</ele><time>2026-04-06T08:29:04.477Z</time></trkpt><trkpt lat="44.8517446" lon="10.9672844"><ele>23.0</ele><time>2026-04-06T08:29:05.477Z</time></trkpt><trkpt lat="44.8517991" lon="10.9673514"><ele>23.333333333333332</ele><time>2026-04-06T08:29:06.476Z</time></trkpt><trkpt lat="44.8518603" lon="10.967418"><ele>23.666666666666668</ele><time>2026-04-06T08:29:07.477Z</time></trkpt><trkpt lat="44.8519326" lon="10.9674818"><ele>24.0</ele><time>2026-04-06T08:29:08.477Z</time></trkpt><trkpt lat="44.8520189" lon="10.96754"><ele>24.0</ele><time>2026-04-06T08:29:09.477Z</time></trkpt><trkpt lat="44.8521173" lon="10.9676065"><ele>24.0</ele><time>2026-04-06T08:29:10.477Z</time></trkpt><trkpt lat="44.8522237" lon="10.9676779"><ele>24.0</ele><time>2026-04-06T08:29:11.476Z</time></trkpt><trkpt lat="44.8523401" lon="10.9677563"><ele>24.0</ele><time>2026-04-06T08:29:12.476Z</time></trkpt><trkpt lat="44.8524472" lon="10.9678237"><ele>24.0</ele><time>2026-04-06T08:29:13.476Z</time></trkpt><trkpt lat="44.8525461" lon="10.9678866"><ele>24.0</ele><time>2026-04-06T08:29:14.476Z</time></trkpt><trkpt lat="44.85265" lon="10.9679502"><ele>24.0</ele><time>2026-04-06T08:29:15.476Z</time></trkpt><trkpt lat="44.8527638" lon="10.9680208"><ele>24.0</ele><time>2026-04-06T08:29:16.477Z</time></trkpt><trkpt lat="44.8528915" lon="10.9680914"><ele>23.75</ele><time>2026-04-06T08:29:17.476Z</time></trkpt><trkpt lat="44.8530188" lon="10.9681519"><ele>23.5</ele><time>2026-04-06T08:29:18.477Z</time></trkpt><trkpt lat="44.8531322" lon="10.9682016"><ele>23.25</ele><time>2026-04-06T08:29:19.476Z</time></trkpt><trkpt lat="44.8532442" lon="10.9682525"><ele>23.0</ele><time>2026-04-06T08:29:20.476Z</time></trkpt><trkpt lat="44.8533659" lon="10.9683082"><ele>23.5</ele><time>2026-04-06T08:29:21.477Z</time></trkpt><trkpt lat="44.8534903" lon="10.9683674"><ele>24.0</ele><time>2026-04-06T08:29:22.477Z</time></trkpt><trkpt lat="44.8536236" lon="10.9684272"><ele>24.5</ele><time>2026-04-06T08:29:23.477Z</time></trkpt><trkpt lat="44.8537496" lon="10.9684805"><ele>25.0</ele><time>2026-04-06T08:29:24.476Z</time></trkpt><trkpt lat="44.8538665" lon="10.9685277"><ele>25.0</ele><time>2026-04-06T08:29:25.477Z</time></trkpt><trkpt lat="44.8539736" lon="10.9685794"><ele>25.0</ele><time>2026-04-06T08:29:26.477Z</time></trkpt><trkpt lat="44.8540765" lon="10.9686242"><ele>25.0</ele><time>2026-04-06T08:29:27.476Z</time></trkpt><trkpt lat="44.8541721" lon="10.96867"><ele>25.0</ele><time>2026-04-06T08:29:28.476Z</time></trkpt><trkpt lat="44.854264" lon="10.9687029"><ele>25.0</ele><time>2026-04-06T08:29:29.477Z</time></trkpt><trkpt lat="44.8543529" lon="10.9687241"><ele>25.000000000000004</ele><time>2026-04-06T08:29:30.477Z</time></trkpt><trkpt lat="44.8544369" lon="10.9687377"><ele>25.0</ele><time>2026-04-06T08:29:31.477Z</time></trkpt><trkpt lat="44.8545186" lon="10.968729"><ele>25.0</ele><time>2026-04-06T08:29:32.477Z</time></trkpt><trkpt lat="44.8546043" lon="10.9687076"><ele>25.0</ele><time>2026-04-06T08:29:33.476Z</time></trkpt><trkpt lat="44.8546893" lon="10.9686845"><ele>25.000000000000004</ele><time>2026-04-06T08:29:34.477Z</time></trkpt><trkpt lat="44.8547602" lon="10.9686567"><ele>25.0</ele><time>2026-04-06T08:29:35.478Z</time></trkpt><trkpt lat="44.8548625" lon="10.9685544"><ele>25.000000000000004</ele><time>2026-04-06T08:29:37.477Z</time></trkpt><trkpt lat="44.8549072" lon="10.9684654"><ele>25.0</ele><time>2026-04-06T08:29:38.476Z</time></trkpt><trkpt lat="44.8549483" lon="10.9683584"><ele>25.0</ele><time>2026-04-06T08:29:39.477Z</time></trkpt><trkpt lat="44.8549882" lon="10.9682444"><ele>25.0</ele><time>2026-04-06T08:29:40.477Z</time></trkpt><trkpt lat="44.855032" lon="10.9681249"><ele>25.000000000000004</ele><time>2026-04-06T08:29:41.477Z</time></trkpt><trkpt lat="44.8550756" lon="10.9679996"><ele>25.0</ele><time>2026-04-06T08:29:42.476Z</time></trkpt><trkpt lat="44.8551188" lon="10.9678854"><ele>25.0</ele><time>2026-04-06T08:29:43.477Z</time></trkpt><trkpt lat="44.855156" lon="10.9677696"><ele>25.0</ele><time>2026-04-06T08:29:44.476Z</time></trkpt><trkpt lat="44.8551839" lon="10.9676549"><ele>25.0</ele><time>2026-04-06T08:29:45.477Z</time></trkpt><trkpt lat="44.8552059" lon="10.9675254"><ele>25.0</ele><time>2026-04-06T08:29:46.477Z</time></trkpt><trkpt lat="44.8552231" lon="10.9673845"><ele>25.0</ele><time>2026-04-06T08:29:47.476Z</time></trkpt><trkpt lat="44.8552373" lon="10.9672416"><ele>25.000000000000004</ele><time>2026-04-06T08:29:48.477Z</time></trkpt><trkpt lat="44.8552569" lon="10.9670993"><ele>25.0</ele><time>2026-04-06T08:29:49.476Z</time></trkpt><trkpt lat="44.855274" lon="10.9669707"><ele>25.0</ele><time>2026-04-06T08:29:50.476Z</time></trkpt><trkpt lat="44.8552817" lon="10.9668581"><ele>25.0</ele><time>2026-04-06T08:29:51.478Z</time></trkpt><trkpt lat="44.8552844" lon="10.9667501"><ele>25.000000000000004</ele><time>2026-04-06T08:29:52.476Z</time></trkpt><trkpt lat="44.855277" lon="10.9666559"><ele>25.0</ele><time>2026-04-06T08:29:53.477Z</time></trkpt><trkpt lat="44.8552088" lon="10.9665016"><ele>24.833333333333336</ele><time>2026-04-06T08:29:55.477Z</time></trkpt><trkpt lat="44.8551454" lon="10.9664312"><ele>24.666666666666668</ele><time>2026-04-06T08:29:56.476Z</time></trkpt><trkpt lat="44.8550854" lon="10.9663683"><ele>24.5</ele><time>2026-04-06T08:29:57.476Z</time></trkpt><trkpt lat="44.8550198" lon="10.96625"><ele>24.333333333333336</ele><time>2026-04-06T08:29:59.476Z</time></trkpt><trkpt lat="44.8550177" lon="10.9661286"><ele>24.166666666666668</ele><time>2026-04-06T08:30:01.476Z</time></trkpt><trkpt lat="44.8550294" lon="10.9660331"><ele>24.0</ele><time>2026-04-06T08:30:03.476Z</time></trkpt><trkpt lat="44.8550517" lon="10.9659344"><ele>24.166666666666668</ele><time>2026-04-06T08:30:05.476Z</time></trkpt><trkpt lat="44.8550685" lon="10.9658388"><ele>24.333333333333336</ele><time>2026-04-06T08:30:07.477Z</time></trkpt><trkpt lat="44.855085" lon="10.9657336"><ele>24.5</ele><time>2026-04-06T08:30:09.477Z</time></trkpt><trkpt lat="44.8550684" lon="10.9656295"><ele>24.666666666666668</ele><time>2026-04-06T08:30:12.477Z</time></trkpt><trkpt lat="44.8550449" lon="10.9655364"><ele>24.833333333333336</ele><time>2026-04-06T08:30:15.477Z</time></trkpt><trkpt lat="44.8550599" lon="10.9654408"><ele>25.0</ele><time>2026-04-06T08:30:22.477Z</time></trkpt><trkpt lat="44.8551748" lon="10.9654727"><ele>25.4</ele><time>2026-04-06T08:30:24.477Z</time></trkpt><trkpt lat="44.8552429" lon="10.9655089"><ele>25.8</ele><time>2026-04-06T08:30:25.477Z</time></trkpt><trkpt lat="44.8553231" lon="10.9655333"><ele>26.200000000000003</ele><time>2026-04-06T08:30:26.477Z</time></trkpt><trkpt lat="44.8554166" lon="10.9655296"><ele>26.6</ele><time>2026-04-06T08:30:27.477Z</time></trkpt><trkpt lat="44.8555283" lon="10.965502"><ele>27.0</ele><time>2026-04-06T08:30:28.476Z</time></trkpt><trkpt lat="44.855648" lon="10.9654646"><ele>27.0</ele><time>2026-04-06T08:30:29.478Z</time></trkpt><trkpt lat="44.8557746" lon="10.9654153"><ele>27.0</ele><time>2026-04-06T08:30:30.477Z</time></trkpt><trkpt lat="44.855906" lon="10.9653674"><ele>27.0</ele><time>2026-04-06T08:30:31.476Z</time></trkpt><trkpt lat="44.8560387" lon="10.9653083"><ele>27.0</ele><time>2026-04-06T08:30:32.476Z</time></trkpt><trkpt lat="44.8561779" lon="10.965247"><ele>26.75</ele><time>2026-04-06T08:30:33.476Z</time></trkpt><trkpt lat="44.8563185" lon="10.9651814"><ele>26.5</ele><time>2026-04-06T08:30:34.476Z</time></trkpt><trkpt lat="44.8564626" lon="10.9651107"><ele>26.25</ele><time>2026-04-06T08:30:35.477Z</time></trkpt><trkpt lat="44.8565997" lon="10.9650503"><ele>26.0</ele><time>2026-04-06T08:30:36.477Z</time></trkpt><trkpt lat="44.8567262" lon="10.9649922"><ele>25.75</ele><time>2026-04-06T08:30:37.477Z</time></trkpt><trkpt lat="44.8568462" lon="10.9649397"><ele>25.5</ele><time>2026-04-06T08:30:38.476Z</time></trkpt><trkpt lat="44.8569563" lon="10.9648931"><ele>25.25</ele><time>2026-04-06T08:30:39.476Z</time></trkpt><trkpt lat="44.8570626" lon="10.9648514"><ele>25.0</ele><time>2026-04-06T08:30:40.476Z</time></trkpt><trkpt lat="44.8571604" lon="10.9648152"><ele>25.000000000000004</ele><time>2026-04-06T08:30:41.476Z</time></trkpt><trkpt lat="44.8572532" lon="10.9647899"><ele>25.0</ele><time>2026-04-06T08:30:42.476Z</time></trkpt><trkpt lat="44.8573462" lon="10.9647844"><ele>25.0</ele><time>2026-04-06T08:30:43.476Z</time></trkpt><trkpt lat="44.8574362" lon="10.9647912"><ele>25.0</ele><time>2026-04-06T08:30:44.477Z</time></trkpt><trkpt lat="44.8575177" lon="10.96482"><ele>25.000000000000004</ele><time>2026-04-06T08:30:45.476Z</time></trkpt><trkpt lat="44.8575952" lon="10.9648643"><ele>25.0</ele><time>2026-04-06T08:30:46.477Z</time></trkpt><trkpt lat="44.8576647" lon="10.9649078"><ele>25.166666666666668</ele><time>2026-04-06T08:30:47.476Z</time></trkpt><trkpt lat="44.8577389" lon="10.9649522"><ele>25.333333333333336</ele><time>2026-04-06T08:30:48.477Z</time></trkpt><trkpt lat="44.8578041" lon="10.9650028"><ele>25.5</ele><time>2026-04-06T08:30:49.476Z</time></trkpt><trkpt lat="44.8578777" lon="10.9650543"><ele>25.666666666666664</ele><time>2026-04-06T08:30:50.477Z</time></trkpt><trkpt lat="44.8579505" lon="10.9651064"><ele>25.833333333333332</ele><time>2026-04-06T08:30:51.477Z</time></trkpt><trkpt lat="44.8580298" lon="10.965164"><ele>26.0</ele><time>2026-04-06T08:30:52.477Z</time></trkpt><trkpt lat="44.85811" lon="10.9652188"><ele>26.166666666666664</ele><time>2026-04-06T08:30:53.477Z</time></trkpt><trkpt lat="44.8581956" lon="10.965268"><ele>26.333333333333332</ele><time>2026-04-06T08:30:54.476Z</time></trkpt><trkpt lat="44.8582753" lon="10.9653224"><ele>26.5</ele><time>2026-04-06T08:30:55.477Z</time></trkpt><trkpt lat="44.8583515" lon="10.9653707"><ele>26.666666666666664</ele><time>2026-04-06T08:30:56.476Z</time></trkpt><trkpt lat="44.8584197" lon="10.9654168"><ele>26.833333333333332</ele><time>2026-04-06T08:30:57.477Z</time></trkpt><trkpt lat="44.8584937" lon="10.9654699"><ele>27.0</ele><time>2026-04-06T08:30:58.476Z</time></trkpt><trkpt lat="44.858561" lon="10.9655205"><ele>27.0</ele><time>2026-04-06T08:30:59.477Z</time></trkpt><trkpt lat="44.8586305" lon="10.9655728"><ele>27.0</ele><time>2026-04-06T08:31:00.476Z</time></trkpt><trkpt lat="44.8587017" lon="10.965619"><ele>27.0</ele><time>2026-04-06T08:31:01.476Z</time></trkpt><trkpt lat="44.8587712" lon="10.9656632"><ele>27.0</ele><time>2026-04-06T08:31:02.476Z</time></trkpt><trkpt lat="44.8588357" lon="10.9657088"><ele>27.0</ele><time>2026-04-06T08:31:03.476Z</time></trkpt><trkpt lat="44.8589299" lon="10.9657924"><ele>27.0</ele><time>2026-04-06T08:31:05.477Z</time></trkpt><trkpt lat="44.8589412" lon="10.9658861"><ele>27.400000000000002</ele><time>2026-04-06T08:31:07.476Z</time></trkpt><trkpt lat="44.8588673" lon="10.9660296"><ele>27.800000000000004</ele><time>2026-04-06T08:31:09.476Z</time></trkpt><trkpt lat="44.858818" lon="10.9661283"><ele>28.2</ele><time>2026-04-06T08:31:10.477Z</time></trkpt><trkpt lat="44.8587677" lon="10.9662376"><ele>28.6</ele><time>2026-04-06T08:31:11.476Z</time></trkpt><trkpt lat="44.858712" lon="10.966355"><ele>29.0</ele><time>2026-04-06T08:31:12.476Z</time></trkpt><trkpt lat="44.8586527" lon="10.9664814"><ele>29.0</ele><time>2026-04-06T08:31:13.476Z</time></trkpt><trkpt lat="44.8585874" lon="10.9666251"><ele>29.0</ele><time>2026-04-06T08:31:14.476Z</time></trkpt><trkpt lat="44.8585132" lon="10.9667758"><ele>29.0</ele><time>2026-04-06T08:31:15.477Z</time></trkpt><trkpt lat="44.8584314" lon="10.9669503"><ele>29.0</ele><time>2026-04-06T08:31:16.476Z</time></trkpt><trkpt lat="44.8583458" lon="10.9671431"><ele>28.333333333333332</ele><time>2026-04-06T08:31:17.476Z</time></trkpt><trkpt lat="44.8582449" lon="10.9673691"><ele>27.666666666666664</ele><time>2026-04-06T08:31:18.476Z</time></trkpt><trkpt lat="44.8581294" lon="10.9676126"><ele>27.0</ele><time>2026-04-06T08:31:19.476Z</time></trkpt><trkpt lat="44.8580122" lon="10.9678649"><ele>27.0</ele><time>2026-04-06T08:31:20.477Z</time></trkpt><trkpt lat="44.8578963" lon="10.9681159"><ele>27.0</ele><time>2026-04-06T08:31:21.478Z</time></trkpt><trkpt lat="44.8577902" lon="10.9683563"><ele>27.0</ele><time>2026-04-06T08:31:22.476Z</time></trkpt><trkpt lat="44.8576978" lon="10.9685782"><ele>27.0</ele><time>2026-04-06T08:31:23.476Z</time></trkpt><trkpt lat="44.8576215" lon="10.9688001"><ele>27.0</ele><time>2026-04-06T08:31:24.476Z</time></trkpt><trkpt lat="44.857565" lon="10.9690139"><ele>27.0</ele><time>2026-04-06T08:31:25.476Z</time></trkpt><trkpt lat="44.8575126" lon="10.969231"><ele>27.0</ele><time>2026-04-06T08:31:26.477Z</time></trkpt><trkpt lat="44.8574593" lon="10.9694571"><ele>27.0</ele><time>2026-04-06T08:31:27.476Z</time></trkpt><trkpt lat="44.8574047" lon="10.9696645"><ele>27.0</ele><time>2026-04-06T08:31:28.477Z</time></trkpt><trkpt lat="44.8573359" lon="10.9698751"><ele>26.666666666666664</ele><time>2026-04-06T08:31:29.476Z</time></trkpt><trkpt lat="44.8572691" lon="10.9700631"><ele>26.333333333333332</ele><time>2026-04-06T08:31:30.476Z</time></trkpt><trkpt lat="44.8571892" lon="10.9702421"><ele>26.0</ele><time>2026-04-06T08:31:31.476Z</time></trkpt><trkpt lat="44.8571026" lon="10.9704187"><ele>26.0</ele><time>2026-04-06T08:31:32.477Z</time></trkpt><trkpt lat="44.8570091" lon="10.9705816"><ele>26.0</ele><time>2026-04-06T08:31:33.476Z</time></trkpt><trkpt lat="44.8569098" lon="10.9707333"><ele>26.0</ele><time>2026-04-06T08:31:34.476Z</time></trkpt><trkpt lat="44.8568025" lon="10.9708804"><ele>26.0</ele><time>2026-04-06T08:31:35.477Z</time></trkpt><trkpt lat="44.8566905" lon="10.9710255"><ele>25.25</ele><time>2026-04-06T08:31:36.477Z</time></trkpt><trkpt lat="44.8565866" lon="10.9711557"><ele>24.5</ele><time>2026-04-06T08:31:37.477Z</time></trkpt><trkpt lat="44.8564868" lon="10.971278"><ele>23.75</ele><time>2026-04-06T08:31:38.476Z</time></trkpt><trkpt lat="44.8564058" lon="10.9713859"><ele>23.0</ele><time>2026-04-06T08:31:39.477Z</time></trkpt><trkpt lat="44.8563318" lon="10.9715046"><ele>23.0</ele><time>2026-04-06T08:31:40.478Z</time></trkpt><trkpt lat="44.8562664" lon="10.9716378"><ele>23.0</ele><time>2026-04-06T08:31:41.476Z</time></trkpt><trkpt lat="44.856204" lon="10.9717781"><ele>23.0</ele><time>2026-04-06T08:31:42.477Z</time></trkpt><trkpt lat="44.8561384" lon="10.97193"><ele>23.0</ele><time>2026-04-06T08:31:43.476Z</time></trkpt><trkpt lat="44.8560687" lon="10.9720855"><ele>22.25</ele><time>2026-04-06T08:31:44.477Z</time></trkpt><trkpt lat="44.8559962" lon="10.9722534"><ele>21.5</ele><time>2026-04-06T08:31:45.476Z</time></trkpt><trkpt lat="44.8559248" lon="10.9724198"><ele>20.75</ele><time>2026-04-06T08:31:46.476Z</time></trkpt><trkpt lat="44.8558527" lon="10.9725914"><ele>20.0</ele><time>2026-04-06T08:31:47.477Z</time></trkpt><trkpt lat="44.8557763" lon="10.972774"><ele>19.0</ele><time>2026-04-06T08:31:48.476Z</time></trkpt><trkpt lat="44.8556954" lon="10.9729584"><ele>18.0</ele><time>2026-04-06T08:31:49.477Z</time></trkpt><trkpt lat="44.8556186" lon="10.9731382"><ele>17.0</ele><time>2026-04-06T08:31:50.476Z</time></trkpt><trkpt lat="44.8555374" lon="10.9733262"><ele>17.333333333333336</ele><time>2026-04-06T08:31:51.476Z</time></trkpt><trkpt lat="44.8554587" lon="10.9735132"><ele>17.666666666666668</ele><time>2026-04-06T08:31:52.476Z</time></trkpt><trkpt lat="44.8553791" lon="10.9736962"><ele>18.0</ele><time>2026-04-06T08:31:53.477Z</time></trkpt><trkpt lat="44.8553003" lon="10.9738816"><ele>18.0</ele><time>2026-04-06T08:31:54.476Z</time></trkpt><trkpt lat="44.8552237" lon="10.9740723"><ele>18.0</ele><time>2026-04-06T08:31:55.476Z</time></trkpt><trkpt lat="44.8551392" lon="10.9742649"><ele>18.0</ele><time>2026-04-06T08:31:56.476Z</time></trkpt><trkpt lat="44.8550562" lon="10.9744499"><ele>17.666666666666668</ele><time>2026-04-06T08:31:57.477Z</time></trkpt><trkpt lat="44.8549769" lon="10.9746304"><ele>17.333333333333336</ele><time>2026-04-06T08:31:58.476Z</time></trkpt><trkpt lat="44.8548976" lon="10.9748133"><ele>17.0</ele><time>2026-04-06T08:31:59.476Z</time></trkpt><trkpt lat="44.8548204" lon="10.9749961"><ele>17.0</ele><time>2026-04-06T08:32:00.476Z</time></trkpt><trkpt lat="44.854743" lon="10.9751782"><ele>17.0</ele><time>2026-04-06T08:32:01.476Z</time></trkpt><trkpt lat="44.8546655" lon="10.9753677"><ele>17.0</ele><time>2026-04-06T08:32:02.476Z</time></trkpt><trkpt lat="44.8545876" lon="10.9755437"><ele>17.0</ele><time>2026-04-06T08:32:03.476Z</time></trkpt><trkpt lat="44.8545184" lon="10.9757155"><ele>17.0</ele><time>2026-04-06T08:32:04.477Z</time></trkpt><trkpt lat="44.8544451" lon="10.9758816"><ele>17.0</ele><time>2026-04-06T08:32:05.476Z</time></trkpt><trkpt lat="44.8543782" lon="10.976039"><ele>17.0</ele><time>2026-04-06T08:32:06.478Z</time></trkpt><trkpt lat="44.8543077" lon="10.9761891"><ele>17.0</ele><time>2026-04-06T08:32:07.476Z</time></trkpt><trkpt lat="44.8542508" lon="10.9763311"><ele>17.0</ele><time>2026-04-06T08:32:08.477Z</time></trkpt><trkpt lat="44.8541943" lon="10.9764599"><ele>17.0</ele><time>2026-04-06T08:32:09.476Z</time></trkpt><trkpt lat="44.854137" lon="10.9765854"><ele>17.0</ele><time>2026-04-06T08:32:10.476Z</time></trkpt><trkpt lat="44.8540871" lon="10.9767008"><ele>17.0</ele><time>2026-04-06T08:32:11.476Z</time></trkpt><trkpt lat="44.8540448" lon="10.9768069"><ele>17.0</ele><time>2026-04-06T08:32:12.478Z</time></trkpt><trkpt lat="44.8539987" lon="10.9769108"><ele>17.0</ele><time>2026-04-06T08:32:13.476Z</time></trkpt><trkpt lat="44.8539563" lon="10.9770073"><ele>17.0</ele><time>2026-04-06T08:32:14.476Z</time></trkpt><trkpt lat="44.8539123" lon="10.9771082"><ele>17.0</ele><time>2026-04-06T08:32:15.476Z</time></trkpt><trkpt lat="44.8538641" lon="10.9772073"><ele>17.0</ele><time>2026-04-06T08:32:16.477Z</time></trkpt><trkpt lat="44.8538272" lon="10.9772946"><ele>17.0</ele><time>2026-04-06T08:32:17.476Z</time></trkpt><trkpt lat="44.8537987" lon="10.9774613"><ele>17.166666666666668</ele><time>2026-04-06T08:32:19.476Z</time></trkpt><trkpt lat="44.8538401" lon="10.9776157"><ele>17.333333333333336</ele><time>2026-04-06T08:32:21.477Z</time></trkpt><trkpt lat="44.8538827" lon="10.9776816"><ele>17.5</ele><time>2026-04-06T08:32:22.476Z</time></trkpt><trkpt lat="44.8539304" lon="10.977741"><ele>17.666666666666668</ele><time>2026-04-06T08:32:23.476Z</time></trkpt><trkpt lat="44.8539862" lon="10.9777962"><ele>17.833333333333332</ele><time>2026-04-06T08:32:24.476Z</time></trkpt><trkpt lat="44.8540504" lon="10.9778504"><ele>18.0</ele><time>2026-04-06T08:32:25.476Z</time></trkpt><trkpt lat="44.8541231" lon="10.9779051"><ele>18.0</ele><time>2026-04-06T08:32:26.477Z</time></trkpt><trkpt lat="44.8541969" lon="10.9779586"><ele>18.0</ele><time>2026-04-06T08:32:27.477Z</time></trkpt><trkpt lat="44.8542671" lon="10.9780241"><ele>18.0</ele><time>2026-04-06T08:32:28.475Z</time></trkpt><trkpt lat="44.8543395" lon="10.978078"><ele>18.0</ele><time>2026-04-06T08:32:29.478Z</time></trkpt><trkpt lat="44.8544165" lon="10.9781375"><ele>18.0</ele><time>2026-04-06T08:32:30.476Z</time></trkpt><trkpt lat="44.8544889" lon="10.9781939"><ele>18.0</ele><time>2026-04-06T08:32:31.476Z</time></trkpt><trkpt lat="44.8545613" lon="10.9782516"><ele>18.0</ele><time>2026-04-06T08:32:32.477Z</time></trkpt><trkpt lat="44.8546257" lon="10.9783024"><ele>18.0</ele><time>2026-04-06T08:32:33.476Z</time></trkpt><trkpt lat="44.8546921" lon="10.9783501"><ele>18.0</ele><time>2026-04-06T08:32:34.478Z</time></trkpt><trkpt lat="44.8547625" lon="10.9783955"><ele>18.0</ele><time>2026-04-06T08:32:35.476Z</time></trkpt><trkpt lat="44.8548592" lon="10.978481"><ele>18.0</ele><time>2026-04-06T08:32:37.477Z</time></trkpt><trkpt lat="44.8549336" lon="10.9785399"><ele>18.0</ele><time>2026-04-06T08:32:39.476Z</time></trkpt><trkpt lat="44.8549952" lon="10.9785926"><ele>18.2</ele><time>2026-04-06T08:32:41.476Z</time></trkpt><trkpt lat="44.8550682" lon="10.9786463"><ele>18.4</ele><time>2026-04-06T08:32:43.476Z</time></trkpt><trkpt lat="44.8551532" lon="10.9787175"><ele>18.599999999999998</ele><time>2026-04-06T08:32:45.476Z</time></trkpt><trkpt lat="44.8552444" lon="10.9787875"><ele>18.8</ele><time>2026-04-06T08:32:47.476Z</time></trkpt><trkpt lat="44.8553407" lon="10.9788698"><ele>19.0</ele><time>2026-04-06T08:32:49.475Z</time></trkpt><trkpt lat="44.8553928" lon="10.9789199"><ele>18.5</ele><time>2026-04-06T08:32:50.476Z</time></trkpt><trkpt lat="44.8554937" lon="10.9790012"><ele>18.0</ele><time>2026-04-06T08:32:52.476Z</time></trkpt><trkpt lat="44.8555892" lon="10.9790679"><ele>17.5</ele><time>2026-04-06T08:32:54.476Z</time></trkpt><trkpt lat="44.8556954" lon="10.9791474"><ele>17.0</ele><time>2026-04-06T08:32:56.475Z</time></trkpt><trkpt lat="44.8558012" lon="10.9792391"><ele>17.0</ele><time>2026-04-06T08:32:58.476Z</time></trkpt><trkpt lat="44.8559126" lon="10.9793318"><ele>17.0</ele><time>2026-04-06T08:33:00.478Z</time></trkpt><trkpt lat="44.8559708" lon="10.9793818"><ele>17.0</ele><time>2026-04-06T08:33:01.476Z</time></trkpt><trkpt lat="44.8560286" lon="10.9794316"><ele>17.0</ele><time>2026-04-06T08:33:02.477Z</time></trkpt><trkpt lat="44.8560844" lon="10.9794772"><ele>17.0</ele><time>2026-04-06T08:33:03.477Z</time></trkpt><trkpt lat="44.8562001" lon="10.9795667"><ele>17.142857142857142</ele><time>2026-04-06T08:33:05.476Z</time></trkpt><trkpt lat="44.8562582" lon="10.9796134"><ele>17.285714285714285</ele><time>2026-04-06T08:33:06.477Z</time></trkpt><trkpt lat="44.8563116" lon="10.9796665"><ele>17.42857142857143</ele><time>2026-04-06T08:33:07.478Z</time></trkpt><trkpt lat="44.8563703" lon="10.97971"><ele>17.57142857142857</ele><time>2026-04-06T08:33:08.476Z</time></trkpt><trkpt lat="44.8564248" lon="10.9797652"><ele>17.714285714285715</ele><time>2026-04-06T08:33:09.478Z</time></trkpt><trkpt lat="44.8564839" lon="10.9798155"><ele>17.857142857142858</ele><time>2026-04-06T08:33:10.477Z</time></trkpt><trkpt lat="44.856537" lon="10.9798685"><ele>18.0</ele><time>2026-04-06T08:33:11.477Z</time></trkpt><trkpt lat="44.8566014" lon="10.9799217"><ele>18.0</ele><time>2026-04-06T08:33:12.476Z</time></trkpt><trkpt lat="44.8566642" lon="10.9799732"><ele>18.0</ele><time>2026-04-06T08:33:13.477Z</time></trkpt><trkpt lat="44.8567237" lon="10.9800225"><ele>18.0</ele><time>2026-04-06T08:33:14.476Z</time></trkpt><trkpt lat="44.8568313" lon="10.9800983"><ele>18.0</ele><time>2026-04-06T08:33:16.477Z</time></trkpt><trkpt lat="44.8569372" lon="10.9801796"><ele>18.0</ele><time>2026-04-06T08:33:18.476Z</time></trkpt><trkpt lat="44.8569931" lon="10.9802256"><ele>18.0</ele><time>2026-04-06T08:33:19.476Z</time></trkpt><trkpt lat="44.8570481" lon="10.9802728"><ele>18.142857142857146</ele><time>2026-04-06T08:33:20.476Z</time></trkpt><trkpt lat="44.8571047" lon="10.9803259"><ele>18.285714285714285</ele><time>2026-04-06T08:33:21.476Z</time></trkpt><trkpt lat="44.8571607" lon="10.9803707"><ele>18.42857142857143</ele><time>2026-04-06T08:33:22.476Z</time></trkpt><trkpt lat="44.8572241" lon="10.9804158"><ele>18.571428571428573</ele><time>2026-04-06T08:33:23.476Z</time></trkpt><trkpt lat="44.8572851" lon="10.9804666"><ele>18.714285714285715</ele><time>2026-04-06T08:33:24.477Z</time></trkpt><trkpt lat="44.857348" lon="10.9805184"><ele>18.857142857142858</ele><time>2026-04-06T08:33:25.476Z</time></trkpt><trkpt lat="44.8574123" lon="10.980567"><ele>19.0</ele><time>2026-04-06T08:33:26.476Z</time></trkpt><trkpt lat="44.8574752" lon="10.9806122"><ele>19.0</ele><time>2026-04-06T08:33:27.477Z</time></trkpt><trkpt lat="44.8575345" lon="10.9806544"><ele>19.0</ele><time>2026-04-06T08:33:28.477Z</time></trkpt><trkpt lat="44.8575866" lon="10.9807083"><ele>19.0</ele><time>2026-04-06T08:33:29.476Z</time></trkpt><trkpt lat="44.8576262" lon="10.980856"><ele>19.0</ele><time>2026-04-06T08:33:31.477Z</time></trkpt><trkpt lat="44.8575816" lon="10.9810453"><ele>19.0</ele><time>2026-04-06T08:33:33.477Z</time></trkpt><trkpt lat="44.8575311" lon="10.9811542"><ele>18.8</ele><time>2026-04-06T08:33:34.476Z</time></trkpt><trkpt lat="44.8574776" lon="10.9812688"><ele>18.599999999999998</ele><time>2026-04-06T08:33:35.477Z</time></trkpt><trkpt lat="44.8574208" lon="10.9813964"><ele>18.4</ele><time>2026-04-06T08:33:36.476Z</time></trkpt><trkpt lat="44.8573645" lon="10.9815307"><ele>18.2</ele><time>2026-04-06T08:33:37.476Z</time></trkpt><trkpt lat="44.8573096" lon="10.9816711"><ele>18.0</ele><time>2026-04-06T08:33:38.478Z</time></trkpt><trkpt lat="44.8572536" lon="10.9818129"><ele>18.0</ele><time>2026-04-06T08:33:39.477Z</time></trkpt><trkpt lat="44.8571962" lon="10.9819549"><ele>18.0</ele><time>2026-04-06T08:33:40.476Z</time></trkpt><trkpt lat="44.8571346" lon="10.9820996"><ele>18.0</ele><time>2026-04-06T08:33:41.477Z</time></trkpt><trkpt lat="44.8570819" lon="10.9822397"><ele>18.0</ele><time>2026-04-06T08:33:42.476Z</time></trkpt><trkpt lat="44.8570298" lon="10.982382"><ele>17.75</ele><time>2026-04-06T08:33:43.477Z</time></trkpt><trkpt lat="44.856977" lon="10.982525"><ele>17.5</ele><time>2026-04-06T08:33:44.475Z</time></trkpt><trkpt lat="44.8569233" lon="10.9826733"><ele>17.25</ele><time>2026-04-06T08:33:45.476Z</time></trkpt><trkpt lat="44.8568688" lon="10.9828202"><ele>17.0</ele><time>2026-04-06T08:33:46.476Z</time></trkpt><trkpt lat="44.85681" lon="10.9829663"><ele>17.5</ele><time>2026-04-06T08:33:47.476Z</time></trkpt><trkpt lat="44.8567488" lon="10.9831072"><ele>18.0</ele><time>2026-04-06T08:33:48.477Z</time></trkpt><trkpt lat="44.8566856" lon="10.9832518"><ele>18.5</ele><time>2026-04-06T08:33:49.476Z</time></trkpt><trkpt lat="44.8566206" lon="10.983398"><ele>19.0</ele><time>2026-04-06T08:33:50.476Z</time></trkpt><trkpt lat="44.8565591" lon="10.9835495"><ele>19.0</ele><time>2026-04-06T08:33:51.476Z</time></trkpt><trkpt lat="44.8564969" lon="10.9837084"><ele>19.0</ele><time>2026-04-06T08:33:52.476Z</time></trkpt><trkpt lat="44.8564307" lon="10.9838699"><ele>19.0</ele><time>2026-04-06T08:33:53.476Z</time></trkpt><trkpt lat="44.8563658" lon="10.9840324"><ele>19.0</ele><time>2026-04-06T08:33:54.476Z</time></trkpt><trkpt lat="44.8562993" lon="10.9841977"><ele>19.0</ele><time>2026-04-06T08:33:55.476Z</time></trkpt><trkpt lat="44.8562336" lon="10.9843648"><ele>19.0</ele><time>2026-04-06T08:33:56.476Z</time></trkpt><trkpt lat="44.8561711" lon="10.9845282"><ele>19.0</ele><time>2026-04-06T08:33:57.476Z</time></trkpt><trkpt lat="44.856107" lon="10.9846932"><ele>19.0</ele><time>2026-04-06T08:33:58.477Z</time></trkpt><trkpt lat="44.8560423" lon="10.9848473"><ele>19.0</ele><time>2026-04-06T08:33:59.477Z</time></trkpt><trkpt lat="44.8559705" lon="10.9849939"><ele>19.0</ele><time>2026-04-06T08:34:00.476Z</time></trkpt><trkpt lat="44.8558863" lon="10.9851274"><ele>19.0</ele><time>2026-04-06T08:34:01.476Z</time></trkpt><trkpt lat="44.8557852" lon="10.9852373"><ele>19.0</ele><time>2026-04-06T08:34:02.476Z</time></trkpt><trkpt lat="44.8556668" lon="10.9853265"><ele>19.0</ele><time>2026-04-06T08:34:03.476Z</time></trkpt><trkpt lat="44.8555461" lon="10.9854122"><ele>19.0</ele><time>2026-04-06T08:34:04.477Z</time></trkpt><trkpt lat="44.8554269" lon="10.985502"><ele>19.0</ele><time>2026-04-06T08:34:05.476Z</time></trkpt><trkpt lat="44.8553088" lon="10.9855962"><ele>19.0</ele><time>2026-04-06T08:34:06.476Z</time></trkpt><trkpt lat="44.8551926" lon="10.9856886"><ele>18.75</ele><time>2026-04-06T08:34:07.476Z</time></trkpt><trkpt lat="44.8550739" lon="10.9857744"><ele>18.5</ele><time>2026-04-06T08:34:08.476Z</time></trkpt><trkpt lat="44.8549477" lon="10.9858438"><ele>18.25</ele><time>2026-04-06T08:34:09.476Z</time></trkpt><trkpt lat="44.8548125" lon="10.985898"><ele>18.0</ele><time>2026-04-06T08:34:10.476Z</time></trkpt><trkpt lat="44.8546706" lon="10.9859256"><ele>18.0</ele><time>2026-04-06T08:34:11.476Z</time></trkpt><trkpt lat="44.8545183" lon="10.9859225"><ele>18.0</ele><time>2026-04-06T08:34:12.476Z</time></trkpt><trkpt lat="44.8543616" lon="10.9858823"><ele>18.0</ele><time>2026-04-06T08:34:13.476Z</time></trkpt><trkpt lat="44.8542056" lon="10.9858212"><ele>17.75</ele><time>2026-04-06T08:34:14.477Z</time></trkpt><trkpt lat="44.8540579" lon="10.9857571"><ele>17.5</ele><time>2026-04-06T08:34:15.477Z</time></trkpt><trkpt lat="44.8539221" lon="10.9857015"><ele>17.25</ele><time>2026-04-06T08:34:16.477Z</time></trkpt><trkpt lat="44.8537916" lon="10.9856529"><ele>17.0</ele><time>2026-04-06T08:34:17.476Z</time></trkpt><trkpt lat="44.8536731" lon="10.9856073"><ele>17.0</ele><time>2026-04-06T08:34:18.477Z</time></trkpt><trkpt lat="44.8535653" lon="10.9855655"><ele>17.0</ele><time>2026-04-06T08:34:19.476Z</time></trkpt><trkpt lat="44.8534692" lon="10.9855341"><ele>17.0</ele><time>2026-04-06T08:34:20.476Z</time></trkpt><trkpt lat="44.8533825" lon="10.985538"><ele>17.0</ele><time>2026-04-06T08:34:21.477Z</time></trkpt><trkpt lat="44.8533011" lon="10.9855825"><ele>17.0</ele><time>2026-04-06T08:34:22.476Z</time></trkpt><trkpt lat="44.8532283" lon="10.9856722"><ele>17.25</ele><time>2026-04-06T08:34:23.476Z</time></trkpt><trkpt lat="44.8531613" lon="10.9857903"><ele>17.5</ele><time>2026-04-06T08:34:24.476Z</time></trkpt><trkpt lat="44.8530938" lon="10.985916"><ele>17.75</ele><time>2026-04-06T08:34:25.476Z</time></trkpt><trkpt lat="44.8530199" lon="10.9860479"><ele>18.0</ele><time>2026-04-06T08:34:26.477Z</time></trkpt><trkpt lat="44.8529389" lon="10.9861816"><ele>18.0</ele><time>2026-04-06T08:34:27.477Z</time></trkpt><trkpt lat="44.8528585" lon="10.9863139"><ele>18.0</ele><time>2026-04-06T08:34:28.476Z</time></trkpt><trkpt lat="44.852772" lon="10.9864501"><ele>18.0</ele><time>2026-04-06T08:34:29.476Z</time></trkpt><trkpt lat="44.8526867" lon="10.9865929"><ele>18.0</ele><time>2026-04-06T08:34:30.476Z</time></trkpt><trkpt lat="44.8526007" lon="10.9867389"><ele>18.5</ele><time>2026-04-06T08:34:31.476Z</time></trkpt><trkpt lat="44.8525158" lon="10.9868881"><ele>19.0</ele><time>2026-04-06T08:34:32.476Z</time></trkpt><trkpt lat="44.8524257" lon="10.9870462"><ele>19.5</ele><time>2026-04-06T08:34:33.476Z</time></trkpt><trkpt lat="44.8523357" lon="10.9872052"><ele>20.0</ele><time>2026-04-06T08:34:34.476Z</time></trkpt><trkpt lat="44.8522467" lon="10.9873562"><ele>20.0</ele><time>2026-04-06T08:34:35.476Z</time></trkpt><trkpt lat="44.8521562" lon="10.9875078"><ele>20.0</ele><time>2026-04-06T08:34:36.476Z</time></trkpt><trkpt lat="44.8520628" lon="10.9876544"><ele>20.0</ele><time>2026-04-06T08:34:37.476Z</time></trkpt><trkpt lat="44.8519615" lon="10.9877929"><ele>20.0</ele><time>2026-04-06T08:34:38.477Z</time></trkpt><trkpt lat="44.8518591" lon="10.9879269"><ele>19.75</ele><time>2026-04-06T08:34:39.476Z</time></trkpt><trkpt lat="44.8517577" lon="10.988056"><ele>19.5</ele><time>2026-04-06T08:34:40.477Z</time></trkpt><trkpt lat="44.8516527" lon="10.9881911"><ele>19.25</ele><time>2026-04-06T08:34:41.476Z</time></trkpt><trkpt lat="44.851551" lon="10.9883334"><ele>19.0</ele><time>2026-04-06T08:34:42.476Z</time></trkpt><trkpt lat="44.8514485" lon="10.9884806"><ele>19.0</ele><time>2026-04-06T08:34:43.476Z</time></trkpt><trkpt lat="44.8513442" lon="10.988633"><ele>19.0</ele><time>2026-04-06T08:34:44.476Z</time></trkpt><trkpt lat="44.8512423" lon="10.9887936"><ele>19.0</ele><time>2026-04-06T08:34:45.476Z</time></trkpt><trkpt lat="44.85114" lon="10.9889578"><ele>19.0</ele><time>2026-04-06T08:34:46.477Z</time></trkpt><trkpt lat="44.8510319" lon="10.9891243"><ele>19.0</ele><time>2026-04-06T08:34:47.476Z</time></trkpt><trkpt lat="44.8509178" lon="10.9892967"><ele>19.0</ele><time>2026-04-06T08:34:48.476Z</time></trkpt><trkpt lat="44.8508081" lon="10.9894724"><ele>18.666666666666664</ele><time>2026-04-06T08:34:49.476Z</time></trkpt><trkpt lat="44.8506946" lon="10.9896572"><ele>18.333333333333332</ele><time>2026-04-06T08:34:50.476Z</time></trkpt><trkpt lat="44.8505769" lon="10.9898402"><ele>18.0</ele><time>2026-04-06T08:34:51.476Z</time></trkpt><trkpt lat="44.8504596" lon="10.9900217"><ele>18.0</ele><time>2026-04-06T08:34:52.478Z</time></trkpt><trkpt lat="44.8503372" lon="10.9902024"><ele>18.0</ele><time>2026-04-06T08:34:53.476Z</time></trkpt><trkpt lat="44.8502058" lon="10.990385"><ele>18.0</ele><time>2026-04-06T08:34:54.476Z</time></trkpt><trkpt lat="44.8500759" lon="10.9905712"><ele>18.0</ele><time>2026-04-06T08:34:55.476Z</time></trkpt><trkpt lat="44.8499473" lon="10.9907687"><ele>18.0</ele><time>2026-04-06T08:34:56.476Z</time></trkpt><trkpt lat="44.8498231" lon="10.990974"><ele>18.0</ele><time>2026-04-06T08:34:57.476Z</time></trkpt><trkpt lat="44.8497028" lon="10.9911749"><ele>18.0</ele><time>2026-04-06T08:34:58.476Z</time></trkpt><trkpt lat="44.8495874" lon="10.9913814"><ele>18.0</ele><time>2026-04-06T08:34:59.477Z</time></trkpt><trkpt lat="44.8494765" lon="10.9915885"><ele>18.0</ele><time>2026-04-06T08:35:00.476Z</time></trkpt><trkpt lat="44.849367" lon="10.9917997"><ele>18.333333333333332</ele><time>2026-04-06T08:35:01.476Z</time></trkpt><trkpt lat="44.8492576" lon="10.9920138"><ele>18.666666666666664</ele><time>2026-04-06T08:35:02.477Z</time></trkpt><trkpt lat="44.8491445" lon="10.9922263"><ele>19.0</ele><time>2026-04-06T08:35:03.476Z</time></trkpt><trkpt lat="44.8490333" lon="10.9924445"><ele>18.666666666666664</ele><time>2026-04-06T08:35:04.476Z</time></trkpt><trkpt lat="44.8489265" lon="10.9926559"><ele>18.333333333333332</ele><time>2026-04-06T08:35:05.477Z</time></trkpt><trkpt lat="44.8488282" lon="10.9928515"><ele>18.0</ele><time>2026-04-06T08:35:06.476Z</time></trkpt><trkpt lat="44.8487383" lon="10.9930323"><ele>18.0</ele><time>2026-04-06T08:35:07.476Z</time></trkpt><trkpt lat="44.8486539" lon="10.9931968"><ele>18.0</ele><time>2026-04-06T08:35:08.477Z</time></trkpt><trkpt lat="44.8485622" lon="10.9933579"><ele>18.0</ele><time>2026-04-06T08:35:09.476Z</time></trkpt><trkpt lat="44.8484612" lon="10.9935052"><ele>18.0</ele><time>2026-04-06T08:35:10.476Z</time></trkpt><trkpt lat="44.8483493" lon="10.993648"><ele>18.333333333333332</ele><time>2026-04-06T08:35:11.477Z</time></trkpt><trkpt lat="44.8482348" lon="10.9937904"><ele>18.666666666666664</ele><time>2026-04-06T08:35:12.477Z</time></trkpt><trkpt lat="44.8481145" lon="10.9939356"><ele>19.0</ele><time>2026-04-06T08:35:13.476Z</time></trkpt><trkpt lat="44.8479883" lon="10.9940855"><ele>19.0</ele><time>2026-04-06T08:35:14.476Z</time></trkpt><trkpt lat="44.8478553" lon="10.9942339"><ele>19.0</ele><time>2026-04-06T08:35:15.477Z</time></trkpt><trkpt lat="44.8477226" lon="10.9943854"><ele>19.0</ele><time>2026-04-06T08:35:16.476Z</time></trkpt><trkpt lat="44.8475901" lon="10.9945494"><ele>19.0</ele><time>2026-04-06T08:35:17.476Z</time></trkpt><trkpt lat="44.847466" lon="10.994732"><ele>19.0</ele><time>2026-04-06T08:35:18.477Z</time></trkpt><trkpt lat="44.8473368" lon="10.9949252"><ele>19.0</ele><time>2026-04-06T08:35:19.476Z</time></trkpt><trkpt lat="44.8471949" lon="10.9951231"><ele>19.0</ele><time>2026-04-06T08:35:20.477Z</time></trkpt><trkpt lat="44.8470467" lon="10.9953355"><ele>19.0</ele><time>2026-04-06T08:35:21.477Z</time></trkpt><trkpt lat="44.8468993" lon="10.995565"><ele>19.0</ele><time>2026-04-06T08:35:22.476Z</time></trkpt><trkpt lat="44.8467586" lon="10.9958088"><ele>18.666666666666664</ele><time>2026-04-06T08:35:23.476Z</time></trkpt><trkpt lat="44.846627" lon="10.9960579"><ele>18.333333333333332</ele><time>2026-04-06T08:35:24.477Z</time></trkpt><trkpt lat="44.8464994" lon="10.9963039"><ele>18.0</ele><time>2026-04-06T08:35:25.476Z</time></trkpt><trkpt lat="44.8463661" lon="10.9965476"><ele>18.0</ele><time>2026-04-06T08:35:26.476Z</time></trkpt><trkpt lat="44.8462311" lon="10.9967976"><ele>18.0</ele><time>2026-04-06T08:35:27.477Z</time></trkpt><trkpt lat="44.8460878" lon="10.9970412"><ele>18.0</ele><time>2026-04-06T08:35:28.476Z</time></trkpt><trkpt lat="44.8459378" lon="10.9972768"><ele>17.333333333333332</ele><time>2026-04-06T08:35:29.477Z</time></trkpt><trkpt lat="44.8457908" lon="10.9975104"><ele>16.666666666666664</ele><time>2026-04-06T08:35:30.475Z</time></trkpt><trkpt lat="44.8456447" lon="10.9977522"><ele>16.0</ele><time>2026-04-06T08:35:31.477Z</time></trkpt><trkpt lat="44.8454965" lon="10.9979942"><ele>16.0</ele><time>2026-04-06T08:35:32.477Z</time></trkpt><trkpt lat="44.8453467" lon="10.9982375"><ele>16.0</ele><time>2026-04-06T08:35:33.476Z</time></trkpt><trkpt lat="44.8451991" lon="10.9984807"><ele>17.0</ele><time>2026-04-06T08:35:34.477Z</time></trkpt><trkpt lat="44.84505" lon="10.9987268"><ele>18.0</ele><time>2026-04-06T08:35:35.477Z</time></trkpt><trkpt lat="44.8448977" lon="10.9989747"><ele>18.0</ele><time>2026-04-06T08:35:36.476Z</time></trkpt><trkpt lat="44.8447411" lon="10.9992309"><ele>18.0</ele><time>2026-04-06T08:35:37.476Z</time></trkpt><trkpt lat="44.8445855" lon="10.9994792"><ele>18.0</ele><time>2026-04-06T08:35:38.477Z</time></trkpt><trkpt lat="44.8444351" lon="10.9997159"><ele>18.0</ele><time>2026-04-06T08:35:39.477Z</time></trkpt><trkpt lat="44.8442982" lon="10.9999381"><ele>18.0</ele><time>2026-04-06T08:35:40.476Z</time></trkpt><trkpt lat="44.8441668" lon="11.0001468"><ele>18.0</ele><time>2026-04-06T08:35:41.476Z</time></trkpt><trkpt lat="44.8440386" lon="11.0003422"><ele>18.0</ele><time>2026-04-06T08:35:42.475Z</time></trkpt><trkpt lat="44.8439155" lon="11.0005335"><ele>18.0</ele><time>2026-04-06T08:35:43.476Z</time></trkpt><trkpt lat="44.8437965" lon="11.0007296"><ele>18.333333333333332</ele><time>2026-04-06T08:35:44.477Z</time></trkpt><trkpt lat="44.8436689" lon="11.0009254"><ele>18.666666666666664</ele><time>2026-04-06T08:35:45.476Z</time></trkpt><trkpt lat="44.8435387" lon="11.0011186"><ele>19.0</ele><time>2026-04-06T08:35:46.476Z</time></trkpt><trkpt lat="44.8434126" lon="11.0013168"><ele>19.0</ele><time>2026-04-06T08:35:47.476Z</time></trkpt><trkpt lat="44.8432852" lon="11.0015203"><ele>19.0</ele><time>2026-04-06T08:35:48.477Z</time></trkpt><trkpt lat="44.8431573" lon="11.0017264"><ele>19.0</ele><time>2026-04-06T08:35:49.476Z</time></trkpt><trkpt lat="44.8430279" lon="11.0019261"><ele>19.0</ele><time>2026-04-06T08:35:50.476Z</time></trkpt><trkpt lat="44.8428991" lon="11.0021242"><ele>19.0</ele><time>2026-04-06T08:35:51.477Z</time></trkpt><trkpt lat="44.8427728" lon="11.0023252"><ele>19.0</ele><time>2026-04-06T08:35:52.477Z</time></trkpt><trkpt lat="44.8426481" lon="11.0025252"><ele>18.666666666666664</ele><time>2026-04-06T08:35:53.476Z</time></trkpt><trkpt lat="44.8425198" lon="11.0027251"><ele>18.333333333333332</ele><time>2026-04-06T08:35:54.476Z</time></trkpt><trkpt lat="44.8423949" lon="11.0029173"><ele>18.0</ele><time>2026-04-06T08:35:55.476Z</time></trkpt><trkpt lat="44.8422744" lon="11.003107"><ele>18.0</ele><time>2026-04-06T08:35:56.476Z</time></trkpt><trkpt lat="44.8421571" lon="11.0032966"><ele>18.0</ele><time>2026-04-06T08:35:57.477Z</time></trkpt><trkpt lat="44.8420421" lon="11.0034831"><ele>18.0</ele><time>2026-04-06T08:35:58.476Z</time></trkpt><trkpt lat="44.841923" lon="11.003673"><ele>18.0</ele><time>2026-04-06T08:35:59.476Z</time></trkpt><trkpt lat="44.8418061" lon="11.0038608"><ele>18.0</ele><time>2026-04-06T08:36:00.476Z</time></trkpt><trkpt lat="44.8416865" lon="11.0040519"><ele>18.0</ele><time>2026-04-06T08:36:01.476Z</time></trkpt><trkpt lat="44.8415663" lon="11.0042506"><ele>18.666666666666668</ele><time>2026-04-06T08:36:02.476Z</time></trkpt><trkpt lat="44.8414456" lon="11.0044497"><ele>19.333333333333336</ele><time>2026-04-06T08:36:03.476Z</time></trkpt><trkpt lat="44.8413211" lon="11.004652"><ele>20.0</ele><time>2026-04-06T08:36:04.477Z</time></trkpt><trkpt lat="44.8411941" lon="11.0048537"><ele>19.666666666666668</ele><time>2026-04-06T08:36:05.477Z</time></trkpt><trkpt lat="44.8410696" lon="11.0050572"><ele>19.333333333333332</ele><time>2026-04-06T08:36:06.478Z</time></trkpt><trkpt lat="44.8409453" lon="11.0052614"><ele>19.0</ele><time>2026-04-06T08:36:07.476Z</time></trkpt><trkpt lat="44.8408186" lon="11.0054636"><ele>19.0</ele><time>2026-04-06T08:36:08.477Z</time></trkpt><trkpt lat="44.84069" lon="11.005658"><ele>19.0</ele><time>2026-04-06T08:36:09.476Z</time></trkpt><trkpt lat="44.8405604" lon="11.0058549"><ele>19.0</ele><time>2026-04-06T08:36:10.476Z</time></trkpt><trkpt lat="44.8404329" lon="11.0060543"><ele>19.0</ele><time>2026-04-06T08:36:11.476Z</time></trkpt><trkpt lat="44.8403029" lon="11.0062502"><ele>19.0</ele><time>2026-04-06T08:36:12.476Z</time></trkpt><trkpt lat="44.8401798" lon="11.0064496"><ele>19.0</ele><time>2026-04-06T08:36:13.476Z</time></trkpt><trkpt lat="44.8400538" lon="11.0066496"><ele>19.333333333333332</ele><time>2026-04-06T08:36:14.477Z</time></trkpt><trkpt lat="44.8399255" lon="11.0068522"><ele>19.666666666666668</ele><time>2026-04-06T08:36:15.477Z</time></trkpt><trkpt lat="44.8397977" lon="11.0070552"><ele>20.0</ele><time>2026-04-06T08:36:16.476Z</time></trkpt><trkpt lat="44.8396759" lon="11.0072541"><ele>20.0</ele><time>2026-04-06T08:36:17.476Z</time></trkpt><trkpt lat="44.8395532" lon="11.0074422"><ele>20.0</ele><time>2026-04-06T08:36:18.477Z</time></trkpt><trkpt lat="44.8394381" lon="11.0076182"><ele>20.0</ele><time>2026-04-06T08:36:19.476Z</time></trkpt><trkpt lat="44.8393276" lon="11.0077872"><ele>19.75</ele><time>2026-04-06T08:36:20.477Z</time></trkpt><trkpt lat="44.8392274" lon="11.0079446"><ele>19.5</ele><time>2026-04-06T08:36:21.476Z</time></trkpt><trkpt lat="44.839132" lon="11.0080928"><ele>19.25</ele><time>2026-04-06T08:36:22.476Z</time></trkpt><trkpt lat="44.8390418" lon="11.0082372"><ele>19.0</ele><time>2026-04-06T08:36:23.475Z</time></trkpt><trkpt lat="44.8389582" lon="11.0083792"><ele>19.0</ele><time>2026-04-06T08:36:24.476Z</time></trkpt><trkpt lat="44.8388759" lon="11.0085122"><ele>19.0</ele><time>2026-04-06T08:36:25.477Z</time></trkpt><trkpt lat="44.8387971" lon="11.0086366"><ele>19.0</ele><time>2026-04-06T08:36:26.476Z</time></trkpt><trkpt lat="44.838721" lon="11.0087525"><ele>19.0</ele><time>2026-04-06T08:36:27.477Z</time></trkpt><trkpt lat="44.8386504" lon="11.0088656"><ele>19.0</ele><time>2026-04-06T08:36:28.476Z</time></trkpt><trkpt lat="44.8385824" lon="11.0089746"><ele>19.0</ele><time>2026-04-06T08:36:29.477Z</time></trkpt><trkpt lat="44.838517" lon="11.0090711"><ele>19.0</ele><time>2026-04-06T08:36:30.477Z</time></trkpt><trkpt lat="44.8384622" lon="11.0091554"><ele>19.0</ele><time>2026-04-06T08:36:31.476Z</time></trkpt><trkpt lat="44.8384144" lon="11.0092278"><ele>19.0</ele><time>2026-04-06T08:36:32.477Z</time></trkpt><trkpt lat="44.8383189" lon="11.0093669"><ele>19.6</ele><time>2026-04-06T08:36:34.476Z</time></trkpt><trkpt lat="44.8382586" lon="11.0094613"><ele>20.2</ele><time>2026-04-06T08:36:35.477Z</time></trkpt><trkpt lat="44.8381916" lon="11.0095691"><ele>20.8</ele><time>2026-04-06T08:36:36.476Z</time></trkpt><trkpt lat="44.8381175" lon="11.0096863"><ele>21.400000000000002</ele><time>2026-04-06T08:36:37.476Z</time></trkpt><trkpt lat="44.8380364" lon="11.0098192"><ele>22.0</ele><time>2026-04-06T08:36:38.476Z</time></trkpt><trkpt lat="44.8379515" lon="11.0099617"><ele>21.75</ele><time>2026-04-06T08:36:39.476Z</time></trkpt><trkpt lat="44.8378599" lon="11.0101042"><ele>21.5</ele><time>2026-04-06T08:36:40.476Z</time></trkpt><trkpt lat="44.8377638" lon="11.0102495"><ele>21.25</ele><time>2026-04-06T08:36:41.477Z</time></trkpt><trkpt lat="44.837665" lon="11.0104048"><ele>21.0</ele><time>2026-04-06T08:36:42.477Z</time></trkpt><trkpt lat="44.8375575" lon="11.010568"><ele>21.0</ele><time>2026-04-06T08:36:43.476Z</time></trkpt><trkpt lat="44.8374514" lon="11.0107356"><ele>21.0</ele><time>2026-04-06T08:36:44.478Z</time></trkpt><trkpt lat="44.8373448" lon="11.010906"><ele>21.0</ele><time>2026-04-06T08:36:45.477Z</time></trkpt><trkpt lat="44.8372331" lon="11.0110766"><ele>20.666666666666668</ele><time>2026-04-06T08:36:46.476Z</time></trkpt><trkpt lat="44.837125" lon="11.0112423"><ele>20.333333333333336</ele><time>2026-04-06T08:36:47.476Z</time></trkpt><trkpt lat="44.8370132" lon="11.0114213"><ele>20.0</ele><time>2026-04-06T08:36:48.477Z</time></trkpt><trkpt lat="44.8369037" lon="11.0115976"><ele>20.0</ele><time>2026-04-06T08:36:49.476Z</time></trkpt><trkpt lat="44.8367932" lon="11.0117702"><ele>20.0</ele><time>2026-04-06T08:36:50.477Z</time></trkpt><trkpt lat="44.8366833" lon="11.0119432"><ele>20.0</ele><time>2026-04-06T08:36:51.476Z</time></trkpt><trkpt lat="44.8365689" lon="11.0121098"><ele>20.0</ele><time>2026-04-06T08:36:52.476Z</time></trkpt><trkpt lat="44.8364658" lon="11.0122695"><ele>20.0</ele><time>2026-04-06T08:36:53.476Z</time></trkpt><trkpt lat="44.8363664" lon="11.0124317"><ele>20.0</ele><time>2026-04-06T08:36:54.476Z</time></trkpt><trkpt lat="44.8362701" lon="11.0125862"><ele>19.75</ele><time>2026-04-06T08:36:55.476Z</time></trkpt><trkpt lat="44.8361712" lon="11.0127418"><ele>19.5</ele><time>2026-04-06T08:36:56.476Z</time></trkpt><trkpt lat="44.8360714" lon="11.0128972"><ele>19.25</ele><time>2026-04-06T08:36:57.477Z</time></trkpt><trkpt lat="44.8359694" lon="11.0130534"><ele>19.0</ele><time>2026-04-06T08:36:58.477Z</time></trkpt><trkpt lat="44.83587" lon="11.0132077"><ele>19.333333333333332</ele><time>2026-04-06T08:36:59.477Z</time></trkpt><trkpt lat="44.835772" lon="11.0133687"><ele>19.666666666666668</ele><time>2026-04-06T08:37:00.476Z</time></trkpt><trkpt lat="44.8356751" lon="11.0135286"><ele>20.0</ele><time>2026-04-06T08:37:01.476Z</time></trkpt><trkpt lat="44.8355729" lon="11.0136853"><ele>20.0</ele><time>2026-04-06T08:37:02.476Z</time></trkpt><trkpt lat="44.8354781" lon="11.013835"><ele>20.0</ele><time>2026-04-06T08:37:03.476Z</time></trkpt><trkpt lat="44.8353861" lon="11.0139828"><ele>20.0</ele><time>2026-04-06T08:37:04.476Z</time></trkpt><trkpt lat="44.8352958" lon="11.0141254"><ele>20.0</ele><time>2026-04-06T08:37:05.477Z</time></trkpt><trkpt lat="44.8352032" lon="11.0142698"><ele>20.0</ele><time>2026-04-06T08:37:06.477Z</time></trkpt><trkpt lat="44.8351171" lon="11.0144137"><ele>20.0</ele><time>2026-04-06T08:37:07.476Z</time></trkpt><trkpt lat="44.8350246" lon="11.0145563"><ele>20.0</ele><time>2026-04-06T08:37:08.476Z</time></trkpt><trkpt lat="44.8349301" lon="11.014698"><ele>20.0</ele><time>2026-04-06T08:37:09.476Z</time></trkpt><trkpt lat="44.8348412" lon="11.0148322"><ele>20.0</ele><time>2026-04-06T08:37:10.476Z</time></trkpt><trkpt lat="44.8347634" lon="11.0149592"><ele>20.0</ele><time>2026-04-06T08:37:11.477Z</time></trkpt><trkpt lat="44.8346809" lon="11.0150884"><ele>20.0</ele><time>2026-04-06T08:37:12.476Z</time></trkpt><trkpt lat="44.8346092" lon="11.0152066"><ele>20.0</ele><time>2026-04-06T08:37:13.477Z</time></trkpt><trkpt lat="44.8345405" lon="11.0153235"><ele>20.0</ele><time>2026-04-06T08:37:14.478Z</time></trkpt><trkpt lat="44.8344731" lon="11.0154393"><ele>20.0</ele><time>2026-04-06T08:37:15.477Z</time></trkpt><trkpt lat="44.8344046" lon="11.0155569"><ele>20.0</ele><time>2026-04-06T08:37:16.477Z</time></trkpt><trkpt lat="44.8343338" lon="11.0156724"><ele>20.0</ele><time>2026-04-06T08:37:17.476Z</time></trkpt><trkpt lat="44.8342665" lon="11.0157882"><ele>20.0</ele><time>2026-04-06T08:37:18.476Z</time></trkpt><trkpt lat="44.8342044" lon="11.015905"><ele>20.0</ele><time>2026-04-06T08:37:19.476Z</time></trkpt><trkpt lat="44.8341458" lon="11.0160369"><ele>20.0</ele><time>2026-04-06T08:37:20.476Z</time></trkpt><trkpt lat="44.8340955" lon="11.0161768"><ele>20.0</ele><time>2026-04-06T08:37:21.476Z</time></trkpt><trkpt lat="44.8340448" lon="11.0163175"><ele>20.0</ele><time>2026-04-06T08:37:22.477Z</time></trkpt><trkpt lat="44.8339922" lon="11.0164527"><ele>20.0</ele><time>2026-04-06T08:37:23.476Z</time></trkpt><trkpt lat="44.8339393" lon="11.01659"><ele>19.75</ele><time>2026-04-06T08:37:24.476Z</time></trkpt><trkpt lat="44.8338857" lon="11.0167317"><ele>19.5</ele><time>2026-04-06T08:37:25.476Z</time></trkpt><trkpt lat="44.8338223" lon="11.0168769"><ele>19.25</ele><time>2026-04-06T08:37:26.476Z</time></trkpt><trkpt lat="44.8337562" lon="11.0170276"><ele>19.0</ele><time>2026-04-06T08:37:27.477Z</time></trkpt><trkpt lat="44.833693" lon="11.0171865"><ele>19.0</ele><time>2026-04-06T08:37:28.476Z</time></trkpt><trkpt lat="44.83363" lon="11.0173505"><ele>19.0</ele><time>2026-04-06T08:37:29.476Z</time></trkpt><trkpt lat="44.8335617" lon="11.0175178"><ele>19.0</ele><time>2026-04-06T08:37:30.476Z</time></trkpt><trkpt lat="44.8334938" lon="11.0176879"><ele>19.0</ele><time>2026-04-06T08:37:31.476Z</time></trkpt><trkpt lat="44.8334265" lon="11.0178407"><ele>19.25</ele><time>2026-04-06T08:37:32.477Z</time></trkpt><trkpt lat="44.8333688" lon="11.0179909"><ele>19.5</ele><time>2026-04-06T08:37:33.476Z</time></trkpt><trkpt lat="44.8333137" lon="11.0181265"><ele>19.75</ele><time>2026-04-06T08:37:34.477Z</time></trkpt><trkpt lat="44.8332595" lon="11.0182636"><ele>20.0</ele><time>2026-04-06T08:37:35.476Z</time></trkpt><trkpt lat="44.8332075" lon="11.0183944"><ele>20.0</ele><time>2026-04-06T08:37:36.477Z</time></trkpt><trkpt lat="44.8331609" lon="11.0185146"><ele>20.0</ele><time>2026-04-06T08:37:37.476Z</time></trkpt><trkpt lat="44.8331135" lon="11.0186347"><ele>20.0</ele><time>2026-04-06T08:37:38.476Z</time></trkpt><trkpt lat="44.8330657" lon="11.0187551"><ele>20.0</ele><time>2026-04-06T08:37:39.476Z</time></trkpt><trkpt lat="44.8330145" lon="11.0188676"><ele>20.0</ele><time>2026-04-06T08:37:40.476Z</time></trkpt><trkpt lat="44.8329699" lon="11.0189629"><ele>20.0</ele><time>2026-04-06T08:37:41.476Z</time></trkpt><trkpt lat="44.8329305" lon="11.0190503"><ele>20.0</ele><time>2026-04-06T08:37:42.476Z</time></trkpt><trkpt lat="44.8328973" lon="11.0191302"><ele>20.0</ele><time>2026-04-06T08:37:43.477Z</time></trkpt><trkpt lat="44.8328624" lon="11.0192056"><ele>20.0</ele><time>2026-04-06T08:37:44.476Z</time></trkpt><trkpt lat="44.8328172" lon="11.0192818"><ele>20.0</ele><time>2026-04-06T08:37:45.476Z</time></trkpt><trkpt lat="44.8327821" lon="11.0193632"><ele>20.0</ele><time>2026-04-06T08:37:46.477Z</time></trkpt><trkpt lat="44.8327468" lon="11.0194424"><ele>20.0</ele><time>2026-04-06T08:37:47.476Z</time></trkpt><trkpt lat="44.83271" lon="11.0195202"><ele>20.0</ele><time>2026-04-06T08:37:48.477Z</time></trkpt><trkpt lat="44.8326709" lon="11.0196006"><ele>20.0</ele><time>2026-04-06T08:37:49.477Z</time></trkpt><trkpt lat="44.8326323" lon="11.0196853"><ele>20.0</ele><time>2026-04-06T08:37:50.476Z</time></trkpt><trkpt lat="44.8325685" lon="11.0198287"><ele>20.0</ele><time>2026-04-06T08:37:52.476Z</time></trkpt><trkpt lat="44.8325021" lon="11.0199762"><ele>20.0</ele><time>2026-04-06T08:37:54.477Z</time></trkpt><trkpt lat="44.8324219" lon="11.0200978"><ele>20.2</ele><time>2026-04-06T08:37:56.477Z</time></trkpt><trkpt lat="44.8323122" lon="11.0201207"><ele>20.4</ele><time>2026-04-06T08:37:58.478Z</time></trkpt><trkpt lat="44.8322169" lon="11.0200276"><ele>20.6</ele><time>2026-04-06T08:38:00.476Z</time></trkpt><trkpt lat="44.8321422" lon="11.0199026"><ele>20.8</ele><time>2026-04-06T08:38:02.477Z</time></trkpt><trkpt lat="44.8320608" lon="11.0198233"><ele>21.0</ele><time>2026-04-06T08:38:04.476Z</time></trkpt><trkpt lat="44.8319887" lon="11.0198275"><ele>21.0</ele><time>2026-04-06T08:38:06.476Z</time></trkpt><trkpt lat="44.8319378" lon="11.0198809"><ele>21.0</ele><time>2026-04-06T08:38:09.476Z</time></trkpt><trkpt lat="44.8319644" lon="11.0200405"><ele>21.0</ele><time>2026-04-06T08:38:12.476Z</time></trkpt><trkpt lat="44.8319944" lon="11.0201201"><ele>21.0</ele><time>2026-04-06T08:38:13.479Z</time></trkpt><trkpt lat="44.8320802" lon="11.0202557"><ele>21.0</ele><time>2026-04-06T08:38:15.476Z</time></trkpt><trkpt lat="44.8321214" lon="11.0203251"><ele>21.0</ele><time>2026-04-06T08:38:16.477Z</time></trkpt><trkpt lat="44.8321604" lon="11.0204048"><ele>21.333333333333332</ele><time>2026-04-06T08:38:17.477Z</time></trkpt><trkpt lat="44.8322303" lon="11.0205349"><ele>21.666666666666668</ele><time>2026-04-06T08:38:19.477Z</time></trkpt><trkpt lat="44.8322677" lon="11.0206686"><ele>22.0</ele><time>2026-04-06T08:38:21.477Z</time></trkpt><trkpt lat="44.8322738" lon="11.0207586"><ele>22.333333333333336</ele><time>2026-04-06T08:38:22.477Z</time></trkpt><trkpt lat="44.8322798" lon="11.0208534"><ele>22.666666666666668</ele><time>2026-04-06T08:38:23.476Z</time></trkpt><trkpt lat="44.832297" lon="11.0209533"><ele>23.0</ele><time>2026-04-06T08:38:24.477Z</time></trkpt><trkpt lat="44.8323342" lon="11.0210506"><ele>23.0</ele><time>2026-04-06T08:38:25.476Z</time></trkpt><trkpt lat="44.832385" lon="11.0211274"><ele>23.0</ele><time>2026-04-06T08:38:26.476Z</time></trkpt><trkpt lat="44.8324541" lon="11.0211847"><ele>23.0</ele><time>2026-04-06T08:38:27.477Z</time></trkpt><trkpt lat="44.8325271" lon="11.0212292"><ele>23.0</ele><time>2026-04-06T08:38:28.475Z</time></trkpt><trkpt lat="44.8326017" lon="11.0212758"><ele>23.0</ele><time>2026-04-06T08:38:29.476Z</time></trkpt><trkpt lat="44.8326766" lon="11.0213313"><ele>23.0</ele><time>2026-04-06T08:38:30.476Z</time></trkpt><trkpt lat="44.8327433" lon="11.0214095"><ele>22.599999999999998</ele><time>2026-04-06T08:38:31.477Z</time></trkpt><trkpt lat="44.8328025" lon="11.0215007"><ele>22.2</ele><time>2026-04-06T08:38:32.476Z</time></trkpt><trkpt lat="44.8328704" lon="11.0215792"><ele>21.8</ele><time>2026-04-06T08:38:33.476Z</time></trkpt><trkpt lat="44.8329445" lon="11.0216657"><ele>21.4</ele><time>2026-04-06T08:38:34.477Z</time></trkpt><trkpt lat="44.8330152" lon="11.0217488"><ele>21.0</ele><time>2026-04-06T08:38:35.476Z</time></trkpt><trkpt lat="44.8330884" lon="11.0218292"><ele>21.0</ele><time>2026-04-06T08:38:36.476Z</time></trkpt><trkpt lat="44.8331606" lon="11.0219078"><ele>21.0</ele><time>2026-04-06T08:38:37.476Z</time></trkpt><trkpt lat="44.8332273" lon="11.0219791"><ele>21.0</ele><time>2026-04-06T08:38:38.476Z</time></trkpt><trkpt lat="44.8332887" lon="11.02205"><ele>21.0</ele><time>2026-04-06T08:38:39.477Z</time></trkpt><trkpt lat="44.8333682" lon="11.0221536"><ele>21.0</ele><time>2026-04-06T08:38:41.476Z</time></trkpt><trkpt lat="44.8334257" lon="11.0222261"><ele>21.0</ele><time>2026-04-06T08:38:44.476Z</time></trkpt><trkpt lat="44.8334887" lon="11.0222542"><ele>21.0</ele><time>2026-04-06T08:38:53.476Z</time></trkpt><trkpt lat="44.833602" lon="11.0222667"><ele>21.0</ele><time>2026-04-06T08:38:55.476Z</time></trkpt><trkpt lat="44.8336704" lon="11.0222682"><ele>21.0</ele><time>2026-04-06T08:38:56.477Z</time></trkpt><trkpt lat="44.833745" lon="11.0222689"><ele>21.0</ele><time>2026-04-06T08:38:57.476Z</time></trkpt><trkpt lat="44.8338203" lon="11.0222719"><ele>21.0</ele><time>2026-04-06T08:38:58.476Z</time></trkpt><trkpt lat="44.8338968" lon="11.0222724"><ele>21.0</ele><time>2026-04-06T08:38:59.477Z</time></trkpt><trkpt lat="44.8339811" lon="11.0222726"><ele>21.0</ele><time>2026-04-06T08:39:00.476Z</time></trkpt><trkpt lat="44.8340731" lon="11.0222778"><ele>21.0</ele><time>2026-04-06T08:39:01.476Z</time></trkpt><trkpt lat="44.8341624" lon="11.022287"><ele>21.0</ele><time>2026-04-06T08:39:02.477Z</time></trkpt><trkpt lat="44.8342598" lon="11.0223085"><ele>21.0</ele><time>2026-04-06T08:39:03.476Z</time></trkpt><trkpt lat="44.8343602" lon="11.0223319"><ele>21.0</ele><time>2026-04-06T08:39:04.476Z</time></trkpt><trkpt lat="44.8344617" lon="11.0223681"><ele>21.0</ele><time>2026-04-06T08:39:05.476Z</time></trkpt><trkpt lat="44.834564" lon="11.0224029"><ele>21.0</ele><time>2026-04-06T08:39:06.477Z</time></trkpt><trkpt lat="44.8346642" lon="11.0224388"><ele>21.0</ele><time>2026-04-06T08:39:07.476Z</time></trkpt><trkpt lat="44.8347679" lon="11.0224752"><ele>21.0</ele><time>2026-04-06T08:39:08.477Z</time></trkpt><trkpt lat="44.834871" lon="11.022518"><ele>21.0</ele><time>2026-04-06T08:39:09.476Z</time></trkpt><trkpt lat="44.8349719" lon="11.0225547"><ele>21.0</ele><time>2026-04-06T08:39:10.477Z</time></trkpt><trkpt lat="44.8350778" lon="11.0225891"><ele>21.0</ele><time>2026-04-06T08:39:11.476Z</time></trkpt><trkpt lat="44.8351799" lon="11.0226313"><ele>21.0</ele><time>2026-04-06T08:39:12.477Z</time></trkpt><trkpt lat="44.8352845" lon="11.0226664"><ele>21.0</ele><time>2026-04-06T08:39:13.477Z</time></trkpt><trkpt lat="44.8353862" lon="11.0227044"><ele>21.0</ele><time>2026-04-06T08:39:14.476Z</time></trkpt><trkpt lat="44.8354888" lon="11.0227418"><ele>21.0</ele><time>2026-04-06T08:39:15.476Z</time></trkpt><trkpt lat="44.8355923" lon="11.0227743"><ele>21.0</ele><time>2026-04-06T08:39:16.476Z</time></trkpt><trkpt lat="44.8356944" lon="11.0228046"><ele>21.0</ele><time>2026-04-06T08:39:17.477Z</time></trkpt><trkpt lat="44.8358003" lon="11.0228445"><ele>21.0</ele><time>2026-04-06T08:39:18.477Z</time></trkpt><trkpt lat="44.8359007" lon="11.0228838"><ele>21.0</ele><time>2026-04-06T08:39:19.476Z</time></trkpt><trkpt lat="44.8360014" lon="11.0229112"><ele>21.200000000000003</ele><time>2026-04-06T08:39:20.477Z</time></trkpt><trkpt lat="44.8361006" lon="11.0229431"><ele>21.400000000000002</ele><time>2026-04-06T08:39:21.476Z</time></trkpt><trkpt lat="44.8362004" lon="11.0229775"><ele>21.6</ele><time>2026-04-06T08:39:22.477Z</time></trkpt><trkpt lat="44.8363029" lon="11.0230142"><ele>21.8</ele><time>2026-04-06T08:39:23.476Z</time></trkpt><trkpt lat="44.8363961" lon="11.0230513"><ele>22.0</ele><time>2026-04-06T08:39:24.476Z</time></trkpt><trkpt lat="44.8364987" lon="11.0230914"><ele>22.0</ele><time>2026-04-06T08:39:25.476Z</time></trkpt><trkpt lat="44.8366031" lon="11.023129"><ele>22.0</ele><time>2026-04-06T08:39:26.477Z</time></trkpt><trkpt lat="44.8366992" lon="11.0231654"><ele>22.0</ele><time>2026-04-06T08:39:27.476Z</time></trkpt><trkpt lat="44.8367953" lon="11.0231994"><ele>22.0</ele><time>2026-04-06T08:39:28.476Z</time></trkpt><trkpt lat="44.8368874" lon="11.0232285"><ele>22.0</ele><time>2026-04-06T08:39:29.477Z</time></trkpt><trkpt lat="44.8369802" lon="11.0232612"><ele>21.666666666666664</ele><time>2026-04-06T08:39:30.477Z</time></trkpt><trkpt lat="44.8370661" lon="11.0232922"><ele>21.333333333333332</ele><time>2026-04-06T08:39:31.476Z</time></trkpt><trkpt lat="44.8371441" lon="11.0233162"><ele>21.0</ele><time>2026-04-06T08:39:32.476Z</time></trkpt><trkpt lat="44.8372166" lon="11.0233436"><ele>20.666666666666668</ele><time>2026-04-06T08:39:33.476Z</time></trkpt><trkpt lat="44.8373011" lon="11.0233857"><ele>20.333333333333336</ele><time>2026-04-06T08:39:35.477Z</time></trkpt><trkpt lat="44.8372976" lon="11.0235303"><ele>20.0</ele><time>2026-04-06T08:39:38.476Z</time></trkpt><trkpt lat="44.8372363" lon="11.0236613"><ele>20.666666666666668</ele><time>2026-04-06T08:39:40.476Z</time></trkpt><trkpt lat="44.8372005" lon="11.023736"><ele>21.333333333333336</ele><time>2026-04-06T08:39:41.477Z</time></trkpt><trkpt lat="44.8371414" lon="11.0238892"><ele>22.0</ele><time>2026-04-06T08:39:43.477Z</time></trkpt><trkpt lat="44.837107" lon="11.0239717"><ele>22.666666666666668</ele><time>2026-04-06T08:39:44.476Z</time></trkpt><trkpt lat="44.8370671" lon="11.0240552"><ele>23.333333333333332</ele><time>2026-04-06T08:39:45.476Z</time></trkpt><trkpt lat="44.8370215" lon="11.0241502"><ele>24.0</ele><time>2026-04-06T08:39:46.477Z</time></trkpt><trkpt lat="44.8369759" lon="11.0242421"><ele>24.0</ele><time>2026-04-06T08:39:47.476Z</time></trkpt><trkpt lat="44.8369239" lon="11.0243311"><ele>24.0</ele><time>2026-04-06T08:39:48.476Z</time></trkpt><trkpt lat="44.8368783" lon="11.0244211"><ele>24.0</ele><time>2026-04-06T08:39:49.476Z</time></trkpt><trkpt lat="44.8368368" lon="11.0245163"><ele>24.0</ele><time>2026-04-06T08:39:50.476Z</time></trkpt><trkpt lat="44.8367979" lon="11.0246166"><ele>24.0</ele><time>2026-04-06T08:39:51.476Z</time></trkpt><trkpt lat="44.8367535" lon="11.0247107"><ele>24.0</ele><time>2026-04-06T08:39:52.478Z</time></trkpt><trkpt lat="44.8367078" lon="11.0248095"><ele>23.833333333333332</ele><time>2026-04-06T08:39:53.476Z</time></trkpt><trkpt lat="44.8366611" lon="11.0248998"><ele>23.666666666666668</ele><time>2026-04-06T08:39:54.477Z</time></trkpt><trkpt lat="44.8366105" lon="11.0249931"><ele>23.5</ele><time>2026-04-06T08:39:55.475Z</time></trkpt><trkpt lat="44.8365627" lon="11.0250939"><ele>23.333333333333336</ele><time>2026-04-06T08:39:56.476Z</time></trkpt><trkpt lat="44.8365174" lon="11.0251947"><ele>23.166666666666668</ele><time>2026-04-06T08:39:57.477Z</time></trkpt><trkpt lat="44.8364709" lon="11.0252912"><ele>23.0</ele><time>2026-04-06T08:39:58.476Z</time></trkpt><trkpt lat="44.8364238" lon="11.0253935"><ele>23.0</ele><time>2026-04-06T08:39:59.477Z</time></trkpt><trkpt lat="44.836377" lon="11.0254866"><ele>23.0</ele><time>2026-04-06T08:40:00.477Z</time></trkpt><trkpt lat="44.8363308" lon="11.0255845"><ele>23.0</ele><time>2026-04-06T08:40:01.476Z</time></trkpt><trkpt lat="44.8362835" lon="11.0256773"><ele>23.0</ele><time>2026-04-06T08:40:02.476Z</time></trkpt><trkpt lat="44.8362339" lon="11.0257685"><ele>23.0</ele><time>2026-04-06T08:40:03.476Z</time></trkpt><trkpt lat="44.8361831" lon="11.0258617"><ele>23.0</ele><time>2026-04-06T08:40:04.476Z</time></trkpt><trkpt lat="44.8361351" lon="11.025951"><ele>23.0</ele><time>2026-04-06T08:40:05.476Z</time></trkpt><trkpt lat="44.8360939" lon="11.0260371"><ele>23.0</ele><time>2026-04-06T08:40:06.476Z</time></trkpt><trkpt lat="44.8360583" lon="11.0261262"><ele>23.0</ele><time>2026-04-06T08:40:07.476Z</time></trkpt><trkpt lat="44.8359906" lon="11.0262479"><ele>23.0</ele><time>2026-04-06T08:40:09.476Z</time></trkpt><trkpt lat="44.8359492" lon="11.0263148"><ele>23.0</ele><time>2026-04-06T08:40:11.476Z</time></trkpt><trkpt lat="44.8359661" lon="11.0264489"><ele>23.0</ele><time>2026-04-06T08:40:16.476Z</time></trkpt><trkpt lat="44.8360124" lon="11.0265231"><ele>23.0</ele><time>2026-04-06T08:40:19.476Z</time></trkpt><trkpt lat="44.8360878" lon="11.0265835"><ele>23.0</ele><time>2026-04-06T08:40:22.477Z</time></trkpt><trkpt lat="44.8361875" lon="11.0266601"><ele>23.0</ele><time>2026-04-06T08:40:24.477Z</time></trkpt><trkpt lat="44.8362842" lon="11.0267165"><ele>23.0</ele><time>2026-04-06T08:40:26.477Z</time></trkpt><trkpt lat="44.8363365" lon="11.0268266"><ele>23.0</ele><time>2026-04-06T08:40:28.477Z</time></trkpt><trkpt lat="44.8362897" lon="11.026962"><ele>23.166666666666668</ele><time>2026-04-06T08:40:30.476Z</time></trkpt><trkpt lat="44.8362336" lon="11.0270178"><ele>23.333333333333336</ele><time>2026-04-06T08:40:31.476Z</time></trkpt><trkpt lat="44.8361782" lon="11.0270748"><ele>23.5</ele><time>2026-04-06T08:40:32.476Z</time></trkpt><trkpt lat="44.8361096" lon="11.0271347"><ele>23.666666666666668</ele><time>2026-04-06T08:40:33.476Z</time></trkpt><trkpt lat="44.8360474" lon="11.0271979"><ele>23.833333333333332</ele><time>2026-04-06T08:40:34.475Z</time></trkpt><trkpt lat="44.8359886" lon="11.0272694"><ele>24.0</ele><time>2026-04-06T08:40:35.476Z</time></trkpt><trkpt lat="44.8359284" lon="11.027342"><ele>24.166666666666668</ele><time>2026-04-06T08:40:36.476Z</time></trkpt><trkpt lat="44.8358642" lon="11.0274143"><ele>24.333333333333336</ele><time>2026-04-06T08:40:37.476Z</time></trkpt><trkpt lat="44.8358007" lon="11.0274906"><ele>24.5</ele><time>2026-04-06T08:40:38.476Z</time></trkpt><trkpt lat="44.8357325" lon="11.0275645"><ele>24.666666666666668</ele><time>2026-04-06T08:40:39.476Z</time></trkpt><trkpt lat="44.835667" lon="11.027632"><ele>24.833333333333336</ele><time>2026-04-06T08:40:40.476Z</time></trkpt><trkpt lat="44.835615" lon="11.0276935"><ele>25.0</ele><time>2026-04-06T08:40:41.476Z</time></trkpt><trkpt lat="44.8355533" lon="11.0277651"><ele>25.000000000000004</ele><time>2026-04-06T08:40:42.476Z</time></trkpt><trkpt lat="44.8354914" lon="11.0278306"><ele>25.0</ele><time>2026-04-06T08:40:43.476Z</time></trkpt><trkpt lat="44.8354291" lon="11.0279067"><ele>25.0</ele><time>2026-04-06T08:40:44.476Z</time></trkpt><trkpt lat="44.8353608" lon="11.0279701"><ele>25.0</ele><time>2026-04-06T08:40:45.477Z</time></trkpt><trkpt lat="44.8352933" lon="11.0280372"><ele>25.000000000000004</ele><time>2026-04-06T08:40:46.476Z</time></trkpt><trkpt lat="44.8352252" lon="11.0281006"><ele>25.0</ele><time>2026-04-06T08:40:47.477Z</time></trkpt><trkpt lat="44.8351543" lon="11.0281535"><ele>24.833333333333336</ele><time>2026-04-06T08:40:48.476Z</time></trkpt><trkpt lat="44.8350918" lon="11.0282132"><ele>24.666666666666668</ele><time>2026-04-06T08:40:49.475Z</time></trkpt><trkpt lat="44.8350194" lon="11.0282635"><ele>24.5</ele><time>2026-04-06T08:40:50.477Z</time></trkpt><trkpt lat="44.8349401" lon="11.0283159"><ele>24.333333333333336</ele><time>2026-04-06T08:40:51.475Z</time></trkpt><trkpt lat="44.8348672" lon="11.0283699"><ele>24.166666666666668</ele><time>2026-04-06T08:40:52.477Z</time></trkpt><trkpt lat="44.8347899" lon="11.0284173"><ele>24.0</ele><time>2026-04-06T08:40:53.476Z</time></trkpt><trkpt lat="44.8347081" lon="11.0284619"><ele>23.833333333333332</ele><time>2026-04-06T08:40:54.477Z</time></trkpt><trkpt lat="44.8346285" lon="11.0285086"><ele>23.666666666666668</ele><time>2026-04-06T08:40:55.476Z</time></trkpt><trkpt lat="44.8345484" lon="11.0285505"><ele>23.5</ele><time>2026-04-06T08:40:56.477Z</time></trkpt><trkpt lat="44.8344679" lon="11.0285855"><ele>23.333333333333336</ele><time>2026-04-06T08:40:57.477Z</time></trkpt><trkpt lat="44.8343834" lon="11.0286081"><ele>23.166666666666668</ele><time>2026-04-06T08:40:58.476Z</time></trkpt><trkpt lat="44.8342988" lon="11.0286286"><ele>23.0</ele><time>2026-04-06T08:40:59.477Z</time></trkpt><trkpt lat="44.8342134" lon="11.0286385"><ele>23.0</ele><time>2026-04-06T08:41:00.477Z</time></trkpt><trkpt lat="44.8341329" lon="11.0286502"><ele>23.0</ele><time>2026-04-06T08:41:01.476Z</time></trkpt><trkpt lat="44.834057" lon="11.0286562"><ele>23.0</ele><time>2026-04-06T08:41:02.476Z</time></trkpt><trkpt lat="44.8339908" lon="11.0286641"><ele>23.0</ele><time>2026-04-06T08:41:03.476Z</time></trkpt><trkpt lat="44.8338818" lon="11.02874"><ele>23.0</ele><time>2026-04-06T08:41:05.476Z</time></trkpt><trkpt lat="44.833836" lon="11.0288203"><ele>23.0</ele><time>2026-04-06T08:41:06.477Z</time></trkpt><trkpt lat="44.8337946" lon="11.0289111"><ele>23.0</ele><time>2026-04-06T08:41:07.476Z</time></trkpt><trkpt lat="44.8337468" lon="11.0290037"><ele>23.0</ele><time>2026-04-06T08:41:08.476Z</time></trkpt><trkpt lat="44.8336905" lon="11.029109"><ele>23.0</ele><time>2026-04-06T08:41:09.477Z</time></trkpt><trkpt lat="44.8336304" lon="11.029207"><ele>23.0</ele><time>2026-04-06T08:41:10.476Z</time></trkpt><trkpt lat="44.8335721" lon="11.029314"><ele>23.0</ele><time>2026-04-06T08:41:11.476Z</time></trkpt><trkpt lat="44.8335108" lon="11.0294229"><ele>23.0</ele><time>2026-04-06T08:41:12.475Z</time></trkpt><trkpt lat="44.833446" lon="11.0295286"><ele>23.0</ele><time>2026-04-06T08:41:13.476Z</time></trkpt><trkpt lat="44.83338" lon="11.0296358"><ele>23.0</ele><time>2026-04-06T08:41:14.475Z</time></trkpt><trkpt lat="44.8333209" lon="11.0297473"><ele>23.0</ele><time>2026-04-06T08:41:15.477Z</time></trkpt><trkpt lat="44.8332635" lon="11.029856"><ele>23.0</ele><time>2026-04-06T08:41:16.476Z</time></trkpt><trkpt lat="44.8332072" lon="11.0299593"><ele>23.0</ele><time>2026-04-06T08:41:17.476Z</time></trkpt><trkpt lat="44.8331523" lon="11.0300606"><ele>23.0</ele><time>2026-04-06T08:41:18.477Z</time></trkpt><trkpt lat="44.8331079" lon="11.0301561"><ele>23.0</ele><time>2026-04-06T08:41:19.476Z</time></trkpt><trkpt lat="44.8330577" lon="11.0302366"><ele>23.0</ele><time>2026-04-06T08:41:20.476Z</time></trkpt><trkpt lat="44.8330056" lon="11.0303222"><ele>23.0</ele><time>2026-04-06T08:41:21.477Z</time></trkpt><trkpt lat="44.8329603" lon="11.030416"><ele>23.0</ele><time>2026-04-06T08:41:22.477Z</time></trkpt><trkpt lat="44.8329106" lon="11.0305054"><ele>23.0</ele><time>2026-04-06T08:41:23.477Z</time></trkpt><trkpt lat="44.8328577" lon="11.0305897"><ele>23.0</ele><time>2026-04-06T08:41:24.476Z</time></trkpt><trkpt lat="44.832808" lon="11.0306846"><ele>23.0</ele><time>2026-04-06T08:41:25.477Z</time></trkpt><trkpt lat="44.8327534" lon="11.0307756"><ele>23.0</ele><time>2026-04-06T08:41:26.477Z</time></trkpt><trkpt lat="44.8326999" lon="11.030864"><ele>23.0</ele><time>2026-04-06T08:41:27.477Z</time></trkpt><trkpt lat="44.8326408" lon="11.030956"><ele>23.0</ele><time>2026-04-06T08:41:28.476Z</time></trkpt><trkpt lat="44.832582" lon="11.0310505"><ele>22.833333333333336</ele><time>2026-04-06T08:41:29.476Z</time></trkpt><trkpt lat="44.8325281" lon="11.0311459"><ele>22.666666666666668</ele><time>2026-04-06T08:41:30.477Z</time></trkpt><trkpt lat="44.83248" lon="11.0312383"><ele>22.5</ele><time>2026-04-06T08:41:31.478Z</time></trkpt><trkpt lat="44.8324311" lon="11.0313279"><ele>22.333333333333332</ele><time>2026-04-06T08:41:32.476Z</time></trkpt><trkpt lat="44.8323829" lon="11.031403"><ele>22.166666666666664</ele><time>2026-04-06T08:41:33.477Z</time></trkpt><trkpt lat="44.8323353" lon="11.0314718"><ele>22.0</ele><time>2026-04-06T08:41:34.477Z</time></trkpt><trkpt lat="44.8322525" lon="11.0315977"><ele>22.0</ele><time>2026-04-06T08:41:36.476Z</time></trkpt><trkpt lat="44.8321749" lon="11.0317309"><ele>22.0</ele><time>2026-04-06T08:41:38.476Z</time></trkpt><trkpt lat="44.8321328" lon="11.0318024"><ele>22.0</ele><time>2026-04-06T08:41:39.476Z</time></trkpt><trkpt lat="44.8320908" lon="11.0318763"><ele>22.0</ele><time>2026-04-06T08:41:40.476Z</time></trkpt><trkpt lat="44.8320489" lon="11.0319521"><ele>22.0</ele><time>2026-04-06T08:41:41.476Z</time></trkpt><trkpt lat="44.8320092" lon="11.0320238"><ele>22.0</ele><time>2026-04-06T08:41:42.477Z</time></trkpt><trkpt lat="44.8319407" lon="11.0321449"><ele>22.0</ele><time>2026-04-06T08:41:44.478Z</time></trkpt><trkpt lat="44.8319119" lon="11.0322919"><ele>22.0</ele><time>2026-04-06T08:41:46.476Z</time></trkpt><trkpt lat="44.8319984" lon="11.032405"><ele>22.0</ele><time>2026-04-06T08:41:48.476Z</time></trkpt><trkpt lat="44.8320474" lon="11.0324718"><ele>22.0</ele><time>2026-04-06T08:41:49.476Z</time></trkpt><trkpt lat="44.8320974" lon="11.032544"><ele>22.0</ele><time>2026-04-06T08:41:50.477Z</time></trkpt><trkpt lat="44.8321586" lon="11.032622"><ele>22.0</ele><time>2026-04-06T08:41:51.477Z</time></trkpt><trkpt lat="44.8322274" lon="11.0327128"><ele>21.833333333333332</ele><time>2026-04-06T08:41:52.477Z</time></trkpt><trkpt lat="44.8322968" lon="11.0328013"><ele>21.666666666666664</ele><time>2026-04-06T08:41:53.477Z</time></trkpt><trkpt lat="44.8323693" lon="11.0328952"><ele>21.5</ele><time>2026-04-06T08:41:54.477Z</time></trkpt><trkpt lat="44.8324416" lon="11.0329861"><ele>21.333333333333332</ele><time>2026-04-06T08:41:55.476Z</time></trkpt><trkpt lat="44.832502" lon="11.033064"><ele>21.166666666666668</ele><time>2026-04-06T08:41:56.477Z</time></trkpt><trkpt lat="44.8325587" lon="11.0331374"><ele>21.0</ele><time>2026-04-06T08:41:57.476Z</time></trkpt><trkpt lat="44.8326165" lon="11.0332131"><ele>21.166666666666668</ele><time>2026-04-06T08:41:58.476Z</time></trkpt><trkpt lat="44.8326784" lon="11.0332913"><ele>21.333333333333332</ele><time>2026-04-06T08:41:59.476Z</time></trkpt><trkpt lat="44.8327373" lon="11.0333647"><ele>21.5</ele><time>2026-04-06T08:42:00.476Z</time></trkpt><trkpt lat="44.8327932" lon="11.0334422"><ele>21.666666666666664</ele><time>2026-04-06T08:42:01.477Z</time></trkpt><trkpt lat="44.8328545" lon="11.0335162"><ele>21.833333333333332</ele><time>2026-04-06T08:42:02.476Z</time></trkpt><trkpt lat="44.8329074" lon="11.0335928"><ele>22.0</ele><time>2026-04-06T08:42:03.476Z</time></trkpt><trkpt lat="44.8329574" lon="11.0336715"><ele>22.166666666666664</ele><time>2026-04-06T08:42:04.476Z</time></trkpt><trkpt lat="44.8330089" lon="11.0337385"><ele>22.333333333333332</ele><time>2026-04-06T08:42:05.476Z</time></trkpt><trkpt lat="44.8330628" lon="11.0338047"><ele>22.5</ele><time>2026-04-06T08:42:06.476Z</time></trkpt><trkpt lat="44.8331092" lon="11.0338753"><ele>22.666666666666668</ele><time>2026-04-06T08:42:07.476Z</time></trkpt><trkpt lat="44.8331568" lon="11.0339397"><ele>22.833333333333336</ele><time>2026-04-06T08:42:08.476Z</time></trkpt><trkpt lat="44.8332499" lon="11.0340396"><ele>23.0</ele><time>2026-04-06T08:42:10.476Z</time></trkpt><trkpt lat="44.8332973" lon="11.0341064"><ele>23.0</ele><time>2026-04-06T08:42:12.476Z</time></trkpt><trkpt lat="44.8333577" lon="11.0341938"><ele>23.0</ele><time>2026-04-06T08:42:20.476Z</time></trkpt><trkpt lat="44.8334302" lon="11.0343178"><ele>23.0</ele><time>2026-04-06T08:42:22.476Z</time></trkpt><trkpt lat="44.8334742" lon="11.0343889"><ele>23.0</ele><time>2026-04-06T08:42:23.477Z</time></trkpt><trkpt lat="44.8335256" lon="11.0344768"><ele>23.0</ele><time>2026-04-06T08:42:24.477Z</time></trkpt><trkpt lat="44.8335755" lon="11.0345634"><ele>23.0</ele><time>2026-04-06T08:42:25.477Z</time></trkpt><trkpt lat="44.8336293" lon="11.0346602"><ele>23.2</ele><time>2026-04-06T08:42:26.476Z</time></trkpt><trkpt lat="44.8336855" lon="11.0347578"><ele>23.4</ele><time>2026-04-06T08:42:27.476Z</time></trkpt><trkpt lat="44.8337449" lon="11.0348561"><ele>23.599999999999998</ele><time>2026-04-06T08:42:28.476Z</time></trkpt><trkpt lat="44.8338077" lon="11.0349641"><ele>23.799999999999997</ele><time>2026-04-06T08:42:29.476Z</time></trkpt><trkpt lat="44.8338664" lon="11.0350738"><ele>24.0</ele><time>2026-04-06T08:42:30.476Z</time></trkpt><trkpt lat="44.8339308" lon="11.0351882"><ele>24.0</ele><time>2026-04-06T08:42:31.476Z</time></trkpt><trkpt lat="44.8340001" lon="11.0352969"><ele>24.0</ele><time>2026-04-06T08:42:32.477Z</time></trkpt><trkpt lat="44.8340695" lon="11.0354066"><ele>24.0</ele><time>2026-04-06T08:42:33.476Z</time></trkpt><trkpt lat="44.834138" lon="11.0355139"><ele>24.0</ele><time>2026-04-06T08:42:34.476Z</time></trkpt><trkpt lat="44.8342068" lon="11.0356237"><ele>24.0</ele><time>2026-04-06T08:42:35.477Z</time></trkpt><trkpt lat="44.8342741" lon="11.0357338"><ele>24.2</ele><time>2026-04-06T08:42:36.476Z</time></trkpt><trkpt lat="44.8343401" lon="11.0358445"><ele>24.4</ele><time>2026-04-06T08:42:37.477Z</time></trkpt><trkpt lat="44.8344091" lon="11.0359555"><ele>24.6</ele><time>2026-04-06T08:42:38.476Z</time></trkpt><trkpt lat="44.8344726" lon="11.036068"><ele>24.8</ele><time>2026-04-06T08:42:39.476Z</time></trkpt><trkpt lat="44.8345422" lon="11.0361779"><ele>25.0</ele><time>2026-04-06T08:42:40.477Z</time></trkpt><trkpt lat="44.8346099" lon="11.0362907"><ele>25.0</ele><time>2026-04-06T08:42:41.477Z</time></trkpt><trkpt lat="44.8346765" lon="11.0364149"><ele>25.0</ele><time>2026-04-06T08:42:42.477Z</time></trkpt><trkpt lat="44.8347467" lon="11.0365412"><ele>25.0</ele><time>2026-04-06T08:42:43.476Z</time></trkpt><trkpt lat="44.834821" lon="11.0366669"><ele>25.0</ele><time>2026-04-06T08:42:44.477Z</time></trkpt><trkpt lat="44.834889" lon="11.0367947"><ele>24.25</ele><time>2026-04-06T08:42:45.477Z</time></trkpt><trkpt lat="44.8349651" lon="11.0369216"><ele>23.5</ele><time>2026-04-06T08:42:46.476Z</time></trkpt><trkpt lat="44.8350365" lon="11.0370494"><ele>22.75</ele><time>2026-04-06T08:42:47.476Z</time></trkpt><trkpt lat="44.8351134" lon="11.0371782"><ele>22.0</ele><time>2026-04-06T08:42:48.477Z</time></trkpt><trkpt lat="44.835188" lon="11.037312"><ele>22.0</ele><time>2026-04-06T08:42:49.476Z</time></trkpt><trkpt lat="44.8352602" lon="11.0374481"><ele>22.0</ele><time>2026-04-06T08:42:50.477Z</time></trkpt><trkpt lat="44.8353329" lon="11.0375963"><ele>22.0</ele><time>2026-04-06T08:42:51.476Z</time></trkpt><trkpt lat="44.8354091" lon="11.0377482"><ele>22.0</ele><time>2026-04-06T08:42:52.476Z</time></trkpt><trkpt lat="44.835483" lon="11.0379031"><ele>21.75</ele><time>2026-04-06T08:42:53.476Z</time></trkpt><trkpt lat="44.8355617" lon="11.0380583"><ele>21.5</ele><time>2026-04-06T08:42:54.476Z</time></trkpt><trkpt lat="44.8356376" lon="11.0382122"><ele>21.25</ele><time>2026-04-06T08:42:55.476Z</time></trkpt><trkpt lat="44.8357041" lon="11.0383547"><ele>21.0</ele><time>2026-04-06T08:42:56.476Z</time></trkpt><trkpt lat="44.8357692" lon="11.0384898"><ele>21.0</ele><time>2026-04-06T08:42:57.478Z</time></trkpt><trkpt lat="44.8358308" lon="11.0386234"><ele>21.0</ele><time>2026-04-06T08:42:58.476Z</time></trkpt><trkpt lat="44.835889" lon="11.0387608"><ele>21.0</ele><time>2026-04-06T08:42:59.476Z</time></trkpt><trkpt lat="44.8359534" lon="11.0388943"><ele>21.0</ele><time>2026-04-06T08:43:00.476Z</time></trkpt><trkpt lat="44.836014" lon="11.0390306"><ele>21.5</ele><time>2026-04-06T08:43:01.476Z</time></trkpt><trkpt lat="44.8360833" lon="11.0391747"><ele>22.0</ele><time>2026-04-06T08:43:02.477Z</time></trkpt><trkpt lat="44.8361462" lon="11.0393144"><ele>22.5</ele><time>2026-04-06T08:43:03.477Z</time></trkpt><trkpt lat="44.8362062" lon="11.0394383"><ele>23.0</ele><time>2026-04-06T08:43:04.477Z</time></trkpt><trkpt lat="44.8362595" lon="11.0395619"><ele>23.0</ele><time>2026-04-06T08:43:05.476Z</time></trkpt><trkpt lat="44.8363141" lon="11.039678"><ele>23.0</ele><time>2026-04-06T08:43:06.476Z</time></trkpt><trkpt lat="44.8363563" lon="11.0397793"><ele>23.0</ele><time>2026-04-06T08:43:07.477Z</time></trkpt><trkpt lat="44.8363859" lon="11.0398807"><ele>23.0</ele><time>2026-04-06T08:43:08.476Z</time></trkpt><trkpt lat="44.8364012" lon="11.0399789"><ele>23.0</ele><time>2026-04-06T08:43:09.476Z</time></trkpt><trkpt lat="44.8364003" lon="11.0401432"><ele>23.0</ele><time>2026-04-06T08:43:11.476Z</time></trkpt><trkpt lat="44.8363773" lon="11.040232"><ele>22.599999999999998</ele><time>2026-04-06T08:43:12.477Z</time></trkpt><trkpt lat="44.8363341" lon="11.0403206"><ele>22.2</ele><time>2026-04-06T08:43:13.477Z</time></trkpt><trkpt lat="44.8362755" lon="11.0404095"><ele>21.8</ele><time>2026-04-06T08:43:14.477Z</time></trkpt><trkpt lat="44.8362051" lon="11.0404941"><ele>21.4</ele><time>2026-04-06T08:43:15.477Z</time></trkpt><trkpt lat="44.836138" lon="11.0405847"><ele>21.0</ele><time>2026-04-06T08:43:16.478Z</time></trkpt><trkpt lat="44.8360597" lon="11.0406774"><ele>21.0</ele><time>2026-04-06T08:43:17.476Z</time></trkpt><trkpt lat="44.8359833" lon="11.0407724"><ele>21.0</ele><time>2026-04-06T08:43:18.476Z</time></trkpt><trkpt lat="44.8359042" lon="11.0408712"><ele>21.0</ele><time>2026-04-06T08:43:19.476Z</time></trkpt><trkpt lat="44.8358262" lon="11.0409741"><ele>21.0</ele><time>2026-04-06T08:43:20.476Z</time></trkpt><trkpt lat="44.8357474" lon="11.0410737"><ele>21.0</ele><time>2026-04-06T08:43:21.477Z</time></trkpt><trkpt lat="44.835671" lon="11.041169"><ele>21.4</ele><time>2026-04-06T08:43:22.476Z</time></trkpt><trkpt lat="44.8355929" lon="11.0412656"><ele>21.8</ele><time>2026-04-06T08:43:23.476Z</time></trkpt><trkpt lat="44.8355147" lon="11.0413682"><ele>22.2</ele><time>2026-04-06T08:43:24.477Z</time></trkpt><trkpt lat="44.8354341" lon="11.0414689"><ele>22.599999999999998</ele><time>2026-04-06T08:43:25.477Z</time></trkpt><trkpt lat="44.8353522" lon="11.0415709"><ele>23.0</ele><time>2026-04-06T08:43:26.476Z</time></trkpt><trkpt lat="44.8352665" lon="11.0416705"><ele>23.0</ele><time>2026-04-06T08:43:27.476Z</time></trkpt><trkpt lat="44.8351854" lon="11.0417677"><ele>23.0</ele><time>2026-04-06T08:43:28.477Z</time></trkpt><trkpt lat="44.8351024" lon="11.0418691"><ele>23.0</ele><time>2026-04-06T08:43:29.476Z</time></trkpt><trkpt lat="44.8350212" lon="11.0419751"><ele>23.0</ele><time>2026-04-06T08:43:30.476Z</time></trkpt><trkpt lat="44.834945" lon="11.04208"><ele>23.0</ele><time>2026-04-06T08:43:31.476Z</time></trkpt><trkpt lat="44.8348697" lon="11.0421826"><ele>22.799999999999997</ele><time>2026-04-06T08:43:32.477Z</time></trkpt><trkpt lat="44.8347947" lon="11.042285"><ele>22.6</ele><time>2026-04-06T08:43:33.477Z</time></trkpt><trkpt lat="44.8347356" lon="11.04238"><ele>22.4</ele><time>2026-04-06T08:43:34.476Z</time></trkpt><trkpt lat="44.8346764" lon="11.0424671"><ele>22.200000000000003</ele><time>2026-04-06T08:43:35.476Z</time></trkpt><trkpt lat="44.8346278" lon="11.0425514"><ele>22.0</ele><time>2026-04-06T08:43:36.476Z</time></trkpt><trkpt lat="44.8345948" lon="11.0426794"><ele>21.8</ele><time>2026-04-06T08:43:38.476Z</time></trkpt><trkpt lat="44.8346242" lon="11.0427992"><ele>21.6</ele><time>2026-04-06T08:43:40.476Z</time></trkpt><trkpt lat="44.8347137" lon="11.0429356"><ele>21.400000000000002</ele><time>2026-04-06T08:43:42.477Z</time></trkpt><trkpt lat="44.8347658" lon="11.0430284"><ele>21.200000000000003</ele><time>2026-04-06T08:43:43.476Z</time></trkpt><trkpt lat="44.8348206" lon="11.0431331"><ele>21.0</ele><time>2026-04-06T08:43:44.478Z</time></trkpt><trkpt lat="44.834885" lon="11.0432387"><ele>20.6</ele><time>2026-04-06T08:43:45.476Z</time></trkpt><trkpt lat="44.8349445" lon="11.0433491"><ele>20.200000000000003</ele><time>2026-04-06T08:43:46.478Z</time></trkpt><trkpt lat="44.8350098" lon="11.0434606"><ele>19.799999999999997</ele><time>2026-04-06T08:43:47.476Z</time></trkpt><trkpt lat="44.8350728" lon="11.0435685"><ele>19.4</ele><time>2026-04-06T08:43:48.476Z</time></trkpt><trkpt lat="44.8351338" lon="11.0436634"><ele>19.0</ele><time>2026-04-06T08:43:49.476Z</time></trkpt><trkpt lat="44.8351932" lon="11.0437724"><ele>18.8</ele><time>2026-04-06T08:43:50.476Z</time></trkpt><trkpt lat="44.8352509" lon="11.0438779"><ele>18.599999999999998</ele><time>2026-04-06T08:43:51.476Z</time></trkpt><trkpt lat="44.8353074" lon="11.0439852"><ele>18.4</ele><time>2026-04-06T08:43:52.477Z</time></trkpt><trkpt lat="44.835365" lon="11.0440985"><ele>18.2</ele><time>2026-04-06T08:43:53.476Z</time></trkpt><trkpt lat="44.8354263" lon="11.0442084"><ele>18.0</ele><time>2026-04-06T08:43:54.476Z</time></trkpt><trkpt lat="44.8354872" lon="11.0443225"><ele>18.6</ele><time>2026-04-06T08:43:55.476Z</time></trkpt><trkpt lat="44.8355466" lon="11.0444329"><ele>19.200000000000003</ele><time>2026-04-06T08:43:56.476Z</time></trkpt><trkpt lat="44.8356034" lon="11.0445369"><ele>19.8</ele><time>2026-04-06T08:43:57.477Z</time></trkpt><trkpt lat="44.835658" lon="11.0446344"><ele>20.400000000000002</ele><time>2026-04-06T08:43:58.476Z</time></trkpt><trkpt lat="44.8357162" lon="11.044733"><ele>21.0</ele><time>2026-04-06T08:43:59.476Z</time></trkpt><trkpt lat="44.835776" lon="11.0448328"><ele>21.0</ele><time>2026-04-06T08:44:00.477Z</time></trkpt><trkpt lat="44.835836" lon="11.044935"><ele>21.0</ele><time>2026-04-06T08:44:01.478Z</time></trkpt><trkpt lat="44.8358925" lon="11.0450363"><ele>21.0</ele><time>2026-04-06T08:44:02.476Z</time></trkpt><trkpt lat="44.8359474" lon="11.0451365"><ele>21.0</ele><time>2026-04-06T08:44:03.476Z</time></trkpt><trkpt lat="44.8360032" lon="11.0452262"><ele>21.0</ele><time>2026-04-06T08:44:04.478Z</time></trkpt><trkpt lat="44.836054" lon="11.0453168"><ele>21.0</ele><time>2026-04-06T08:44:05.476Z</time></trkpt><trkpt lat="44.8361079" lon="11.0454044"><ele>21.0</ele><time>2026-04-06T08:44:06.476Z</time></trkpt><trkpt lat="44.8361609" lon="11.0454968"><ele>21.0</ele><time>2026-04-06T08:44:07.477Z</time></trkpt><trkpt lat="44.8362139" lon="11.0455877"><ele>21.0</ele><time>2026-04-06T08:44:08.476Z</time></trkpt><trkpt lat="44.8362689" lon="11.0456849"><ele>21.0</ele><time>2026-04-06T08:44:09.476Z</time></trkpt><trkpt lat="44.836319" lon="11.0457864"><ele>21.0</ele><time>2026-04-06T08:44:10.477Z</time></trkpt><trkpt lat="44.8363747" lon="11.045884"><ele>21.0</ele><time>2026-04-06T08:44:11.476Z</time></trkpt><trkpt lat="44.8364292" lon="11.0459729"><ele>21.0</ele><time>2026-04-06T08:44:12.477Z</time></trkpt><trkpt lat="44.8364794" lon="11.0460658"><ele>21.0</ele><time>2026-04-06T08:44:13.477Z</time></trkpt><trkpt lat="44.8365289" lon="11.0461538"><ele>21.0</ele><time>2026-04-06T08:44:14.476Z</time></trkpt><trkpt lat="44.8365795" lon="11.0462416"><ele>21.0</ele><time>2026-04-06T08:44:15.477Z</time></trkpt><trkpt lat="44.8366321" lon="11.0463281"><ele>21.0</ele><time>2026-04-06T08:44:16.477Z</time></trkpt><trkpt lat="44.8366836" lon="11.0464079"><ele>21.0</ele><time>2026-04-06T08:44:17.476Z</time></trkpt><trkpt lat="44.8367342" lon="11.0464964"><ele>21.0</ele><time>2026-04-06T08:44:18.477Z</time></trkpt><trkpt lat="44.8367758" lon="11.0465839"><ele>21.0</ele><time>2026-04-06T08:44:19.477Z</time></trkpt><trkpt lat="44.8368206" lon="11.0466624"><ele>21.0</ele><time>2026-04-06T08:44:20.476Z</time></trkpt><trkpt lat="44.8368661" lon="11.0467437"><ele>21.0</ele><time>2026-04-06T08:44:21.476Z</time></trkpt><trkpt lat="44.836934" lon="11.0468717"><ele>21.0</ele><time>2026-04-06T08:44:23.477Z</time></trkpt><trkpt lat="44.8369889" lon="11.0469719"><ele>21.0</ele><time>2026-04-06T08:44:25.476Z</time></trkpt><trkpt lat="44.8370316" lon="11.0470415"><ele>21.0</ele><time>2026-04-06T08:44:27.477Z</time></trkpt><trkpt lat="44.8370813" lon="11.0471263"><ele>21.0</ele><time>2026-04-06T08:44:30.477Z</time></trkpt><trkpt lat="44.8371449" lon="11.0472411"><ele>21.0</ele><time>2026-04-06T08:44:32.476Z</time></trkpt><trkpt lat="44.8371888" lon="11.0473089"><ele>21.0</ele><time>2026-04-06T08:44:33.477Z</time></trkpt><trkpt lat="44.8372283" lon="11.0473795"><ele>21.0</ele><time>2026-04-06T08:44:34.476Z</time></trkpt><trkpt lat="44.8372678" lon="11.0474497"><ele>21.0</ele><time>2026-04-06T08:44:35.477Z</time></trkpt><trkpt lat="44.8373076" lon="11.0475222"><ele>21.0</ele><time>2026-04-06T08:44:36.476Z</time></trkpt><trkpt lat="44.8373507" lon="11.0475936"><ele>21.0</ele><time>2026-04-06T08:44:37.476Z</time></trkpt><trkpt lat="44.8373953" lon="11.0476665"><ele>21.0</ele><time>2026-04-06T08:44:38.476Z</time></trkpt><trkpt lat="44.8374381" lon="11.0477389"><ele>21.0</ele><time>2026-04-06T08:44:39.476Z</time></trkpt><trkpt lat="44.8374794" lon="11.0478105"><ele>21.0</ele><time>2026-04-06T08:44:40.476Z</time></trkpt><trkpt lat="44.8375272" lon="11.0478845"><ele>21.0</ele><time>2026-04-06T08:44:41.476Z</time></trkpt><trkpt lat="44.8375695" lon="11.0479603"><ele>21.0</ele><time>2026-04-06T08:44:42.476Z</time></trkpt><trkpt lat="44.83765" lon="11.0481061"><ele>21.0</ele><time>2026-04-06T08:44:44.477Z</time></trkpt><trkpt lat="44.8376939" lon="11.0481761"><ele>21.0</ele><time>2026-04-06T08:44:45.476Z</time></trkpt><trkpt lat="44.8377358" lon="11.0482499"><ele>21.0</ele><time>2026-04-06T08:44:46.477Z</time></trkpt><trkpt lat="44.8377776" lon="11.0483274"><ele>21.0</ele><time>2026-04-06T08:44:47.476Z</time></trkpt><trkpt lat="44.8378209" lon="11.048399"><ele>21.0</ele><time>2026-04-06T08:44:48.476Z</time></trkpt><trkpt lat="44.8378976" lon="11.0485249"><ele>21.0</ele><time>2026-04-06T08:44:50.476Z</time></trkpt><trkpt lat="44.8379641" lon="11.0486529"><ele>21.0</ele><time>2026-04-06T08:44:52.476Z</time></trkpt><trkpt lat="44.8380224" lon="11.0487706"><ele>21.0</ele><time>2026-04-06T08:44:54.476Z</time></trkpt><trkpt lat="44.8380818" lon="11.0488764"><ele>21.0</ele><time>2026-04-06T08:44:56.477Z</time></trkpt><trkpt lat="44.838131" lon="11.0489585"><ele>21.0</ele><time>2026-04-06T08:44:58.478Z</time></trkpt><trkpt lat="44.8382018" lon="11.0490618"><ele>21.0</ele><time>2026-04-06T08:45:01.476Z</time></trkpt><trkpt lat="44.8382644" lon="11.0491701"><ele>20.8</ele><time>2026-04-06T08:45:03.476Z</time></trkpt><trkpt lat="44.8383386" lon="11.0492999"><ele>20.6</ele><time>2026-04-06T08:45:05.476Z</time></trkpt><trkpt lat="44.8383798" lon="11.0493678"><ele>20.4</ele><time>2026-04-06T08:45:06.476Z</time></trkpt><trkpt lat="44.8384517" lon="11.0494913"><ele>20.2</ele><time>2026-04-06T08:45:08.477Z</time></trkpt><trkpt lat="44.8385187" lon="11.0496211"><ele>20.0</ele><time>2026-04-06T08:45:10.476Z</time></trkpt><trkpt lat="44.8385582" lon="11.0497614"><ele>20.0</ele><time>2026-04-06T08:45:12.477Z</time></trkpt><trkpt lat="44.8385452" lon="11.0498861"><ele>20.0</ele><time>2026-04-06T08:45:14.478Z</time></trkpt><trkpt lat="44.838495" lon="11.0499872"><ele>20.0</ele><time>2026-04-06T08:45:16.476Z</time></trkpt><trkpt lat="44.8384379" lon="11.0500941"><ele>20.0</ele><time>2026-04-06T08:45:18.476Z</time></trkpt><trkpt lat="44.8383708" lon="11.050205"><ele>20.0</ele><time>2026-04-06T08:45:20.476Z</time></trkpt><trkpt lat="44.8383222" lon="11.05029"><ele>19.8</ele><time>2026-04-06T08:45:22.476Z</time></trkpt><trkpt lat="44.8382666" lon="11.0503633"><ele>19.6</ele><time>2026-04-06T08:45:24.476Z</time></trkpt><trkpt lat="44.8382237" lon="11.0504606"><ele>19.4</ele><time>2026-04-06T08:45:26.477Z</time></trkpt><trkpt lat="44.838161" lon="11.0505591"><ele>19.2</ele><time>2026-04-06T08:45:28.478Z</time></trkpt><trkpt lat="44.8380834" lon="11.0506654"><ele>19.0</ele><time>2026-04-06T08:45:30.476Z</time></trkpt><trkpt lat="44.8380105" lon="11.0507974"><ele>19.333333333333332</ele><time>2026-04-06T08:45:32.476Z</time></trkpt><trkpt lat="44.837963" lon="11.0508675"><ele>19.666666666666664</ele><time>2026-04-06T08:45:33.477Z</time></trkpt><trkpt lat="44.8379233" lon="11.0509366"><ele>20.0</ele><time>2026-04-06T08:45:34.476Z</time></trkpt><trkpt lat="44.8378719" lon="11.0510178"><ele>20.333333333333332</ele><time>2026-04-06T08:45:35.477Z</time></trkpt><trkpt lat="44.8378213" lon="11.0511024"><ele>20.666666666666668</ele><time>2026-04-06T08:45:36.476Z</time></trkpt><trkpt lat="44.8377709" lon="11.0511902"><ele>21.0</ele><time>2026-04-06T08:45:37.476Z</time></trkpt><trkpt lat="44.8377168" lon="11.0512861"><ele>21.0</ele><time>2026-04-06T08:45:38.476Z</time></trkpt><trkpt lat="44.8376657" lon="11.0513725"><ele>21.0</ele><time>2026-04-06T08:45:39.475Z</time></trkpt><trkpt lat="44.8376069" lon="11.0514721"><ele>21.0</ele><time>2026-04-06T08:45:40.476Z</time></trkpt><trkpt lat="44.8375516" lon="11.0515609"><ele>21.0</ele><time>2026-04-06T08:45:41.476Z</time></trkpt><trkpt lat="44.837491" lon="11.0516667"><ele>21.0</ele><time>2026-04-06T08:45:42.476Z</time></trkpt><trkpt lat="44.8374255" lon="11.0517869"><ele>21.0</ele><time>2026-04-06T08:45:43.477Z</time></trkpt><trkpt lat="44.8373692" lon="11.0519071"><ele>21.0</ele><time>2026-04-06T08:45:44.476Z</time></trkpt><trkpt lat="44.8373128" lon="11.0520382"><ele>21.0</ele><time>2026-04-06T08:45:45.476Z</time></trkpt><trkpt lat="44.8372643" lon="11.0521742"><ele>21.0</ele><time>2026-04-06T08:45:46.476Z</time></trkpt><trkpt lat="44.83722" lon="11.0523224"><ele>21.0</ele><time>2026-04-06T08:45:47.476Z</time></trkpt><trkpt lat="44.837175" lon="11.0524694"><ele>21.25</ele><time>2026-04-06T08:45:48.477Z</time></trkpt><trkpt lat="44.8371192" lon="11.0526251"><ele>21.5</ele><time>2026-04-06T08:45:49.476Z</time></trkpt><trkpt lat="44.8370665" lon="11.0527787"><ele>21.75</ele><time>2026-04-06T08:45:50.477Z</time></trkpt><trkpt lat="44.8370208" lon="11.0529203"><ele>22.0</ele><time>2026-04-06T08:45:51.477Z</time></trkpt><trkpt lat="44.8369694" lon="11.0530462"><ele>22.0</ele><time>2026-04-06T08:45:52.478Z</time></trkpt><trkpt lat="44.8369252" lon="11.053156"><ele>22.0</ele><time>2026-04-06T08:45:53.476Z</time></trkpt><trkpt lat="44.836882" lon="11.0532607"><ele>22.0</ele><time>2026-04-06T08:45:54.477Z</time></trkpt><trkpt lat="44.836835" lon="11.0533485"><ele>22.0</ele><time>2026-04-06T08:45:55.476Z</time></trkpt><trkpt lat="44.836785" lon="11.0534236"><ele>22.0</ele><time>2026-04-06T08:45:56.476Z</time></trkpt><trkpt lat="44.8367294" lon="11.0534674"><ele>22.0</ele><time>2026-04-06T08:45:57.478Z</time></trkpt><trkpt lat="44.8366619" lon="11.0534818"><ele>22.0</ele><time>2026-04-06T08:45:58.476Z</time></trkpt><trkpt lat="44.8365789" lon="11.0534701"><ele>22.0</ele><time>2026-04-06T08:45:59.477Z</time></trkpt><trkpt lat="44.8364934" lon="11.0534512"><ele>22.0</ele><time>2026-04-06T08:46:00.476Z</time></trkpt><trkpt lat="44.8364027" lon="11.053428"><ele>22.0</ele><time>2026-04-06T08:46:01.476Z</time></trkpt><trkpt lat="44.8363103" lon="11.0534023"><ele>22.0</ele><time>2026-04-06T08:46:02.476Z</time></trkpt><trkpt lat="44.8362161" lon="11.0533739"><ele>22.0</ele><time>2026-04-06T08:46:03.477Z</time></trkpt><trkpt lat="44.8361199" lon="11.053345"><ele>22.0</ele><time>2026-04-06T08:46:04.477Z</time></trkpt><trkpt lat="44.8360222" lon="11.0533071"><ele>22.0</ele><time>2026-04-06T08:46:05.477Z</time></trkpt><trkpt lat="44.8359239" lon="11.0532578"><ele>22.0</ele><time>2026-04-06T08:46:06.477Z</time></trkpt><trkpt lat="44.8358183" lon="11.0532005"><ele>22.0</ele><time>2026-04-06T08:46:07.477Z</time></trkpt><trkpt lat="44.835713" lon="11.0531314"><ele>21.75</ele><time>2026-04-06T08:46:08.476Z</time></trkpt><trkpt lat="44.8356063" lon="11.0530613"><ele>21.5</ele><time>2026-04-06T08:46:09.477Z</time></trkpt><trkpt lat="44.8354986" lon="11.0529861"><ele>21.25</ele><time>2026-04-06T08:46:10.476Z</time></trkpt><trkpt lat="44.8353917" lon="11.0529039"><ele>21.0</ele><time>2026-04-06T08:46:11.477Z</time></trkpt><trkpt lat="44.8352846" lon="11.0528242"><ele>21.0</ele><time>2026-04-06T08:46:12.476Z</time></trkpt><trkpt lat="44.8351828" lon="11.0527459"><ele>21.0</ele><time>2026-04-06T08:46:13.477Z</time></trkpt><trkpt lat="44.8350864" lon="11.0526736"><ele>21.0</ele><time>2026-04-06T08:46:14.477Z</time></trkpt><trkpt lat="44.8350049" lon="11.0526047"><ele>21.0</ele><time>2026-04-06T08:46:15.476Z</time></trkpt><trkpt lat="44.8349295" lon="11.0525364"><ele>21.0</ele><time>2026-04-06T08:46:16.476Z</time></trkpt><trkpt lat="44.8348626" lon="11.052491"><ele>20.833333333333332</ele><time>2026-04-06T08:46:17.477Z</time></trkpt><trkpt lat="44.8347983" lon="11.0524762"><ele>20.666666666666668</ele><time>2026-04-06T08:46:18.477Z</time></trkpt><trkpt lat="44.8347111" lon="11.0525109"><ele>20.5</ele><time>2026-04-06T08:46:20.476Z</time></trkpt><trkpt lat="44.8346904" lon="11.0526192"><ele>20.333333333333336</ele><time>2026-04-06T08:46:50.476Z</time></trkpt><trkpt lat="44.8347429" lon="11.0526823"><ele>20.166666666666668</ele><time>2026-04-06T08:46:51.476Z</time></trkpt><trkpt lat="44.8348159" lon="11.052749"><ele>20.0</ele><time>2026-04-06T08:46:52.476Z</time></trkpt><trkpt lat="44.8349121" lon="11.052825"><ele>20.0</ele><time>2026-04-06T08:46:53.477Z</time></trkpt><trkpt lat="44.8350252" lon="11.0529266"><ele>20.0</ele><time>2026-04-06T08:46:54.477Z</time></trkpt><trkpt lat="44.8351515" lon="11.0530371"><ele>20.0</ele><time>2026-04-06T08:46:55.476Z</time></trkpt><trkpt lat="44.8352881" lon="11.0531458"><ele>20.0</ele><time>2026-04-06T08:46:56.477Z</time></trkpt><trkpt lat="44.8354258" lon="11.0532537"><ele>20.333333333333336</ele><time>2026-04-06T08:46:57.477Z</time></trkpt><trkpt lat="44.8355687" lon="11.0533616"><ele>20.666666666666668</ele><time>2026-04-06T08:46:58.476Z</time></trkpt><trkpt lat="44.8357073" lon="11.0534627"><ele>21.0</ele><time>2026-04-06T08:46:59.477Z</time></trkpt><trkpt lat="44.8358519" lon="11.0535487"><ele>21.25</ele><time>2026-04-06T08:47:00.476Z</time></trkpt><trkpt lat="44.8359943" lon="11.0536183"><ele>21.5</ele><time>2026-04-06T08:47:01.477Z</time></trkpt><trkpt lat="44.8361313" lon="11.0536701"><ele>21.75</ele><time>2026-04-06T08:47:02.476Z</time></trkpt><trkpt lat="44.8362576" lon="11.0537087"><ele>22.0</ele><time>2026-04-06T08:47:03.477Z</time></trkpt><trkpt lat="44.8363838" lon="11.0537422"><ele>22.0</ele><time>2026-04-06T08:47:04.476Z</time></trkpt><trkpt lat="44.8364989" lon="11.0537816"><ele>22.0</ele><time>2026-04-06T08:47:05.477Z</time></trkpt><trkpt lat="44.8365995" lon="11.0538291"><ele>22.0</ele><time>2026-04-06T08:47:06.477Z</time></trkpt><trkpt lat="44.8366854" lon="11.0538827"><ele>22.0</ele><time>2026-04-06T08:47:07.476Z</time></trkpt><trkpt lat="44.8367551" lon="11.0539343"><ele>22.0</ele><time>2026-04-06T08:47:08.477Z</time></trkpt><trkpt lat="44.8368192" lon="11.0539984"><ele>21.833333333333332</ele><time>2026-04-06T08:47:09.476Z</time></trkpt><trkpt lat="44.8368694" lon="11.0540954"><ele>21.666666666666664</ele><time>2026-04-06T08:47:10.476Z</time></trkpt><trkpt lat="44.8369188" lon="11.0542039"><ele>21.5</ele><time>2026-04-06T08:47:11.476Z</time></trkpt><trkpt lat="44.8369738" lon="11.0542905"><ele>21.333333333333332</ele><time>2026-04-06T08:47:12.477Z</time></trkpt><trkpt lat="44.8370364" lon="11.0543516"><ele>21.166666666666668</ele><time>2026-04-06T08:47:13.476Z</time></trkpt><trkpt lat="44.8371107" lon="11.0543828"><ele>21.0</ele><time>2026-04-06T08:47:14.477Z</time></trkpt><trkpt lat="44.8371847" lon="11.0543798"><ele>21.0</ele><time>2026-04-06T08:47:15.476Z</time></trkpt><trkpt lat="44.8372551" lon="11.0543387"><ele>21.0</ele><time>2026-04-06T08:47:16.476Z</time></trkpt><trkpt lat="44.8373101" lon="11.0542674"><ele>21.0</ele><time>2026-04-06T08:47:17.476Z</time></trkpt><trkpt lat="44.8373627" lon="11.054167"><ele>21.0</ele><time>2026-04-06T08:47:18.476Z</time></trkpt><trkpt lat="44.8374197" lon="11.054052"><ele>21.0</ele><time>2026-04-06T08:47:19.478Z</time></trkpt><trkpt lat="44.8374975" lon="11.0539448"><ele>21.0</ele><time>2026-04-06T08:47:20.477Z</time></trkpt><trkpt lat="44.8375959" lon="11.0538588"><ele>20.5</ele><time>2026-04-06T08:47:21.476Z</time></trkpt><trkpt lat="44.8377111" lon="11.0537918"><ele>20.0</ele><time>2026-04-06T08:47:22.477Z</time></trkpt><trkpt lat="44.8378381" lon="11.0537282"><ele>19.5</ele><time>2026-04-06T08:47:23.476Z</time></trkpt><trkpt lat="44.8379792" lon="11.0536767"><ele>19.0</ele><time>2026-04-06T08:47:24.476Z</time></trkpt><trkpt lat="44.8381439" lon="11.0536032"><ele>19.0</ele><time>2026-04-06T08:47:25.477Z</time></trkpt><trkpt lat="44.8383163" lon="11.0535062"><ele>19.0</ele><time>2026-04-06T08:47:26.476Z</time></trkpt><trkpt lat="44.8384849" lon="11.0533958"><ele>19.0</ele><time>2026-04-06T08:47:27.477Z</time></trkpt><trkpt lat="44.8386584" lon="11.0532769"><ele>19.0</ele><time>2026-04-06T08:47:28.477Z</time></trkpt><trkpt lat="44.8388211" lon="11.053172"><ele>19.0</ele><time>2026-04-06T08:47:29.477Z</time></trkpt><trkpt lat="44.8389899" lon="11.0530602"><ele>19.0</ele><time>2026-04-06T08:47:30.478Z</time></trkpt><trkpt lat="44.8391548" lon="11.0529342"><ele>19.0</ele><time>2026-04-06T08:47:31.477Z</time></trkpt><trkpt lat="44.8393129" lon="11.0528074"><ele>19.0</ele><time>2026-04-06T08:47:32.477Z</time></trkpt><trkpt lat="44.8394644" lon="11.0526894"><ele>19.0</ele><time>2026-04-06T08:47:33.476Z</time></trkpt><trkpt lat="44.839616" lon="11.0525796"><ele>19.0</ele><time>2026-04-06T08:47:34.476Z</time></trkpt><trkpt lat="44.8397628" lon="11.0524638"><ele>19.0</ele><time>2026-04-06T08:47:35.476Z</time></trkpt><trkpt lat="44.8399103" lon="11.0523473"><ele>19.0</ele><time>2026-04-06T08:47:36.476Z</time></trkpt><trkpt lat="44.8400619" lon="11.0522292"><ele>19.333333333333332</ele><time>2026-04-06T08:47:37.476Z</time></trkpt><trkpt lat="44.8402073" lon="11.0521164"><ele>19.666666666666668</ele><time>2026-04-06T08:47:38.476Z</time></trkpt><trkpt lat="44.8403568" lon="11.0519985"><ele>20.0</ele><time>2026-04-06T08:47:39.476Z</time></trkpt><trkpt lat="44.8405039" lon="11.0518765"><ele>20.0</ele><time>2026-04-06T08:47:40.478Z</time></trkpt><trkpt lat="44.8406577" lon="11.0517628"><ele>20.0</ele><time>2026-04-06T08:47:41.477Z</time></trkpt><trkpt lat="44.8408037" lon="11.0516454"><ele>20.0</ele><time>2026-04-06T08:47:42.476Z</time></trkpt><trkpt lat="44.8409496" lon="11.051529"><ele>19.666666666666668</ele><time>2026-04-06T08:47:43.476Z</time></trkpt><trkpt lat="44.8410918" lon="11.0514109"><ele>19.333333333333332</ele><time>2026-04-06T08:47:44.476Z</time></trkpt><trkpt lat="44.8412364" lon="11.0512977"><ele>19.0</ele><time>2026-04-06T08:47:45.477Z</time></trkpt><trkpt lat="44.8413851" lon="11.0511869"><ele>19.0</ele><time>2026-04-06T08:47:46.477Z</time></trkpt><trkpt lat="44.8415358" lon="11.0510681"><ele>19.0</ele><time>2026-04-06T08:47:47.476Z</time></trkpt><trkpt lat="44.8416811" lon="11.0509614"><ele>19.0</ele><time>2026-04-06T08:47:48.476Z</time></trkpt><trkpt lat="44.8418265" lon="11.0508527"><ele>18.333333333333332</ele><time>2026-04-06T08:47:49.476Z</time></trkpt><trkpt lat="44.8419676" lon="11.0507386"><ele>17.666666666666668</ele><time>2026-04-06T08:47:50.475Z</time></trkpt><trkpt lat="44.8421109" lon="11.0506256"><ele>17.0</ele><time>2026-04-06T08:47:51.476Z</time></trkpt><trkpt lat="44.8422539" lon="11.0505186"><ele>17.0</ele><time>2026-04-06T08:47:52.476Z</time></trkpt><trkpt lat="44.8423996" lon="11.0504204"><ele>17.0</ele><time>2026-04-06T08:47:53.477Z</time></trkpt><trkpt lat="44.8425507" lon="11.0503297"><ele>17.0</ele><time>2026-04-06T08:47:54.476Z</time></trkpt><trkpt lat="44.8427042" lon="11.0502409"><ele>17.333333333333336</ele><time>2026-04-06T08:47:55.476Z</time></trkpt><trkpt lat="44.8428477" lon="11.0501419"><ele>17.666666666666668</ele><time>2026-04-06T08:47:56.477Z</time></trkpt><trkpt lat="44.8430061" lon="11.0500661"><ele>18.0</ele><time>2026-04-06T08:47:57.478Z</time></trkpt><trkpt lat="44.8431573" lon="11.049987"><ele>18.333333333333332</ele><time>2026-04-06T08:47:58.476Z</time></trkpt><trkpt lat="44.8433082" lon="11.0499206"><ele>18.666666666666664</ele><time>2026-04-06T08:47:59.476Z</time></trkpt><trkpt lat="44.8434696" lon="11.0498551"><ele>19.0</ele><time>2026-04-06T08:48:00.477Z</time></trkpt><trkpt lat="44.8436319" lon="11.0497936"><ele>19.0</ele><time>2026-04-06T08:48:01.477Z</time></trkpt><trkpt lat="44.8437927" lon="11.0497358"><ele>19.0</ele><time>2026-04-06T08:48:02.477Z</time></trkpt><trkpt lat="44.8439581" lon="11.0496845"><ele>19.0</ele><time>2026-04-06T08:48:03.476Z</time></trkpt><trkpt lat="44.8441241" lon="11.049644"><ele>19.0</ele><time>2026-04-06T08:48:04.476Z</time></trkpt><trkpt lat="44.8442915" lon="11.0496094"><ele>19.0</ele><time>2026-04-06T08:48:05.476Z</time></trkpt><trkpt lat="44.84446" lon="11.0495761"><ele>19.0</ele><time>2026-04-06T08:48:06.476Z</time></trkpt><trkpt lat="44.8446321" lon="11.0495498"><ele>19.333333333333332</ele><time>2026-04-06T08:48:07.477Z</time></trkpt><trkpt lat="44.8448026" lon="11.0495321"><ele>19.666666666666668</ele><time>2026-04-06T08:48:08.476Z</time></trkpt><trkpt lat="44.844975" lon="11.0495112"><ele>20.0</ele><time>2026-04-06T08:48:09.476Z</time></trkpt><trkpt lat="44.8451456" lon="11.0494917"><ele>20.0</ele><time>2026-04-06T08:48:10.477Z</time></trkpt><trkpt lat="44.8453197" lon="11.0494806"><ele>20.0</ele><time>2026-04-06T08:48:11.477Z</time></trkpt><trkpt lat="44.8454944" lon="11.0494627"><ele>20.0</ele><time>2026-04-06T08:48:12.477Z</time></trkpt><trkpt lat="44.8456675" lon="11.0494484"><ele>20.0</ele><time>2026-04-06T08:48:13.476Z</time></trkpt><trkpt lat="44.8458395" lon="11.049442"><ele>20.0</ele><time>2026-04-06T08:48:14.476Z</time></trkpt><trkpt lat="44.8460125" lon="11.0494299"><ele>20.0</ele><time>2026-04-06T08:48:15.477Z</time></trkpt><trkpt lat="44.8461856" lon="11.0494098"><ele>20.0</ele><time>2026-04-06T08:48:16.477Z</time></trkpt><trkpt lat="44.8463519" lon="11.0494079"><ele>20.0</ele><time>2026-04-06T08:48:17.477Z</time></trkpt><trkpt lat="44.8465249" lon="11.0493918"><ele>20.0</ele><time>2026-04-06T08:48:18.477Z</time></trkpt><trkpt lat="44.8466978" lon="11.0493794"><ele>20.333333333333336</ele><time>2026-04-06T08:48:19.476Z</time></trkpt><trkpt lat="44.8468725" lon="11.0493702"><ele>20.666666666666668</ele><time>2026-04-06T08:48:20.476Z</time></trkpt><trkpt lat="44.8470462" lon="11.049353"><ele>21.0</ele><time>2026-04-06T08:48:21.476Z</time></trkpt><trkpt lat="44.8472182" lon="11.0493424"><ele>21.0</ele><time>2026-04-06T08:48:22.477Z</time></trkpt><trkpt lat="44.8473889" lon="11.0493289"><ele>21.0</ele><time>2026-04-06T08:48:23.477Z</time></trkpt><trkpt lat="44.8475548" lon="11.0493211"><ele>21.0</ele><time>2026-04-06T08:48:24.476Z</time></trkpt><trkpt lat="44.8477257" lon="11.0493077"><ele>20.666666666666668</ele><time>2026-04-06T08:48:25.476Z</time></trkpt><trkpt lat="44.8478911" lon="11.0492923"><ele>20.333333333333336</ele><time>2026-04-06T08:48:26.476Z</time></trkpt><trkpt lat="44.8480607" lon="11.0492816"><ele>20.0</ele><time>2026-04-06T08:48:27.478Z</time></trkpt><trkpt lat="44.848228" lon="11.0492616"><ele>20.0</ele><time>2026-04-06T08:48:28.477Z</time></trkpt><trkpt lat="44.8483957" lon="11.0492416"><ele>20.0</ele><time>2026-04-06T08:48:29.476Z</time></trkpt><trkpt lat="44.8485688" lon="11.0492282"><ele>20.0</ele><time>2026-04-06T08:48:30.477Z</time></trkpt><trkpt lat="44.8487367" lon="11.0492078"><ele>20.333333333333336</ele><time>2026-04-06T08:48:31.476Z</time></trkpt><trkpt lat="44.8489044" lon="11.0491927"><ele>20.666666666666668</ele><time>2026-04-06T08:48:32.478Z</time></trkpt><trkpt lat="44.8489044" lon="11.0491927"><ele>21.0</ele><time>2026-04-06T08:48:32.478Z</time></trkpt><trkpt lat="44.8497176" lon="11.0491424"><ele>20.0</ele><time>2026-04-06T08:48:37.477Z</time></trkpt><trkpt lat="44.8498742" lon="11.0491306"><ele>19.0</ele><time>2026-04-06T08:48:38.476Z</time></trkpt><trkpt lat="44.8501929" lon="11.0491069"><ele>19.0</ele><time>2026-04-06T08:48:40.477Z</time></trkpt><trkpt lat="44.8503571" lon="11.0490916"><ele>19.0</ele><time>2026-04-06T08:48:41.476Z</time></trkpt><trkpt lat="44.8505183" lon="11.0490783"><ele>19.0</ele><time>2026-04-06T08:48:42.477Z</time></trkpt><trkpt lat="44.8506821" lon="11.049062"><ele>19.0</ele><time>2026-04-06T08:48:43.476Z</time></trkpt><trkpt lat="44.8508452" lon="11.0490458"><ele>19.0</ele><time>2026-04-06T08:48:44.476Z</time></trkpt><trkpt lat="44.8510102" lon="11.0490308"><ele>19.0</ele><time>2026-04-06T08:48:45.477Z</time></trkpt><trkpt lat="44.85117" lon="11.0490162"><ele>19.0</ele><time>2026-04-06T08:48:46.476Z</time></trkpt><trkpt lat="44.8513354" lon="11.0490064"><ele>19.0</ele><time>2026-04-06T08:48:47.476Z</time></trkpt><trkpt lat="44.8515007" lon="11.0489917"><ele>19.0</ele><time>2026-04-06T08:48:48.476Z</time></trkpt><trkpt lat="44.8516656" lon="11.0489793"><ele>20.0</ele><time>2026-04-06T08:48:49.476Z</time></trkpt><trkpt lat="44.8518348" lon="11.0489593"><ele>21.0</ele><time>2026-04-06T08:48:50.476Z</time></trkpt><trkpt lat="44.8520102" lon="11.0489387"><ele>22.0</ele><time>2026-04-06T08:48:51.476Z</time></trkpt><trkpt lat="44.8521782" lon="11.0489205"><ele>22.0</ele><time>2026-04-06T08:48:52.477Z</time></trkpt><trkpt lat="44.8523354" lon="11.0488962"><ele>22.0</ele><time>2026-04-06T08:48:53.476Z</time></trkpt><trkpt lat="44.8525044" lon="11.0488847"><ele>22.0</ele><time>2026-04-06T08:48:54.476Z</time></trkpt><trkpt lat="44.8526698" lon="11.0488762"><ele>22.0</ele><time>2026-04-06T08:48:55.476Z</time></trkpt><trkpt lat="44.8528441" lon="11.048875"><ele>22.0</ele><time>2026-04-06T08:48:56.476Z</time></trkpt><trkpt lat="44.8530167" lon="11.0488633"><ele>22.0</ele><time>2026-04-06T08:48:57.476Z</time></trkpt><trkpt lat="44.8531875" lon="11.0488468"><ele>22.0</ele><time>2026-04-06T08:48:58.477Z</time></trkpt><trkpt lat="44.8533581" lon="11.0488338"><ele>22.0</ele><time>2026-04-06T08:48:59.476Z</time></trkpt><trkpt lat="44.8535301" lon="11.048822"><ele>22.0</ele><time>2026-04-06T08:49:00.476Z</time></trkpt><trkpt lat="44.8536998" lon="11.0488106"><ele>20.666666666666664</ele><time>2026-04-06T08:49:01.475Z</time></trkpt><trkpt lat="44.8538759" lon="11.0488035"><ele>19.333333333333332</ele><time>2026-04-06T08:49:02.476Z</time></trkpt><trkpt lat="44.8540476" lon="11.0487859"><ele>18.0</ele><time>2026-04-06T08:49:03.476Z</time></trkpt><trkpt lat="44.8542217" lon="11.0487719"><ele>18.333333333333332</ele><time>2026-04-06T08:49:04.476Z</time></trkpt><trkpt lat="44.8543954" lon="11.048756"><ele>18.666666666666664</ele><time>2026-04-06T08:49:05.478Z</time></trkpt><trkpt lat="44.8545661" lon="11.0487461"><ele>19.0</ele><time>2026-04-06T08:49:06.477Z</time></trkpt><trkpt lat="44.8547384" lon="11.0487354"><ele>19.0</ele><time>2026-04-06T08:49:07.477Z</time></trkpt><trkpt lat="44.854911" lon="11.0487268"><ele>19.0</ele><time>2026-04-06T08:49:08.476Z</time></trkpt><trkpt lat="44.8550813" lon="11.0487104"><ele>19.0</ele><time>2026-04-06T08:49:09.476Z</time></trkpt><trkpt lat="44.8552548" lon="11.0487001"><ele>18.666666666666664</ele><time>2026-04-06T08:49:10.477Z</time></trkpt><trkpt lat="44.8554265" lon="11.0486874"><ele>18.333333333333332</ele><time>2026-04-06T08:49:11.476Z</time></trkpt><trkpt lat="44.8556008" lon="11.0486713"><ele>18.0</ele><time>2026-04-06T08:49:12.477Z</time></trkpt><trkpt lat="44.8557737" lon="11.0486604"><ele>18.0</ele><time>2026-04-06T08:49:13.477Z</time></trkpt><trkpt lat="44.8559485" lon="11.0486482"><ele>18.0</ele><time>2026-04-06T08:49:14.477Z</time></trkpt><trkpt lat="44.856122" lon="11.0486359"><ele>18.0</ele><time>2026-04-06T08:49:15.476Z</time></trkpt><trkpt lat="44.856292" lon="11.0486194"><ele>18.0</ele><time>2026-04-06T08:49:16.477Z</time></trkpt><trkpt lat="44.8564665" lon="11.0486057"><ele>18.0</ele><time>2026-04-06T08:49:17.476Z</time></trkpt><trkpt lat="44.8566406" lon="11.0485935"><ele>18.0</ele><time>2026-04-06T08:49:18.476Z</time></trkpt><trkpt lat="44.8568167" lon="11.0485753"><ele>18.666666666666668</ele><time>2026-04-06T08:49:19.476Z</time></trkpt><trkpt lat="44.8569963" lon="11.0485628"><ele>19.333333333333336</ele><time>2026-04-06T08:49:20.477Z</time></trkpt><trkpt lat="44.8571707" lon="11.0485496"><ele>20.0</ele><time>2026-04-06T08:49:21.476Z</time></trkpt><trkpt lat="44.857349" lon="11.0485353"><ele>20.0</ele><time>2026-04-06T08:49:22.476Z</time></trkpt><trkpt lat="44.8575267" lon="11.0485256"><ele>20.0</ele><time>2026-04-06T08:49:23.476Z</time></trkpt><trkpt lat="44.8577071" lon="11.0485155"><ele>20.0</ele><time>2026-04-06T08:49:24.477Z</time></trkpt><trkpt lat="44.8578846" lon="11.0484977"><ele>20.333333333333336</ele><time>2026-04-06T08:49:25.476Z</time></trkpt><trkpt lat="44.858063" lon="11.0484835"><ele>20.666666666666668</ele><time>2026-04-06T08:49:26.476Z</time></trkpt><trkpt lat="44.858242" lon="11.0484725"><ele>21.0</ele><time>2026-04-06T08:49:27.477Z</time></trkpt><trkpt lat="44.8584243" lon="11.0484619"><ele>20.333333333333332</ele><time>2026-04-06T08:49:28.476Z</time></trkpt><trkpt lat="44.8586046" lon="11.0484519"><ele>19.666666666666664</ele><time>2026-04-06T08:49:29.477Z</time></trkpt><trkpt lat="44.8587871" lon="11.0484358"><ele>19.0</ele><time>2026-04-06T08:49:30.477Z</time></trkpt><trkpt lat="44.8589691" lon="11.0484271"><ele>19.0</ele><time>2026-04-06T08:49:31.476Z</time></trkpt><trkpt lat="44.8591518" lon="11.0484222"><ele>19.0</ele><time>2026-04-06T08:49:32.476Z</time></trkpt><trkpt lat="44.8593328" lon="11.0484117"><ele>19.0</ele><time>2026-04-06T08:49:33.476Z</time></trkpt><trkpt lat="44.8595146" lon="11.0484035"><ele>17.666666666666664</ele><time>2026-04-06T08:49:34.477Z</time></trkpt><trkpt lat="44.8596967" lon="11.0483935"><ele>16.333333333333332</ele><time>2026-04-06T08:49:35.477Z</time></trkpt><trkpt lat="44.8598839" lon="11.0483807"><ele>15.0</ele><time>2026-04-06T08:49:36.476Z</time></trkpt><trkpt lat="44.8600636" lon="11.0483734"><ele>15.0</ele><time>2026-04-06T08:49:37.477Z</time></trkpt><trkpt lat="44.8602476" lon="11.0483633"><ele>15.0</ele><time>2026-04-06T08:49:38.477Z</time></trkpt><trkpt lat="44.8604249" lon="11.0483637"><ele>15.0</ele><time>2026-04-06T08:49:39.476Z</time></trkpt><trkpt lat="44.86061" lon="11.0483634"><ele>15.0</ele><time>2026-04-06T08:49:40.477Z</time></trkpt><trkpt lat="44.8607919" lon="11.0483669"><ele>15.0</ele><time>2026-04-06T08:49:41.476Z</time></trkpt><trkpt lat="44.8609624" lon="11.0483631"><ele>15.0</ele><time>2026-04-06T08:49:42.477Z</time></trkpt><trkpt lat="44.861125" lon="11.0483561"><ele>15.5</ele><time>2026-04-06T08:49:43.477Z</time></trkpt><trkpt lat="44.8612792" lon="11.0483509"><ele>16.0</ele><time>2026-04-06T08:49:44.476Z</time></trkpt><trkpt lat="44.861426" lon="11.0483437"><ele>16.5</ele><time>2026-04-06T08:49:45.478Z</time></trkpt><trkpt lat="44.8615673" lon="11.0483432"><ele>17.0</ele><time>2026-04-06T08:49:46.477Z</time></trkpt><trkpt lat="44.8617018" lon="11.0483461"><ele>17.25</ele><time>2026-04-06T08:49:47.476Z</time></trkpt><trkpt lat="44.861828" lon="11.0483455"><ele>17.5</ele><time>2026-04-06T08:49:48.477Z</time></trkpt><trkpt lat="44.8619506" lon="11.0483459"><ele>17.75</ele><time>2026-04-06T08:49:49.476Z</time></trkpt><trkpt lat="44.8620647" lon="11.0483541"><ele>18.0</ele><time>2026-04-06T08:49:50.476Z</time></trkpt><trkpt lat="44.8621706" lon="11.0483643"><ele>18.0</ele><time>2026-04-06T08:49:51.476Z</time></trkpt><trkpt lat="44.8622734" lon="11.0483742"><ele>18.0</ele><time>2026-04-06T08:49:52.477Z</time></trkpt><trkpt lat="44.8623642" lon="11.0483824"><ele>18.0</ele><time>2026-04-06T08:49:53.477Z</time></trkpt><trkpt lat="44.8624533" lon="11.0483868"><ele>18.0</ele><time>2026-04-06T08:49:54.476Z</time></trkpt><trkpt lat="44.8625346" lon="11.0483918"><ele>18.0</ele><time>2026-04-06T08:49:55.476Z</time></trkpt><trkpt lat="44.8626022" lon="11.0484156"><ele>18.0</ele><time>2026-04-06T08:49:56.478Z</time></trkpt><trkpt lat="44.8626619" lon="11.0484516"><ele>18.0</ele><time>2026-04-06T08:49:57.476Z</time></trkpt><trkpt lat="44.8627424" lon="11.0485298"><ele>18.0</ele><time>2026-04-06T08:49:59.476Z</time></trkpt><trkpt lat="44.8628109" lon="11.048571"><ele>18.0</ele><time>2026-04-06T08:50:01.477Z</time></trkpt><trkpt lat="44.8630868" lon="11.0484377"><ele>18.0</ele><time>2026-04-06T08:53:55.476Z</time></trkpt></trkseg></trk></gpx>